GFSCGP_2pvu_pres_000.txt.gz
Presure
152 169 172 184 156 93 171 173 177 146 199 110 134 149 125 155 169 169 161 179 170 157 135 177 169 167 169 161 158 161 162 110 158 157 95 153 160 160 96 153 159 148 145 146
170 188 167 110 80 188 166 168 175 114 194 188 208 136 162 146 166 175 160 179 143 166 147 136 152 164 161 165 154 162 119 150 148 157 159 160 160 116 147 122 143 139 152 159
108 160 169 180 116 185 103 187 166 145 188 196 178 124 191 122 120 125 153 127 133 139 155 152 152 149 160 163 167 155 150 160 163 169 166 157 141 148 89 139 151 139 136 145
166 91 181 171 192 177 179 193 173 193 184 182 196 208 104 104 102 134 150 145 164 168 158 145 154 176 161 160 164 169 164 168 167 153 134 111 145 147 161 125 127 153 143 157
177 68 173 170 188 174 194 187 202 180 179 189 206 198 194 140 102 106 148 165 164 174 109 159 102 104 161 174 159 132 128 128 99 168 157 160 138 168 158 134 95 172 103 106
194 144 105 180 180 169 156 101 202 170 190 173 202 137 123 166 175 168 144 172 172 175 177 118 121 106 105 106 113 166 169 108 155 128 135 171 168 166 169 109 163 134 142 165
202 185 126 182 129 165 178 166 149 160 192 183 183 198 130 136 135 162 159 154 127 99 168 104 100 98 180 178 170 101 164 145 146 150 154 174 163 140 149 149 170 163 164 160
178 190 182 188 189 100 90 158 193 90 194 160 120 194 191 176 162 159 167 165 116 95 96 98 102 177 152 165 150 170 148 161 172 172 166 130 165 145 148 167 172 169 180 176
194 183 184 184 183 175 172 176 178 171 187 133 168 193 200 155 174 138 152 156 176 171 166 158 155 95 160 167 152 154 167 145 144 145 177 175 77 156 170 167 171 171 163 158
189 158 184 189 178 187 175 182 169 174 170 154 193 144 204 177 166 157 114 174 163 143 168 114 117 164 169 156 172 154 174 148 104 168 163 174 169 166 179 181 181 170 153 176
169 174 179 188 192 192 159 158 165 194 183 194 172 190 209 147 148 113 92 93 178 175 143 150 160 169 175 177 145 165 151 167 176 163 167 170 169 182 179 168 163 158 177 177
200 182 202 154 146 187 195 195 153 189 176 194 169 181 203 182 157 157 141 130 136 182 167 170 137 171 141 155 135 136 174 168 179 163 161 182 181 171 163 172 175 176 190 135
185 185 182 186 184 172 171 180 181 239 164 169 185 176 203 193 183 169 168 164 165 175 169 170 154 145 179 179 103 143 174 167 181 184 177 171 161 168 171 133 184 195 181 179
196 181 198 150 204 194 195 190 196 177 158 190 185 179 203 182 164 162 170 179 156 166 173 176 167 178 175 153 169 169 178 180 177 168 165 178 183 180 134 195 122 177 162 123
197 196 190 197 191 197 211 193 175 172 156 179 171 149 184 191 182 179 152 163 164 171 166 179 163 158 150 174 179 179 171 166 171 176 185 188 134 130 159 136 144 128 177 142
222 188 141 237 154 195 148 219 157 155 195 149 134 140 197 201 179 163 158 133 133 142 154 182 179 176 166 162 173 188 189 186 191 199 107 103 161 147 129 194 133 135 163 137
229 233 235 227 204 204 218 192 129 157 199 200 160 158 202 200 160 178 179 167 176 179 188 186 174 167 167 181 189 192 193 180 188 191 127 102 126 133 168 154 216 137 141 147
222 190 177 221 208 184 219 216 174 175 159 156 170 147 146 175 170 174 176 169 164 171 149 150 191 192 194 193 161 163 186 202 192 135 128 121 173 155 201 151 146 179 226 138
223 204 139 160 157 141 149 158 193 197 195 198 135 193 152 197 175 170 168 164 169 191 188 188 191 198 200 125 126 148 172 170 133 125 132 135 134 93 132 163 155 127 248 162
207 214 203 151 150 150 208 203 196 200 170 171 164 180 183 160 137 183 189 179 187 192 163 182 178 181 156 210 151 120 183 197 128 146 158 136 178 153 215 285 136 240 413 283
204 211 179 166 140 189 167 170 198 196 203 209 194 170 187 187 191 190 111 103 166 149 167 177 204 149 107 180 126 201 192 159 134 130 138 192 176 206 391 421 403 398 388 389
228 204 176 158 216 206 208 188 183 206 182 209 188 184 200 174 157 181 159 98 140 177 200 203 155 201 194 167 176 172 135 187 196 143 211 181 294 358 419 408 393 388 381 380
201 168 154 150 197 197 201 204 192 159 200 204 205 169 167 197 173 220 104 126 151 193 144 128 188 202 208 191 159 216 190 219 254 258 282 301 414 424 411 397 384 376 377 380
196 208 206 200 201 207 148 159 205 194 199 214 225 207 239 233 211 200 189 144 160 169 162 153 124 212 188 231 197 235 228 261 191 288 314 408 425 415 400 380 378 383 386 382
195 208 223 243 200 242 243 236 198 207 206 223 225 204 193 155 145 149 167 160 153 166 153 176 225 222 214 195 229 245 254 270 286 332 402 418 407 394 386 385 386 376 373 361
245 197 226 241 174 173 152 150 169 174 159 148 155 162 147 133 110 152 193 200 180 204 141 181 215 199 224 217 163 214 265 289 404 426 411 398 388 385 379 380 385 351 343 346

GFSCGP_2pvu_pres_003.txt.gz
Presure
181 176 176 171 98 119 207 179 195 176 96 163 138 191 196 133 125 76 90 190 169 175 161 149 171 158 143 162 163 164 172 157 158 165 161 150 98 156 160 157 155 156 152 160
193 177 169 170 163 166 90 190 131 169 128 162 183 105 104 80 144 151 135 144 160 168 157 155 172 155 145 146 150 154 159 161 169 169 160 167 164 166 161 150 142 124 134 150
180 169 168 167 115 84 183 162 192 161 179 161 178 175 187 164 166 152 148 163 168 166 165 159 139 155 165 150 150 155 156 140 156 153 162 167 164 160 130 134 135 136 164 146
172 176 176 174 185 153 183 180 97 172 202 203 174 120 170 193 201 128 159 124 127 165 158 142 130 131 144 159 159 104 101 101 107 90 102 171 141 128 133 152 159 163 145 175
178 174 70 178 178 175 175 185 183 192 172 183 130 183 191 200 195 132 135 157 103 157 121 148 144 153 164 102 108 97 99 104 168 174 152 125 98 131 160 168 132 143 145 168
175 167 179 186 199 171 179 194 164 85 155 94 176 144 187 200 203 148 159 132 113 109 155 149 159 178 164 178 95 93 101 103 124 159 117 162 152 171 135 153 162 171 176 138
179 182 133 131 136 174 174 187 186 175 183 169 179 171 186 178 193 90 195 110 149 153 167 143 129 95 96 95 98 151 148 96 168 143 163 146 159 150 152 144 170 169 150 154
184 184 173 170 81 123 172 180 173 177 92 191 81 141 190 200 185 196 190 192 176 148 162 164 165 102 169 165 106 172 156 168 165 146 148 171 169 151 157 142 159 174 175 174
197 195 190 182 184 139 90 178 176 162 171 178 174 84 173 197 173 184 184 127 136 135 120 153 160 180 173 179 176 163 152 159 157 172 175 163 156 168 141 170 156 168 160 179
195 194 191 190 186 163 175 168 168 115 176 172 165 176 191 137 177 151 144 214 203 160 132 133 144 164 168 153 176 174 173 170 167 159 170 150 123 159 179 168 179 179 177 177
195 190 189 185 179 194 190 184 140 190 141 152 171 174 188 183 141 187 177 181 198 201 173 118 177 157 185 176 176 173 167 146 132 174 144 173 175 168 176 178 179 173 171 170
201 195 195 197 187 190 196 185 173 185 160 185 174 165 162 175 174 190 102 182 179 207 152 157 166 171 138 158 152 178 174 172 180 178 174 180 179 179 188 171 169 174 191 192
181 195 191 194 197 194 187 181 161 189 194 155 155 183 189 170 196 168 171 177 206 202 202 174 171 139 133 181 179 180 127 168 179 177 178 165 169 176 178 192 192 188 183 143
194 186 190 188 193 166 197 186 173 181 196 173 160 169 171 167 186 201 140 183 175 203 196 195 165 182 170 163 180 165 180 182 180 189 169 176 173 188 192 194 192 182 146 211
191 198 195 177 190 182 182 178 162 196 195 156 185 162 159 117 168 174 185 183 183 186 199 189 195 154 180 135 189 183 190 172 178 176 186 190 187 199 181 173 203 188 207 193
188 186 185 199 188 179 187 184 181 192 188 188 190 114 183 182 133 179 180 147 161 158 157 176 187 187 180 176 168 188 183 170 190 185 146 127 167 148 209 210 206 165 174 131
193 192 191 193 192 180 189 189 177 195 183 198 189 197 194 137 151 166 147 156 155 184 181 199 199 177 167 169 172 172 190 180 162 172 161 124 143 121 168 139 153 225 179 135
195 195 195 195 195 190 199 199 190 194 187 143 192 199 233 168 174 219 217 176 183 183 163 193 199 180 199 196 195 183 143 174 181 202 207 144 146 182 133 164 213 158 202 235
234 235 241 238 230 236 237 233 225 226 229 231 225 164 217 202 142 152 152 188 152 196 196 183 160 190 191 149 181 200 200 108 157 222 126 171 129 188 204 216 255 187 280 288
225 137 217 226 232 228 231 140 177 236 140 128 153 136 154 215 209 196 170 212 212 212 208 188 130 95 207 154 173 155 95 148 144 128 170 189 193 182 205 200 266 285 214 337
216 221 216 224 222 177 216 215 196 147 157 190 193 209 208 188 202 205 201 201 211 204 180 162 134 166 158 132 137 234 189 116 210 192 156 211 228 189 220 223 217 336 407 435
223 162 168 149 221 122 211 147 173 130 170 208 212 199 213 211 209 207 206 207 210 213 191 183 125 170 164 177 118 150 193 92 203 211 195 188 200 246 278 302 327 345 424 415
201 142 221 222 150 209 206 217 152 204 214 213 215 209 206 164 161 200 176 194 194 201 135 152 128 210 197 166 174 182 210 187 180 228 190 175 261 236 255 324 334 421 411 403
171 165 147 218 220 230 213 137 143 200 204 188 207 208 204 201 207 210 203 161 152 127 132 123 168 175 185 192 203 180 187 219 217 238 155 232 266 285 310 346 415 410 398 381
221 221 144 129 149 218 222 215 206 173 202 207 209 212 187 186 156 158 143 172 124 126 224 171 191 193 169 196 192 188 173 214 153 182 264 281 287 289 363 403 405 399 379 366
205 223 231 216 159 208 218 211 209 213 167 167 142 140 140 146 143 131 128 133 203 190 195 198 167 177 186 200 207 116 129 237 246 266 277 288 293 400 414 402 317 376 362 356

GFSCGP_2pvu_pres_006.txt.gz
Presure
180 179 183 185 193 187 191 116 192 180 185 181 184 160 195 135 196 202 113 114 78 83 138 196 191 179 171 164 177 176 143 162 154 158 161 157 160 161 167 146 166 161 161 154
185 197 154 177 182 193 191 197 191 194 203 177 178 189 120 185 164 191 189 130 184 213 132 170 188 172 173 148 177 172 161 153 146 153 101 139 100 95 100 113 168 166 169 139
142 166 162 174 148 130 145 182 191 206 170 173 196 178 180 178 171 169 145 219 224 214 136 135 160 169 165 161 148 158 163 161 153 154 100 100 101 109 110 125 150 166 160 135
124 87 180 109 184 187 184 179 197 135 172 183 182 184 184 94 116 113 112 203 118 216 129 121 154 170 167 122 125 126 138 113 118 94 98 102 103 97 177 158 169 157 152 141
184 144 186 172 177 187 181 170 95 178 168 203 165 95 99 166 159 185 197 193 210 117 128 185 107 109 166 123 146 149 164 171 98 98 101 101 98 173 159 164 159 155 170 159
184 189 195 181 175 179 178 130 174 104 185 116 173 192 201 174 186 166 191 199 206 177 179 105 142 110 110 156 130 157 95 91 98 101 128 151 178 154 168 148 171 175 167 137
192 188 195 190 110 184 181 143 190 174 180 170 189 172 166 181 191 178 190 196 198 137 165 158 161 140 154 159 148 149 136 158 166 177 174 169 163 152 158 160 175 165 159 183
155 184 200 90 178 93 165 182 178 168 92 164 170 179 184 153 180 192 193 185 189 195 196 198 141 128 152 158 168 163 162 154 176 164 170 170 164 171 174 139 172 180 174 173
180 147 173 194 192 185 169 179 173 189 192 177 155 163 182 178 188 174 192 193 182 123 185 175 162 205 125 138 120 114 160 159 168 152 161 170 170 164 172 141 182 178 162 160
193 156 159 183 178 174 177 183 114 83 178 166 160 184 178 178 169 165 128 196 154 181 181 98 151 125 132 133 159 100 142 166 164 173 172 152 179 185 184 164 158 165 179 179
200 188 177 166 172 160 168 177 180 172 183 137 114 164 172 188 175 166 178 181 181 113 159 186 121 179 189 194 200 186 169 165 170 122 157 157 155 174 167 169 189 180 177 170
203 201 192 185 177 180 172 176 171 163 174 184 175 163 190 178 191 174 165 184 172 189 197 190 189 182 185 197 202 201 198 177 151 180 130 178 169 166 193 165 170 182 190 190
270 199 194 193 191 186 186 192 194 169 194 184 177 161 105 158 174 167 187 183 170 171 119 186 176 177 180 187 194 202 203 146 181 186 193 174 192 162 165 176 179 191 153 136
264 246 196 191 185 159 194 178 184 181 189 177 163 181 177 179 159 168 166 197 185 181 189 200 197 189 193 196 187 167 181 195 151 176 199 185 183 182 180 193 176 123 175 147
236 246 217 200 192 195 195 184 184 189 188 181 184 177 172 177 183 185 170 159 110 171 172 167 177 173 181 169 179 191 182 183 181 201 197 184 179 192 164 154 170 196 180 159
257 200 217 215 203 199 194 197 194 193 199 171 185 160 176 180 181 192 160 159 159 168 166 184 190 168 141 193 167 198 188 168 186 201 201 157 151 178 98 114 158 222 142 213
246 250 247 189 187 193 192 194 190 179 154 185 177 181 163 185 191 192 172 197 187 190 180 142 165 189 187 174 210 178 194 193 177 127 157 187 148 180 141 148 204 195 184 201
227 224 209 207 201 196 199 180 188 175 187 182 177 185 193 190 198 189 185 189 197 191 194 193 135 170 191 205 178 205 134 97 212 201 158 131 167 131 164 190 182 194 212 210
190 182 183 183 182 178 179 187 182 186 184 190 189 176 181 192 204 203 196 140 166 218 203 156 215 219 214 207 198 212 114 213 114 141 186 225 141 209 191 209 220 226 218 233
196 201 195 191 189 185 200 197 194 190 194 199 189 199 199 133 149 153 213 206 145 153 220 223 211 195 210 208 202 213 209 128 196 138 135 220 211 204 176 228 218 201 204 216
217 215 153 141 200 198 199 202 198 199 184 189 215 218 226 138 133 220 143 194 221 214 213 213 214 215 210 216 203 156 127 160 169 192 170 209 197 119 187 207 216 250 242 273
229 225 228 201 198 238 198 132 128 239 131 243 197 127 236 220 141 223 210 215 219 221 214 148 173 203 197 189 123 144 175 199 140 195 193 177 207 151 169 189 200 220 235 288
225 218 140 151 214 217 128 132 222 127 216 150 213 220 201 199 200 215 212 209 199 199 202 203 211 217 126 132 168 199 203 177 193 195 204 181 116 197 189 204 256 271 295 301
224 232 219 230 223 221 164 223 182 214 217 206 177 174 134 216 212 204 202 212 190 214 151 126 127 127 167 187 218 151 169 202 205 182 191 111 193 189 193 212 268 296 292 439
207 208 214 205 206 213 184 184 220 221 220 212 196 173 194 192 210 211 210 179 141 152 140 124 153 221 214 198 174 166 202 179 185 173 162 207 228 233 246 262 292 279 407 414
223 213 223 211 217 217 221 130 131 172 180 191 219 216 217 164 165 143 128 141 120 121 119 189 196 188 184 147 188 186 183 197 203 195 197 204 226 215 263 287 314 443 367 354

GFSCGP_2pvu_pres_009.txt.gz
Presure
202 191 190 78 193 189 98 192 199 189 189 187 192 73 90 88 188 184 193 198 194 124 146 182 119 86 189 182 194 170 180 167 177 178 155 140 143 150 99 101 101 105 104 122
207 193 179 169 170 191 199 123 110 186 153 191 185 183 201 188 187 198 190 103 196 208 221 92 142 177 148 189 190 177 178 165 161 180 169 145 165 153 153 102 104 91 153 169
91 185 180 171 168 187 193 191 186 186 137 179 180 181 185 164 178 187 187 165 112 199 241 221 214 213 163 172 155 166 171 163 160 138 137 133 134 96 101 96 95 154 172 176
202 190 183 179 181 182 184 194 188 80 178 123 170 181 177 189 194 189 178 188 195 192 199 209 140 122 191 124 114 118 172 168 123 143 130 156 94 98 96 151 169 174 173 171
199 137 180 184 178 170 185 194 189 188 89 179 190 193 182 180 178 178 171 94 182 108 118 212 167 106 145 168 140 151 114 140 157 99 87 95 163 167 166 168 174 152 164 170
169 194 140 155 187 179 186 198 195 191 185 164 188 178 177 173 174 182 158 173 176 188 196 199 192 210 207 187 130 110 147 129 161 162 148 151 170 154 145 135 172 172 169 175
178 76 188 181 186 118 183 170 171 176 196 105 174 100 171 179 182 169 177 191 187 183 189 197 155 207 210 130 158 156 161 132 154 154 168 170 169 159 160 172 162 178 152 164
201 193 183 163 81 178 170 168 190 177 166 179 176 191 195 185 176 116 176 162 193 179 190 187 190 198 200 147 195 200 201 132 133 129 140 122 133 157 165 156 174 131 158 183
100 194 178 181 180 177 177 173 88 177 166 185 170 184 167 97 157 160 171 168 193 185 186 194 191 191 187 172 158 190 194 165 184 199 136 149 145 162 147 170 136 149 162 174
192 198 186 186 183 180 182 181 173 167 171 184 189 186 185 178 196 182 190 171 161 182 156 154 192 192 183 142 131 119 123 124 169 194 203 203 198 200 165 190 160 182 187 169
196 198 178 186 171 144 186 185 145 178 150 135 175 173 187 168 187 182 171 175 163 161 159 175 189 186 184 186 185 184 183 188 184 189 139 194 196 146 162 184 193 193 195 201
199 197 191 158 182 188 188 190 177 175 177 177 168 182 196 170 166 96 152 186 172 179 177 197 186 179 179 191 195 194 198 187 181 182 193 173 169 185 175 172 183 191 173 194
201 201 199 189 178 151 193 193 193 192 168 179 183 179 167 183 173 168 161 164 187 195 173 170 169 172 177 177 180 185 191 202 194 181 183 192 199 154 202 177 208 171 167 185
219 207 200 194 179 149 161 176 183 176 165 176 174 177 171 182 188 192 141 191 180 175 188 173 174 187 179 177 172 171 167 184 181 188 185 173 156 206 210 199 175 191 186 171
342 218 211 202 191 187 179 168 160 167 177 158 179 180 164 176 172 177 188 190 187 182 118 183 191 177 155 190 182 160 194 162 180 177 181 205 127 131 172 204 157 127 133 138
198 251 236 217 204 197 192 187 188 184 169 171 190 183 184 183 176 171 173 170 168 163 176 190 193 197 167 193 162 206 175 195 210 219 215 216 212 215 129 203 131 136 134 142
204 198 204 270 268 202 196 195 192 192 192 187 185 183 189 192 182 191 189 183 179 172 192 197 195 206 176 138 185 193 194 218 204 214 204 200 155 198 126 180 153 146 147 215
237 202 204 263 265 259 231 200 190 186 185 187 183 182 188 179 187 188 191 188 194 197 195 154 131 168 187 174 200 208 192 218 222 225 225 166 212 137 219 161 215 195 172 195
244 250 204 261 263 259 238 228 206 199 195 189 193 199 196 197 185 165 193 191 160 131 183 191 193 192 157 199 242 226 222 220 214 205 129 128 196 237 152 209 182 127 209 124
200 242 250 247 243 210 191 192 184 190 185 204 188 188 190 191 187 135 185 188 182 192 148 149 151 210 223 223 223 208 216 222 215 126 137 253 215 207 143 188 197 204 123 112
188 186 187 203 209 219 220 194 198 196 187 188 180 184 192 185 189 191 153 200 186 166 203 215 184 233 219 224 226 210 171 124 130 243 216 207 185 132 143 166 204 123 136 191
197 202 196 188 184 168 137 188 187 184 164 155 171 183 197 128 198 183 179 122 221 245 238 220 204 213 210 203 216 123 125 182 216 190 181 161 143 197 152 159 192 205 209 215
237 239 218 209 194 128 198 149 169 132 138 133 137 235 127 232 142 154 246 241 144 202 207 217 209 201 218 119 122 121 212 165 137 140 150 192 194 133 207 193 203 203 211 239
237 230 235 236 232 231 161 136 128 225 238 235 151 233 235 236 231 229 153 212 170 212 221 218 158 149 120 120 132 167 170 207 149 183 195 201 132 184 195 202 201 219 245 272
216 216 233 229 228 197 230 229 199 204 182 218 225 225 224 219 221 220 222 225 164 195 138 132 135 133 120 168 203 192 203 135 191 171 191 177 187 195 208 216 173 250 270 303
216 213 217 214 183 214 216 214 216 205 222 206 134 131 166 226 224 226 233 237 155 130 140 160 133 128 195 194 205 210 161 176 193 191 211 219 213 198 221 195 255 269 312 314

GFSCGP_2pvu_pres_012.txt.gz
Presure
239 275 217 75 179 186 184 186 197 211 217 90 206 215 144 110 93 99 90 93 194 198 173 176 145 237 134 174 147 203 149 179 179 189 171 171 165 178 184 176 168 96 100 99
237 279 215 195 182 188 179 179 194 195 197 199 198 169 195 187 172 192 195 190 170 88 124 188 212 198 122 163 142 122 175 183 193 189 177 180 167 158 135 133 134 97 108 113
241 270 212 195 189 187 176 173 116 206 203 196 197 201 195 191 189 192 142 180 148 192 191 195 170 248 171 193 184 168 187 183 185 145 174 180 170 120 125 114 95 171 170 170
103 274 124 194 192 186 187 176 196 162 116 190 197 194 187 150 185 188 179 183 195 178 114 188 172 204 204 213 207 211 129 141 172 188 148 110 191 169 150 148 158 162 164 169
230 240 211 201 189 182 182 191 185 191 192 195 98 97 101 184 185 193 176 194 186 191 188 164 173 196 120 204 120 116 103 151 181 142 110 152 125 170 164 161 154 113 143 153
273 209 207 196 191 185 188 166 176 190 189 186 191 194 183 105 178 137 188 177 175 186 174 182 191 184 188 189 176 209 204 194 188 184 141 128 147 137 124 152 160 165 148 172
257 212 192 152 194 190 115 167 172 188 184 189 190 187 184 178 178 176 176 179 177 99 172 182 175 185 192 195 194 195 202 202 202 185 188 170 133 176 151 137 144 138 146 158
223 216 204 197 107 186 83 102 186 182 175 184 190 182 190 178 181 187 171 167 133 172 174 182 184 178 182 188 184 191 191 197 199 201 201 170 125 190 190 135 196 189 145 210
219 211 95 198 191 144 166 182 83 173 180 184 191 186 180 190 178 186 114 198 163 169 179 172 190 174 166 185 184 187 188 140 190 188 114 117 189 187 192 196 193 192 193 199
215 188 201 190 196 189 170 88 151 173 179 170 182 186 190 119 169 152 137 173 180 163 168 170 174 191 179 165 173 187 150 191 189 186 185 185 189 188 190 189 183 184 191 189
205 212 194 197 193 183 178 175 181 184 174 174 196 182 176 178 188 131 185 190 170 164 173 167 171 158 167 167 176 175 186 184 183 182 185 193 187 189 189 186 191 144 187 195
206 202 197 199 190 187 191 192 189 171 181 176 178 190 173 186 177 190 186 155 175 89 189 198 170 179 177 177 179 163 181 170 161 173 183 180 173 183 192 143 177 195 208 223
201 199 195 155 196 194 190 180 185 180 177 177 176 188 175 166 176 178 181 177 178 170 170 176 184 169 159 167 188 180 170 172 175 164 186 126 183 164 171 195 196 213 151 117
212 203 201 195 192 154 179 150 175 176 176 184 180 183 174 168 170 173 179 181 185 181 179 165 165 181 185 143 180 188 177 195 183 170 151 170 182 184 204 194 222 212 101 192
216 203 197 196 195 186 185 185 179 177 181 183 187 191 177 170 164 179 170 174 171 183 188 188 181 183 191 185 190 187 189 189 193 144 131 172 188 201 205 225 225 146 199 169
224 205 201 199 196 195 186 161 176 177 177 182 187 186 190 189 172 164 180 180 177 183 169 188 183 175 181 177 174 182 192 162 127 140 197 201 205 213 228 230 126 220 127 134
292 215 205 200 196 195 194 182 168 171 165 172 180 191 182 155 170 168 174 182 178 184 190 172 172 186 196 196 197 171 144 183 201 200 200 222 230 224 202 126 189 130 239 233
323 332 224 211 201 193 144 193 189 182 182 169 169 174 171 168 175 175 181 186 184 185 187 193 195 194 162 170 141 170 189 198 182 188 220 227 223 215 169 128 194 224 218 212
197 212 304 288 217 209 209 207 201 194 191 189 187 187 190 190 188 186 144 185 187 179 196 161 188 172 157 142 192 194 193 205 205 226 236 151 128 126 146 228 211 205 213 209
281 259 207 199 191 191 235 212 212 209 206 199 198 195 193 193 189 184 188 192 190 192 139 186 133 189 192 197 195 204 237 232 232 133 126 126 122 243 204 209 175 197 170 150
248 247 272 201 193 195 195 263 265 260 259 260 256 252 209 197 193 180 142 161 173 140 133 156 158 196 195 190 172 216 231 217 156 148 124 138 211 207 200 187 187 201 165 205
210 221 225 231 233 229 240 243 192 244 181 187 245 166 137 227 210 154 196 187 170 129 193 199 198 199 187 241 180 223 137 212 168 125 186 211 207 183 214 159 149 207 204 213
179 179 184 198 212 217 226 231 228 188 141 218 218 219 209 138 163 185 200 182 189 199 201 216 143 237 221 216 136 137 184 135 159 206 204 160 181 199 203 199 204 189 204 202
207 187 195 195 192 185 181 186 199 141 197 196 197 135 142 140 164 197 197 208 233 242 240 232 224 222 221 135 212 165 155 149 220 212 190 188 175 199 200 205 188 162 209 221
228 231 227 240 239 216 199 201 133 194 195 197 151 126 215 216 216 198 195 235 226 222 221 225 230 131 132 215 234 151 188 205 200 193 181 148 186 192 191 191 176 205 225 226
166 229 227 227 228 228 226 233 230 210 233 231 227 223 224 226 227 226 228 156 232 231 232 203 131 142 200 190 203 220 201 193 179 127 135 205 188 195 202 196 215 222 251 297

GFSCGP_2pvu_pres_015.txt.gz
Presure
359 390 422 321 226 247 202 199 190 183 190 187 137 135 89 84 83 89 95 90 208 92 217 80 203 89 96 196 208 227 105 171 122 117 198 167 180 179 190 175 176 170 95 143
394 394 408 332 107 246 189 197 188 184 187 178 149 205 211 182 203 119 111 87 103 94 95 103 168 185 192 144 159 217 123 134 152 187 178 133 184 169 183 181 142 118 134 115
389 449 464 335 233 251 196 192 190 155 175 180 175 205 155 203 208 204 207 148 153 150 100 103 188 188 115 191 203 103 213 210 207 202 204 182 178 152 187 161 176 121 119 173
379 401 385 131 230 255 205 190 190 189 174 180 176 201 212 204 202 207 201 196 160 146 180 190 193 186 193 187 198 111 193 159 208 205 202 162 116 170 135 183 128 159 174 150
401 357 392 334 227 257 204 191 185 81 177 179 186 224 208 201 204 163 197 197 185 191 187 181 181 159 125 170 170 192 213 204 201 201 121 167 198 190 182 187 189 127 136 137
129 87 368 323 238 234 206 188 193 177 178 175 184 205 203 210 197 198 194 189 181 187 191 181 189 171 179 182 191 176 174 204 213 118 205 205 206 196 196 193 182 182 179 156
339 367 363 227 251 212 155 190 191 175 175 180 125 212 148 138 134 98 98 129 153 182 189 176 179 175 180 178 170 181 186 183 191 193 195 179 196 198 196 195 199 170 185 195
244 346 260 223 238 215 112 190 183 180 164 183 193 211 189 188 191 188 183 180 178 176 178 171 175 184 168 173 175 176 186 176 191 198 165 188 190 194 192 135 174 191 192 194
324 265 224 210 218 210 202 188 163 164 167 170 189 189 195 190 190 188 181 181 178 193 180 171 174 177 172 172 165 179 171 161 179 175 170 186 125 192 193 191 193 193 200 201
298 224 261 236 210 207 138 150 185 164 174 173 187 197 194 185 186 186 182 179 177 135 172 160 116 154 111 169 174 166 160 184 177 148 176 178 175 182 163 184 181 178 181 183
214 226 191 124 86 197 190 173 137 113 168 170 184 195 192 189 187 185 180 180 184 193 168 200 195 152 164 160 167 177 161 191 175 181 170 173 174 196 170 165 172 188 182 185
116 225 232 209 204 195 189 191 190 179 172 174 192 165 186 184 182 180 178 178 176 162 163 176 188 180 94 132 164 180 177 179 171 172 162 172 186 189 179 178 174 187 186 195
213 239 218 112 193 201 186 183 153 188 177 178 190 176 185 183 176 183 172 177 161 172 89 170 190 163 160 185 146 171 201 162 172 178 183 180 172 137 177 181 155 195 193 204
242 168 179 213 200 158 179 187 190 190 178 175 183 175 184 179 182 181 177 170 164 178 174 186 134 174 97 170 178 186 170 181 181 178 174 199 192 180 180 131 180 196 205 212
257 228 204 204 184 192 195 192 175 179 189 183 183 179 98 172 171 177 165 185 167 166 161 166 171 186 190 188 189 182 189 192 194 182 182 180 181 147 186 193 191 206 213 239
246 209 201 192 193 192 193 191 175 177 177 176 175 181 189 187 170 170 177 180 165 175 168 174 172 172 171 173 162 181 181 180 176 178 193 125 183 193 169 203 210 216 241 193
246 210 201 198 199 195 181 182 181 181 182 172 177 167 189 184 179 179 183 189 192 181 176 167 166 164 164 183 182 186 192 195 190 130 151 171 193 193 202 228 190 213 129 123
270 236 204 199 195 192 185 188 185 183 181 179 168 172 176 167 163 181 185 186 188 192 184 164 167 175 176 185 188 192 183 128 137 196 193 195 196 202 199 227 127 126 137 239
265 278 210 207 197 188 195 195 186 186 186 183 181 178 177 179 175 171 170 169 169 170 172 178 183 186 187 188 137 129 135 188 201 200 197 193 230 142 154 137 127 217 246 206
322 332 262 212 201 199 198 190 187 186 191 188 183 185 183 185 183 181 181 181 182 181 183 187 189 192 176 193 192 140 209 200 190 195 203 129 135 230 139 234 134 227 179 211
207 262 301 317 224 207 203 198 192 194 189 189 188 188 188 187 187 188 187 189 191 193 194 197 124 129 198 124 210 205 190 189 197 199 158 231 125 172 206 254 209 170 208 200
293 199 195 215 249 295 225 209 202 196 197 195 194 193 195 196 196 197 139 202 202 156 240 203 206 208 192 211 186 193 193 202 150 138 152 210 251 241 211 216 213 203 131 197
241 242 247 227 204 215 292 282 266 254 151 255 258 254 153 177 249 252 249 247 231 225 152 224 218 212 194 199 194 202 234 190 142 223 240 176 206 229 214 158 200 187 201 207
204 208 227 236 240 241 244 244 245 245 240 192 160 209 233 212 230 234 214 229 148 221 203 184 197 188 195 187 240 237 231 137 245 165 209 223 213 203 199 186 194 206 204 206
186 187 181 188 202 210 216 189 227 151 228 228 227 216 223 165 183 164 173 206 153 199 131 174 199 236 235 233 235 194 132 187 207 226 209 204 208 206 188 205 205 205 210 219
201 199 195 195 198 201 189 187 188 186 193 196 205 175 127 196 192 192 198 198 198 222 235 236 235 233 229 204 139 188 209 220 209 205 202 205 192 196 201 211 212 213 219 247

GFSCGP_2pvu_pres_018.txt.gz
Presure
240 252 261 258 272 283 281 304 236 228 205 190 110 110 190 96 77 88 79 214 213 106 208 92 93 85 91 91 183 101 210 144 170 236 214 146 121 120 200 194 188 187 161 174
265 285 288 298 309 316 292 306 222 247 212 198 190 187 108 111 119 92 86 148 131 109 108 94 176 95 98 85 99 102 102 121 192 189 223 204 197 203 175 179 174 183 112 160
291 248 332 347 356 347 316 315 248 242 221 198 191 189 189 140 176 190 207 128 164 104 94 88 185 207 201 161 170 99 190 184 199 214 195 211 205 206 202 196 161 142 109 176
331 344 340 348 356 362 387 391 300 236 240 204 196 180 193 173 169 127 212 135 103 202 201 202 195 142 147 194 194 186 184 193 189 192 213 216 209 205 209 210 191 122 195 196
338 338 363 415 423 421 460 377 332 231 242 202 195 183 194 177 184 186 207 210 207 202 200 202 162 155 161 189 183 183 185 171 122 188 132 203 211 209 212 136 123 200 207 202
351 382 392 387 387 284 320 286 289 229 246 204 196 183 187 171 185 183 212 209 195 200 197 189 174 192 190 186 184 185 180 185 183 174 187 177 188 183 193 192 188 191 190 191
378 387 357 352 413 381 278 221 236 237 236 193 194 183 196 177 178 184 208 208 205 203 195 196 188 189 179 184 184 180 180 172 177 179 182 188 178 183 176 160 169 186 191 191
345 322 110 367 394 298 274 276 220 240 221 194 189 186 183 172 185 198 208 200 197 198 198 189 185 118 111 180 180 118 174 145 173 168 109 180 160 194 181 183 178 180 171 172
319 344 361 93 315 275 264 232 225 236 203 189 174 191 178 173 181 206 198 204 195 197 188 189 182 180 183 182 99 176 172 176 168 172 175 168 181 166 186 170 177 166 170 165
336 366 336 270 267 259 260 168 219 100 198 184 186 180 176 168 195 200 204 201 136 189 128 185 181 183 179 90 170 180 169 179 162 178 177 169 180 185 172 173 163 181 178 184
309 275 288 269 260 251 225 181 225 206 194 185 193 184 90 177 199 206 203 195 190 188 190 182 183 174 168 157 120 179 183 187 166 170 174 174 172 169 184 183 177 183 184 196
281 269 282 268 241 231 218 117 232 210 185 186 142 163 163 183 201 181 189 191 189 185 188 186 178 176 168 181 182 188 180 191 163 90 180 172 186 176 182 197 167 182 177 191
251 268 259 254 211 227 180 235 213 177 180 180 187 172 102 192 192 191 196 187 188 188 184 170 181 174 168 99 113 170 174 193 174 182 185 182 169 169 191 190 199 199 200 205
257 253 257 241 171 212 212 216 207 102 186 184 165 167 164 166 195 179 186 189 181 178 181 176 181 183 133 165 171 162 166 166 173 183 166 171 176 176 180 171 191 202 190 150
208 209 204 231 201 241 228 208 141 196 195 187 182 175 175 179 187 173 183 185 171 173 179 173 167 186 171 170 172 160 160 183 162 167 170 172 175 185 189 197 191 147 165 212
197 201 189 220 262 233 214 198 195 167 103 186 188 181 192 172 182 177 175 176 186 179 186 179 181 177 179 180 173 173 170 170 170 170 172 172 182 195 193 135 136 210 196 203
237 203 194 255 228 214 203 203 187 187 188 184 176 177 179 179 177 179 177 180 182 177 173 176 178 181 186 191 194 193 195 192 182 170 180 192 194 171 153 207 232 196 209 209
223 219 277 278 221 211 203 195 194 172 175 173 185 175 172 178 183 185 179 181 180 181 180 179 182 187 183 181 180 178 175 172 179 190 193 162 132 226 220 223 210 206 234 131
248 266 270 225 203 194 199 187 190 189 186 186 188 176 159 177 179 180 175 174 177 175 175 174 175 176 176 179 179 183 187 190 193 201 234 224 229 234 208 210 205 135 139 242
242 253 247 226 194 193 202 192 189 185 185 185 188 186 184 184 178 180 179 180 179 176 177 177 181 181 183 186 186 190 194 156 196 128 238 201 221 203 203 222 135 149 238 217
253 257 248 233 207 194 200 194 185 190 188 187 186 186 187 188 186 187 186 186 188 188 185 183 186 190 191 175 161 200 223 245 242 235 223 219 202 220 136 142 240 227 216 215
223 289 259 272 231 203 197 194 190 187 186 183 183 182 180 182 185 187 187 184 189 186 183 189 195 197 201 205 233 246 237 234 224 222 204 203 181 139 135 234 214 209 209 212
202 204 282 304 315 328 205 200 196 190 189 186 187 188 186 190 191 187 190 156 193 196 198 203 202 196 242 241 235 148 145 217 202 199 240 238 137 134 211 217 208 211 213 207
255 212 198 200 259 282 272 282 226 206 202 201 199 198 157 196 196 196 197 184 202 198 202 137 163 189 219 222 143 217 202 209 240 223 150 247 205 200 209 209 211 198 208 204
231 239 241 241 227 207 224 278 269 267 264 264 234 231 229 228 227 169 252 246 238 180 232 195 172 207 219 209 202 219 239 147 178 200 238 202 208 201 200 202 125 209 206 217
192 199 217 229 232 238 239 240 233 243 243 242 241 241 241 236 235 232 139 224 221 220 222 214 208 202 202 244 241 175 170 274 242 204 171 206 206 200 200 208 206 207 216 209

GFSCGP_2pvu_pres_021.txt.gz
Presure
244 233 232 236 238 241 248 253 257 262 266 222 253 181 95 175 126 95 170 91 170 108 109 126 119 193 207 200 85 100 94 139 125 105 194 169 186 198 215 218 112 206 204 202
239 233 237 241 245 249 206 250 255 261 267 213 234 77 78 191 191 176 193 78 177 184 188 91 116 181 88 119 178 212 145 104 163 202 156 198 183 223 221 208 201 205 208 206
237 239 240 241 246 247 245 251 250 261 277 287 152 253 128 135 159 179 189 183 187 189 213 107 194 214 208 177 96 100 104 203 199 195 195 192 200 192 195 215 219 199 205 204
232 240 244 249 259 260 272 283 286 286 289 260 163 245 214 192 186 124 110 143 143 109 109 114 145 201 203 157 99 183 201 196 157 194 192 189 182 198 178 155 199 210 211 204
251 260 283 314 311 306 310 304 305 297 290 296 312 238 222 197 196 179 184 114 109 108 110 108 207 109 108 108 186 197 178 175 143 193 183 184 172 181 186 185 187 177 184 184
297 324 315 308 307 313 317 325 334 358 337 302 284 127 82 199 133 176 186 178 165 176 180 208 205 197 174 206 198 194 180 151 184 191 183 183 181 179 184 175 177 170 179 176
325 323 325 326 329 335 348 367 374 366 198 335 284 210 236 154 181 188 190 180 174 179 185 210 204 202 206 200 196 188 143 184 184 183 182 181 179 181 172 179 172 170 175 177
377 379 365 357 373 384 399 413 404 372 418 297 290 203 239 114 175 189 189 178 178 178 205 209 202 203 203 199 192 192 187 181 184 114 180 137 180 169 166 181 181 168 180 182
373 381 389 367 370 387 387 431 449 413 288 285 262 166 235 215 187 182 189 176 171 180 207 205 201 207 198 198 192 189 181 183 107 181 181 170 188 181 171 182 177 172 186 168
331 347 356 309 308 364 335 367 347 274 265 208 219 230 232 210 183 180 188 174 174 183 207 206 204 201 155 169 189 148 187 184 183 177 179 182 187 182 163 144 193 177 169 184
343 336 291 157 88 284 298 309 266 259 261 224 168 237 230 199 179 186 180 178 180 197 207 202 199 200 197 191 189 183 179 119 183 94 177 171 195 184 179 163 183 179 181 182
330 270 267 266 263 261 99 251 239 172 252 234 195 195 78 111 177 182 180 177 188 209 200 209 197 196 190 189 184 182 179 172 183 176 196 176 173 169 164 185 170 173 180 185
269 261 257 261 256 261 244 247 257 255 252 216 224 225 196 187 179 173 174 171 196 205 202 205 197 192 189 188 184 182 181 175 161 167 103 177 186 172 170 166 181 173 169 175
239 216 254 240 241 256 255 242 243 233 217 217 195 211 193 179 180 178 172 174 203 193 189 186 192 190 177 177 179 180 181 182 182 179 175 171 170 173 174 175 179 183 189 185
171 248 124 247 245 238 249 206 230 222 216 234 187 192 187 186 176 169 181 182 205 185 189 195 189 183 180 183 182 177 177 179 176 172 176 177 190 194 195 195 192 184 197 205
243 243 238 232 250 242 253 239 185 239 229 232 204 194 187 179 171 170 165 173 192 171 187 189 188 183 177 173 173 185 179 182 179 181 188 192 188 180 174 189 194 199 212 138
222 193 261 225 202 247 236 264 216 259 143 217 192 186 180 171 163 162 180 179 179 180 175 178 179 178 178 179 178 179 177 176 177 181 172 173 185 192 192 198 203 240 204 232
192 190 250 149 238 242 212 225 253 251 228 205 193 182 170 172 170 168 185 180 176 182 182 178 175 178 183 180 170 169 171 172 175 180 185 190 192 194 200 211 192 142 227 213
182 219 251 199 259 216 211 235 286 234 206 178 179 180 177 180 184 181 181 180 180 183 184 158 177 170 175 177 173 174 178 183 185 187 191 194 201 207 252 239 234 223 208 240
213 210 206 258 199 224 233 267 230 192 189 178 172 178 181 179 177 177 175 174 172 171 175 175 177 178 178 178 183 184 184 164 188 193 138 203 207 246 233 226 211 223 205 167
225 256 220 221 242 221 284 228 201 195 184 188 173 177 184 179 180 180 181 181 180 180 180 180 181 182 187 183 185 187 190 191 188 202 200 249 202 140 218 224 241 148 205 217
228 239 246 253 249 269 244 199 200 194 187 186 186 187 185 181 182 181 181 180 182 185 187 185 182 181 186 189 192 191 184 190 197 226 203 134 219 206 189 187 224 265 213 213
222 247 245 252 250 262 237 199 195 196 196 187 187 183 184 186 185 186 184 134 182 181 187 189 190 192 191 158 128 201 133 238 254 237 225 205 235 154 224 266 229 216 210 193
202 217 257 313 261 247 237 198 209 186 190 191 192 191 188 141 188 188 188 188 188 189 180 192 158 147 193 205 249 191 235 239 226 205 203 247 237 252 265 216 206 205 190 189
234 202 201 203 271 273 278 280 233 207 205 198 191 191 190 190 190 160 160 189 136 157 126 171 202 242 220 236 232 245 220 190 177 243 240 242 267 222 207 209 194 187 186 200
239 200 249 234 199 197 240 277 275 276 269 268 226 201 201 201 201 201 201 201 202 227 246 241 236 234 231 226 203 203 142 228 185 223 258 224 205 205 182 192 181 200 207 218

GFSCGP_2pvu_pres_024.txt.gz
Presure
233 206 200 212 217 228 260 252 246 239 239 250 255 264 230 76 252 240 80 119 201 120 107 125 113 201 109 100 101 114 94 140 188 83 96 77 113 170 137 177 214 197 206 215
225 210 207 211 220 227 255 248 239 237 239 242 248 155 269 219 172 105 201 185 154 118 193 136 117 109 111 200 108 119 96 99 193 122 93 212 186 203 156 193 201 203 194 197
224 215 209 215 226 240 248 241 237 238 242 248 250 258 272 83 219 254 103 79 114 116 139 181 138 147 151 98 77 175 124 216 198 139 129 140 202 206 203 200 199 193 196 185
218 208 216 226 240 254 248 237 238 243 245 250 260 256 271 263 70 248 236 163 79 85 179 189 109 106 102 196 208 142 130 214 125 204 178 173 201 192 184 198 192 187 178 182
213 222 194 242 248 239 234 239 240 243 247 249 261 269 82 124 238 232 236 205 181 194 185 184 173 198 177 214 206 204 118 123 128 109 137 200 198 186 153 189 192 183 169 186
232 239 240 239 227 221 232 231 245 253 258 274 259 271 278 267 253 169 241 207 189 193 187 187 181 190 182 194 124 103 105 204 207 118 159 158 179 190 192 192 185 156 186 179
226 232 229 233 236 244 247 246 260 281 285 197 292 135 166 284 308 215 247 208 188 189 184 185 153 141 174 111 115 115 179 201 205 160 198 197 166 144 165 189 185 182 181 185
240 250 337 341 340 330 327 330 337 261 289 337 313 316 348 278 318 211 247 212 137 184 187 181 183 173 169 169 207 203 201 204 202 197 198 193 173 189 191 184 183 173 181 182
401 387 366 364 331 335 332 332 311 317 322 318 307 338 270 273 305 83 92 210 136 176 190 174 182 178 171 183 210 206 202 203 201 192 196 191 188 187 183 185 186 186 93 188
374 376 372 372 373 364 373 379 351 348 337 354 370 388 323 166 270 209 239 143 187 184 183 180 186 177 176 209 209 204 208 199 153 194 195 184 189 186 190 177 174 85 169 150
346 347 343 347 347 349 364 391 411 416 429 447 448 397 76 274 234 206 230 208 183 180 187 186 181 178 186 206 206 204 207 201 201 190 190 185 182 154 181 177 138 182 181 171
296 308 308 290 294 294 306 292 283 297 301 288 280 295 265 206 224 231 227 208 181 181 194 190 176 179 186 207 205 207 199 201 194 190 192 149 180 181 138 168 170 181 178 183
271 273 273 263 263 262 265 260 270 265 231 271 267 279 257 238 212 228 227 213 184 184 188 173 179 181 198 207 197 194 194 191 193 194 188 184 183 184 182 182 184 182 184 192
260 168 195 250 249 240 258 245 247 197 168 255 269 226 254 193 209 232 223 189 184 181 182 180 181 192 206 202 209 199 193 190 191 186 185 182 180 179 182 181 182 186 174 175
258 247 247 248 164 240 233 256 243 254 267 250 266 164 195 122 231 228 218 194 189 181 173 179 189 197 202 203 192 193 193 186 186 185 175 178 185 176 175 188 175 176 185 192
242 237 232 240 236 231 233 245 255 242 267 284 206 230 180 231 222 223 191 186 181 170 176 181 195 196 190 188 196 192 187 188 187 186 182 186 186 188 174 176 183 190 187 192
232 232 233 233 225 235 232 232 231 255 237 189 232 218 193 226 227 196 187 181 175 176 172 183 189 198 186 175 185 176 181 180 182 185 167 171 174 177 183 188 187 191 194 202
241 252 203 235 234 227 236 201 248 206 237 259 217 200 237 229 215 185 178 174 175 181 165 169 184 185 181 180 182 181 179 180 162 173 180 179 182 185 184 175 191 179 195 246
153 198 252 161 249 209 234 229 185 241 257 234 219 242 227 188 181 179 175 171 170 168 171 182 183 180 184 182 183 185 179 173 178 177 183 184 182 189 191 148 127 202 243 133
248 256 238 181 219 213 253 247 232 265 250 215 236 233 185 178 177 174 170 169 171 172 177 175 183 183 181 180 176 178 181 180 183 180 182 184 191 193 197 179 246 229 229 218
248 260 233 228 258 224 207 218 241 208 240 238 233 205 176 174 170 169 173 176 178 186 181 176 176 175 180 184 182 181 185 177 183 186 192 193 176 195 212 237 241 214 252 140
244 240 264 225 223 241 251 247 208 243 261 249 218 182 179 178 178 181 180 178 179 180 175 179 182 182 181 183 182 173 189 169 187 193 194 188 205 244 225 217 253 246 243 246
212 227 247 255 252 223 233 208 210 249 242 182 182 178 183 183 180 178 181 185 182 182 181 181 184 185 182 182 173 188 193 193 196 191 197 247 226 226 216 139 259 251 200 215
234 240 244 240 241 242 255 255 267 227 201 192 189 186 187 185 183 184 185 185 177 185 183 180 139 133 138 187 192 190 201 195 213 247 235 225 205 229 253 255 211 212 190 196
210 221 256 239 271 259 247 248 246 258 201 196 191 187 183 182 181 181 180 180 181 148 190 191 191 191 189 198 202 199 231 249 231 221 179 194 243 257 224 214 200 189 201 194
249 199 198 208 267 267 276 281 289 274 221 194 190 190 191 191 191 191 191 189 186 189 191 197 202 204 198 247 249 241 228 212 161 134 133 252 236 210 197 190 193 198 200 213

GFSCGP_2pvu_pres_027.txt.gz
Presure
226 241 224 220 236 218 236 229 232 213 212 205 152 279 270 265 286 130 276 236 239 253 180 185 186 110 103 116 111 109 111 77 109 107 107 105 173 83 180 149 96 197 222 183
232 236 221 212 221 214 234 230 228 213 201 228 225 266 189 262 262 274 268 241 228 246 204 102 171 161 133 205 123 118 111 115 120 87 79 96 100 124 186 188 171 107 187 195
239 227 235 230 225 236 230 237 228 216 215 220 227 272 260 253 252 256 264 259 228 235 80 107 190 110 191 173 168 123 120 88 76 102 200 118 127 121 150 195 103 113 206 211
243 232 230 236 235 227 230 223 232 223 220 223 249 278 257 159 174 80 113 262 230 222 143 201 193 174 103 136 175 119 76 105 76 117 117 153 126 118 213 111 110 145 205 195
245 234 241 239 239 242 231 221 219 219 227 243 248 277 92 254 249 231 66 254 239 216 247 81 85 186 184 194 178 189 192 84 218 216 221 212 209 209 117 101 111 128 198 196
263 262 253 247 250 235 219 217 222 229 238 250 190 264 247 239 243 242 249 114 265 217 126 130 82 112 177 202 180 190 183 177 155 217 209 188 136 110 107 183 199 194 194 183
261 258 256 260 243 225 227 231 239 244 250 96 242 250 253 230 237 181 249 256 268 220 228 231 213 188 178 198 176 188 180 189 211 208 205 201 203 117 157 201 197 194 196 165
258 250 241 231 236 238 245 238 245 242 246 259 88 96 262 224 235 234 75 134 199 223 95 219 211 192 182 191 179 188 196 187 182 209 204 206 202 204 201 197 193 193 190 183
227 233 239 246 255 275 286 280 280 122 275 270 173 95 267 223 248 242 252 259 268 230 211 232 213 192 85 191 184 188 187 183 176 187 208 203 202 203 199 194 196 190 192 188
243 284 427 422 408 402 383 365 350 346 344 346 358 311 106 268 182 267 246 183 243 230 211 232 220 189 183 187 186 182 185 177 172 166 208 205 205 201 200 192 189 191 183 188
373 348 329 327 354 349 340 350 371 361 352 340 341 365 70 318 242 302 283 267 278 183 214 228 214 189 187 186 176 175 180 177 171 212 210 203 204 201 199 197 187 187 185 189
297 293 285 280 283 302 358 351 365 362 361 394 376 357 92 126 273 289 296 291 283 225 215 228 209 189 187 183 188 175 181 180 175 208 207 205 203 199 202 193 188 191 192 191
273 269 269 258 263 251 273 283 295 386 395 433 435 490 328 298 286 297 280 285 269 221 233 224 201 189 179 180 182 184 182 172 199 206 202 205 199 203 191 195 194 191 188 180
256 249 250 255 264 240 258 263 264 284 289 304 389 437 414 320 274 285 291 253 234 207 232 220 200 188 182 181 189 183 172 180 204 202 206 201 197 191 192 194 189 174 187 181
244 255 238 238 224 202 255 262 253 262 262 269 257 136 279 270 282 278 268 245 220 234 225 212 193 188 183 193 184 175 178 192 206 204 206 207 192 190 189 185 184 180 168 180
229 236 247 232 242 145 226 253 267 247 249 269 258 266 261 259 254 267 261 225 209 227 222 207 189 183 190 181 174 180 189 204 202 193 194 192 186 196 182 181 162 178 184 185
224 155 228 223 236 232 234 240 240 258 247 262 263 261 260 254 272 239 229 217 218 224 220 198 184 182 179 171 178 180 203 197 190 191 189 178 183 182 179 177 182 184 164 177
226 237 228 219 224 232 241 252 245 256 252 231 253 270 250 193 191 230 219 216 228 223 216 185 187 174 173 173 176 188 198 195 177 183 187 184 179 178 177 185 182 190 164 186
231 221 216 227 197 231 233 234 226 235 232 239 223 255 296 237 222 218 201 226 225 214 187 184 177 173 170 175 185 172 182 183 188 185 183 179 182 183 182 187 190 186 193 200
227 157 169 234 240 231 233 229 224 188 233 248 240 249 237 221 216 213 229 222 192 187 182 180 175 171 179 176 181 185 179 184 182 178 183 182 183 182 156 146 190 195 188 217
234 199 234 176 233 226 135 238 246 238 235 246 241 233 208 195 223 223 219 191 188 179 176 171 168 172 171 173 183 184 180 181 183 183 187 160 187 191 183 198 194 201 249 233
228 181 220 247 237 214 243 157 236 237 255 250 244 213 207 209 231 229 189 181 177 177 174 173 172 172 183 183 182 183 185 185 185 174 190 190 183 196 197 199 234 172 143 198
237 178 249 226 185 222 256 252 257 243 245 244 220 211 211 246 189 185 180 179 176 178 172 179 181 181 181 183 184 184 172 128 191 189 180 196 197 186 247 241 132 163 151 266
208 251 263 227 199 204 186 233 211 250 237 210 210 243 220 230 170 169 176 177 177 180 182 181 182 182 184 185 170 136 190 186 189 198 199 186 245 240 178 136 141 178 220 194
233 229 222 229 228 232 238 226 213 220 216 221 239 233 265 206 182 182 181 181 180 180 180 182 157 141 188 191 186 186 191 201 196 186 248 237 219 135 137 188 223 194 204 194
247 275 270 274 249 252 250 246 243 250 240 262 255 223 210 184 182 184 186 186 183 174 183 190 190 183 186 191 197 199 191 232 242 232 219 254 133 139 142 199 200 200 186 204

GFSCGP_2pvu_pres_030.txt.gz
Presure
208 205 204 210 216 215 226 232 231 219 236 236 236 242 227 227 222 215 199 234 290 290 295 245 240 244 206 93 78 78 87 90 94 202 90 101 120 109 103 92 114 90 121 121
212 204 208 210 217 220 226 229 231 247 238 249 220 239 238 230 222 214 201 232 248 276 284 283 237 242 236 199 145 176 129 131 106 115 129 165 114 102 87 113 82 111 167 134
210 210 213 215 218 221 233 234 235 240 240 234 232 244 243 233 224 214 189 184 269 92 282 283 236 235 239 146 166 106 183 168 183 155 111 115 77 113 112 142 137 98 165 173
227 227 230 229 231 226 228 238 239 243 242 248 241 249 240 233 225 200 212 231 257 258 218 275 250 228 235 218 96 87 91 186 183 119 200 82 114 82 94 110 113 182 189 183
232 233 237 250 245 250 264 254 240 243 258 249 254 122 229 231 215 208 209 249 251 225 254 270 267 218 114 232 209 201 184 183 109 190 182 121 84 89 197 167 191 192 193 215
221 230 231 229 232 248 278 266 269 263 259 263 253 253 248 204 208 204 245 246 243 150 247 216 263 78 156 185 74 120 197 194 175 198 119 190 198 184 201 204 221 213 210 202
217 210 230 245 300 290 286 284 277 276 274 84 282 114 181 169 212 234 235 239 161 216 245 248 260 252 223 233 173 90 90 194 173 199 180 189 187 181 172 214 212 205 200 202
211 248 284 279 274 275 272 267 267 271 274 248 258 71 97 206 210 223 240 235 239 235 236 240 258 251 198 100 234 203 200 192 185 203 183 176 185 182 187 198 201 204 203 202
275 283 263 247 241 245 247 247 244 243 252 251 258 73 213 207 155 216 222 228 227 235 222 243 249 261 225 220 236 216 201 191 187 198 186 175 188 188 182 178 170 205 197 201
269 233 234 243 254 358 357 374 406 426 339 333 209 288 158 94 173 191 210 223 225 236 241 224 84 86 226 219 237 222 201 192 189 189 182 187 184 185 177 171 172 205 203 203
228 237 283 263 297 320 348 359 365 360 356 377 385 388 393 202 216 189 157 129 224 231 239 249 250 199 226 220 221 220 202 194 187 188 162 186 182 182 174 172 202 209 205 206
285 261 258 248 294 276 288 295 306 377 356 353 357 397 374 356 338 131 204 211 96 227 243 246 249 258 232 219 231 221 204 193 188 190 186 181 178 177 176 172 207 208 210 207
264 259 279 265 269 264 278 280 288 295 374 381 368 374 399 337 330 260 260 218 235 235 243 252 254 263 230 216 230 217 200 193 194 190 182 171 174 181 173 195 206 204 208 202
257 251 247 258 251 249 265 269 279 285 326 389 392 373 358 322 322 312 284 272 268 252 256 260 259 271 226 214 230 212 200 191 184 182 181 174 182 174 175 207 208 209 206 193
244 237 249 245 251 249 241 252 264 272 311 418 435 378 332 321 312 313 313 294 280 299 265 263 264 276 224 228 224 206 196 185 174 175 185 180 178 176 197 209 204 198 191 183
234 238 239 232 145 252 253 259 251 271 281 285 355 336 330 321 312 308 314 316 275 255 260 267 279 235 213 234 211 199 186 183 181 188 183 179 177 191 205 191 193 189 185 186
243 231 225 240 220 233 229 247 239 261 269 269 275 285 276 271 275 273 261 262 261 256 278 292 250 222 232 226 202 190 182 182 187 180 177 176 186 203 195 185 184 189 184 182
236 218 225 224 242 232 234 241 231 241 244 257 258 249 258 253 262 269 271 260 261 265 281 243 222 224 227 208 196 187 181 183 183 176 174 179 187 189 184 188 183 182 186 186
230 178 231 247 220 230 184 229 233 235 253 237 252 252 241 242 210 240 255 260 266 255 227 218 227 226 212 200 188 181 182 181 174 172 176 180 173 176 183 182 185 183 174 192
207 226 225 223 223 225 232 232 229 238 240 243 230 245 239 223 245 256 258 262 251 218 206 232 225 216 202 185 182 178 173 171 171 177 176 170 176 183 177 184 188 190 189 193
231 197 215 247 236 233 211 181 231 228 242 234 239 229 250 236 257 245 249 219 212 196 230 224 219 208 187 185 180 176 173 172 178 172 175 181 176 184 187 182 193 192 200 201
215 233 212 232 183 217 234 214 236 238 239 237 212 236 237 241 241 236 205 192 209 223 224 219 201 189 185 179 178 172 168 172 170 180 180 183 186 185 193 190 197 202 199 198
219 211 226 219 222 213 219 232 247 235 222 231 198 232 227 249 198 205 208 225 222 223 215 191 188 179 174 171 165 171 175 179 180 183 132 187 192 190 189 203 196 223 241 163
223 220 184 214 205 238 197 193 243 233 251 234 226 241 249 187 193 210 219 228 225 188 188 180 176 176 176 179 181 178 121 182 185 188 192 187 189 201 199 217 229 212 139 145
232 177 242 268 219 204 238 222 222 222 184 226 234 222 231 205 211 234 227 221 179 175 178 179 176 178 180 181 151 182 186 187 193 184 192 201 200 210 242 134 139 145 157 216
227 230 226 244 224 231 231 225 226 221 224 215 213 214 225 215 244 221 178 181 182 181 181 183 183 182 182 185 183 191 192 188 192 201 200 206 241 208 135 140 145 201 197 194

GFSCGP_2pvu_pres_033.txt.gz
Presure
238 230 219 216 209 205 205 205 207 202 208 220 224 222 230 228 247 235 232 233 103 211 207 206 226 210 242 247 95 241 90 208 90 99 94 97 96 93 88 97 98 102 113 103
230 219 212 216 209 199 205 208 203 209 209 219 219 226 227 223 236 232 235 238 232 226 104 154 216 216 218 213 243 132 111 117 92 93 93 97 101 104 108 115 117 117 104 101
220 217 220 218 219 213 208 213 213 217 213 216 218 222 225 223 235 236 226 227 233 158 225 216 187 204 123 248 187 189 243 246 239 208 194 194 181 143 105 111 116 93 118 117
219 214 215 217 218 221 214 226 228 220 224 226 231 246 223 234 223 231 231 209 223 230 234 234 110 212 203 276 293 239 236 237 245 235 209 194 136 174 167 191 208 108 195 85
216 222 225 222 220 228 233 231 230 236 237 246 248 250 252 239 235 225 219 221 231 232 93 229 228 212 231 279 281 279 234 229 239 242 229 84 106 186 103 185 206 198 186 209
228 226 226 231 236 240 245 248 254 257 259 271 257 254 253 250 237 232 246 216 223 229 230 228 228 140 265 89 127 282 235 231 235 238 76 117 190 154 152 179 192 189 198 201
235 231 232 239 245 232 214 220 219 231 246 265 263 272 267 253 248 168 247 234 228 233 234 231 217 235 262 233 264 271 87 84 82 238 221 201 142 195 185 171 187 188 187 183
260 224 221 218 177 212 228 231 238 289 321 323 297 243 75 275 257 241 237 231 240 229 226 219 220 253 256 257 261 119 125 102 225 114 189 153 185 121 188 170 188 181 186 182
214 216 196 216 220 222 238 282 276 269 281 282 290 272 290 276 123 127 243 234 233 242 220 216 246 250 256 249 258 260 252 224 222 232 231 214 196 190 189 177 190 181 182 187
209 209 223 221 242 264 251 279 302 323 314 347 313 393 223 88 230 256 272 245 248 225 220 218 237 247 247 243 249 260 251 226 220 230 229 213 192 198 189 188 186 177 188 184
208 219 259 264 239 277 274 264 310 276 309 331 355 402 383 93 262 262 263 223 240 214 212 216 228 237 241 243 243 136 251 229 219 225 232 212 192 197 189 181 188 180 187 180
219 264 240 285 272 259 290 294 290 293 316 338 359 409 352 378 232 124 258 266 236 223 230 216 223 233 235 238 245 250 260 229 220 222 232 210 196 193 185 183 189 180 185 180
258 235 273 258 261 243 276 252 258 283 308 307 348 351 351 364 386 406 209 216 240 229 230 217 226 226 236 238 244 247 259 226 219 225 230 210 199 196 184 182 188 183 176 172
218 267 268 259 251 254 252 254 260 313 314 313 383 373 419 345 395 392 364 251 243 234 234 230 207 223 227 238 244 248 261 226 218 226 226 210 196 190 185 187 188 184 174 182
266 267 245 258 241 247 250 248 249 258 305 319 399 429 403 400 348 348 360 358 251 233 236 213 215 206 230 240 242 252 267 225 215 227 223 213 196 187 185 187 177 181 179 178
250 252 231 236 91 91 246 244 237 259 273 301 329 344 335 327 329 330 336 334 180 251 231 222 211 227 212 244 248 260 273 222 215 227 215 198 190 188 181 172 183 184 174 182
181 226 262 235 221 234 229 234 257 256 259 268 282 289 297 310 315 310 305 259 320 284 245 247 233 245 248 252 256 268 251 212 221 221 210 195 187 184 180 180 183 174 178 188
235 210 231 231 225 238 175 246 237 238 249 244 258 271 259 278 291 293 300 293 281 262 259 257 260 268 276 258 205 269 214 210 225 215 200 189 183 182 181 177 175 175 181 173
234 232 223 222 226 233 250 243 229 234 235 230 238 244 252 262 265 257 255 255 256 254 256 268 262 259 286 258 264 219 209 228 215 202 192 182 176 185 185 175 174 183 180 184
241 205 221 209 221 218 216 228 226 230 221 228 236 242 229 232 241 262 258 252 249 242 256 266 280 272 269 272 216 207 230 212 202 196 185 181 185 175 172 174 184 180 185 180
245 211 228 232 227 224 200 224 230 223 223 222 224 229 235 209 249 160 248 248 256 264 250 255 261 252 237 212 222 227 213 201 191 181 176 175 176 173 180 175 129 183 185 189
240 198 234 218 225 222 230 238 235 206 226 222 219 225 222 238 205 245 246 238 248 254 246 238 216 207 223 225 219 210 200 183 180 183 178 179 173 175 151 183 184 189 190 191
228 221 236 195 218 233 241 232 240 231 239 227 211 219 236 234 225 235 234 246 218 205 200 193 220 227 222 214 208 205 183 186 183 180 174 174 181 182 186 187 188 192 190 207
214 176 207 235 222 218 170 216 250 237 232 229 226 233 222 220 237 221 195 193 194 209 215 220 223 219 214 206 190 191 182 177 179 139 181 185 188 184 188 192 184 204 209 232
205 208 198 248 207 195 199 239 232 208 244 242 231 227 227 206 194 203 211 212 208 214 219 218 217 201 190 185 185 182 178 176 180 189 187 187 190 192 188 200 210 217 216 211
243 249 241 246 243 224 215 219 232 234 223 219 210 213 238 219 194 197 208 223 236 220 224 214 185 184 184 183 184 182 185 188 188 192 192 189 193 205 209 204 247 245 165 248

GFSCGP_2pvu_pres_036.txt.gz
Presure
209 209 203 208 204 208 214 222 229 238 210 208 208 208 208 205 144 200 210 228 208 201 220 234 225 217 219 214 215 86 121 237 255 81 200 220 73 201 197 110 191 118 101 89
223 214 214 210 207 217 222 227 237 241 233 213 209 209 208 208 213 218 217 194 192 227 204 236 232 229 225 221 210 213 223 175 237 89 144 170 83 119 200 95 91 97 101 184
216 216 212 217 220 224 230 240 239 234 232 211 209 211 209 209 205 209 211 217 213 217 236 235 214 234 227 228 216 208 207 232 230 213 260 93 163 241 151 169 101 110 99 133
227 227 228 257 241 244 242 239 236 228 227 223 93 182 202 207 209 204 202 211 212 220 228 225 245 235 235 244 156 219 211 206 227 232 245 227 221 223 217 152 200 194 185 178
260 257 253 249 248 245 237 235 228 228 229 229 228 235 189 201 208 207 215 223 221 221 230 236 246 243 234 237 240 235 228 199 129 216 297 243 230 243 240 237 79 197 187 189
250 247 244 240 238 238 235 224 225 225 230 240 235 241 85 226 223 215 218 224 231 231 232 234 242 235 233 184 124 233 239 219 223 211 257 283 238 237 247 202 187 220 204 186
247 240 235 229 229 230 228 226 229 234 237 245 249 261 258 229 233 247 257 201 259 258 241 237 234 177 233 222 170 238 242 235 222 81 284 277 240 233 238 208 231 224 201 191
233 240 239 241 239 241 238 239 239 166 172 245 220 230 92 130 91 110 158 237 175 239 256 257 255 244 233 168 232 211 234 231 271 215 278 270 130 199 94 232 223 218 195 195
240 240 243 245 244 245 225 218 220 225 233 238 245 262 107 88 109 116 104 131 156 79 231 162 252 244 242 219 227 235 237 228 263 267 230 212 244 226 222 234 97 195 204 186
218 209 206 222 220 221 206 220 226 234 321 318 311 321 308 167 93 128 108 296 306 310 286 246 255 254 242 232 231 231 228 238 259 261 264 253 241 223 221 228 227 212 203 199
207 209 223 202 210 220 221 238 293 264 267 260 320 298 289 312 158 377 432 212 284 309 295 275 257 250 215 132 228 224 245 220 251 251 219 252 239 222 216 228 230 214 209 192
217 216 208 206 218 228 283 267 254 244 288 299 308 299 288 308 200 79 84 306 273 305 272 202 256 243 236 239 224 216 247 245 234 241 256 250 236 223 216 221 229 217 207 194
209 209 211 215 290 256 259 269 260 260 259 293 321 334 306 310 318 351 361 84 287 297 244 266 241 245 234 234 195 198 245 116 234 237 121 253 235 221 212 215 227 218 207 194
220 207 216 280 261 249 256 245 249 242 260 290 193 330 354 377 357 353 340 338 342 291 282 274 207 192 235 229 221 214 231 233 234 241 242 256 234 219 212 215 224 217 204 196
222 243 270 245 228 252 235 254 239 249 258 283 305 317 396 398 374 371 363 360 412 233 277 272 267 257 245 222 224 215 225 232 230 239 241 256 236 219 216 218 224 218 206 197
238 197 238 248 239 225 243 228 236 243 250 266 283 300 310 342 353 359 382 388 396 251 268 261 261 247 235 212 224 220 215 211 233 235 242 258 238 221 214 222 225 217 204 198
181 198 153 240 246 241 230 230 222 235 238 256 256 280 295 298 309 325 338 157 376 248 236 205 250 233 228 223 226 201 214 223 234 237 241 255 237 218 213 225 222 214 201 188
201 241 219 240 217 236 224 224 227 230 239 243 250 252 275 286 280 290 300 310 329 262 236 231 226 213 207 221 205 226 211 224 234 245 248 259 231 214 218 223 214 203 189 183
242 235 242 239 227 216 225 217 218 222 235 239 237 248 253 264 275 272 271 272 285 308 170 230 224 225 217 232 218 222 220 239 244 251 254 260 215 207 225 215 206 191 183 181
239 218 210 220 213 215 224 211 220 235 224 231 221 248 238 245 254 254 242 236 254 267 249 242 232 234 228 226 228 239 253 249 252 256 260 213 202 224 217 207 193 182 182 165
233 232 244 236 228 223 219 217 224 215 226 168 226 219 247 237 241 253 242 228 243 251 244 256 255 248 239 197 284 282 250 252 261 257 206 210 224 214 205 192 180 175 181 178
184 165 250 221 219 216 219 209 217 172 217 174 224 219 229 234 237 236 244 248 254 249 253 255 272 271 264 261 257 257 254 249 209 208 225 216 209 201 183 182 185 183 178 182
214 237 211 215 224 220 229 222 231 219 217 217 220 221 229 229 228 232 238 234 236 239 237 237 239 239 239 237 234 213 206 219 225 219 211 206 186 183 187 182 178 183 187 180
211 251 230 232 208 200 232 225 234 201 227 229 224 224 221 224 228 233 223 221 220 214 210 204 202 197 194 216 223 223 219 215 211 210 204 191 185 179 180 184 184 180 191 190
226 228 197 239 255 215 235 197 217 172 223 225 227 238 223 219 229 222 215 209 203 200 210 212 216 223 219 219 217 216 213 212 211 195 182 181 176 183 181 189 189 190 194 167
237 229 230 224 233 237 229 249 255 252 289 244 241 234 228 220 205 206 208 212 208 208 213 222 220 216 216 219 216 212 205 190 191 189 184 183 184 192 188 193 197 204 205 220

GFSCGP_2pvu_pres_039.txt.gz
Presure
219 218 209 214 216 208 203 204 211 205 212 207 199 207 184 185 199 206 206 211 211 152 216 201 215 233 220 224 114 189 193 159 87 221 97 96 240 111 85 84 188 94 110 198
212 206 214 210 214 215 207 204 211 211 200 214 210 209 205 188 191 214 201 209 211 212 215 217 215 203 212 212 220 240 246 201 211 232 223 185 219 229 221 125 96 249 193 91
220 218 221 219 216 217 215 208 202 210 209 212 212 210 219 223 225 241 226 208 208 210 212 218 224 213 204 219 223 220 210 244 171 229 96 158 89 157 213 89 170 214 89 199
222 224 224 224 225 224 218 217 213 211 206 212 214 219 222 220 229 239 226 211 211 215 215 212 181 175 221 212 207 213 233 236 240 241 232 227 217 209 224 93 161 205 91 225
233 237 238 242 237 231 231 227 216 214 214 220 220 229 230 224 233 229 228 210 218 221 218 219 220 211 212 221 222 230 226 234 244 236 248 237 228 209 197 220 225 238 134 132
241 239 235 236 236 233 228 222 218 220 225 229 226 242 246 63 127 232 217 219 221 221 222 223 218 216 216 222 217 223 228 230 242 243 244 245 246 231 188 198 207 238 229 232
226 220 218 217 220 222 222 223 248 249 260 262 259 259 243 200 109 223 185 210 233 229 228 224 221 218 220 220 222 163 224 230 228 243 238 236 240 245 234 214 196 118 186 226
231 273 264 262 263 260 257 256 252 256 248 242 246 243 95 76 116 143 142 253 255 253 246 242 243 244 242 238 227 217 215 224 228 236 236 228 237 243 83 141 218 197 242 227
270 263 256 251 247 247 247 248 245 247 164 168 245 242 250 204 105 99 232 100 111 247 170 263 172 276 265 261 257 103 244 234 229 229 235 216 237 236 232 262 217 215 111 196
250 248 244 243 246 250 243 230 232 225 220 217 227 230 230 155 104 77 212 140 98 130 342 297 199 217 190 232 168 251 254 244 177 235 227 224 230 231 239 258 268 263 243 232
167 244 243 227 211 201 220 219 209 213 220 229 273 270 267 274 295 290 280 199 113 303 317 261 381 341 241 235 231 233 239 248 199 232 234 213 229 233 238 78 262 233 243 231
220 213 215 206 216 215 214 208 214 224 276 264 270 279 286 297 198 105 82 97 90 82 288 333 457 347 305 203 244 235 226 239 237 230 228 229 216 219 249 249 257 252 237 230
218 218 216 216 210 195 217 229 263 264 263 251 250 280 304 336 134 333 339 324 339 308 159 400 350 326 295 297 282 247 233 232 236 230 230 220 226 239 242 245 254 253 240 229
211 216 211 210 208 216 247 251 249 249 243 245 248 294 291 319 330 343 371 386 351 344 379 410 404 222 278 301 287 261 229 244 231 227 229 221 192 237 237 237 244 255 239 230
216 209 214 212 217 243 259 239 234 228 246 240 245 291 293 310 330 347 382 358 352 364 397 407 303 228 202 289 244 156 139 236 235 233 211 214 226 238 236 239 238 248 246 232
216 216 216 215 257 228 239 228 229 246 247 251 241 277 285 292 314 344 371 390 312 385 406 315 280 259 286 267 248 241 236 227 232 212 205 209 190 233 228 236 234 245 250 234
216 219 215 195 157 243 228 227 228 230 229 247 237 266 265 272 287 321 353 389 400 401 263 280 253 279 270 253 246 237 236 217 225 210 218 220 209 216 228 233 235 244 251 239
211 216 249 198 235 229 220 220 223 219 236 251 244 255 256 264 268 286 340 374 394 297 270 280 276 264 253 248 245 245 225 220 204 207 190 215 221 220 229 233 234 244 250 241
220 259 243 188 217 226 218 217 225 229 224 236 240 236 242 249 254 255 294 272 255 249 276 270 260 252 247 240 165 231 224 184 218 221 213 206 214 223 230 239 245 253 249 225
234 246 240 247 226 219 216 209 222 227 221 238 227 234 238 223 244 229 246 262 241 236 236 246 236 178 239 229 187 191 215 213 213 216 211 215 229 234 240 252 253 249 221 206
254 242 160 213 216 215 219 218 212 221 211 224 229 222 235 233 210 231 246 248 230 224 225 228 226 222 222 219 216 212 215 218 227 222 227 253 254 251 256 246 233 206 204 222
237 247 212 239 241 223 215 221 229 214 219 212 218 225 229 230 240 236 238 246 244 252 255 224 229 229 226 226 226 227 171 213 273 286 260 259 254 245 226 206 204 216 220 216
251 203 239 158 222 230 221 214 226 214 221 217 219 233 221 238 226 235 241 235 238 242 246 252 261 283 276 274 276 275 264 252 249 244 236 227 212 204 207 220 173 211 200 187
242 240 235 218 205 220 218 222 228 240 223 229 257 222 235 220 227 223 227 227 225 226 228 249 235 234 235 234 233 232 226 217 211 205 205 209 219 220 219 216 212 190 182 183
226 238 194 256 224 231 238 231 244 232 240 223 248 204 226 223 219 220 211 211 211 211 211 212 212 210 207 211 211 220 220 221 221 220 219 217 214 212 198 182 183 184 185 188
245 232 228 223 223 211 202 239 242 223 280 282 243 253 241 221 202 202 202 193 201 201 213 220 218 219 216 214 216 217 219 220 186 179 214 192 183 183 184 186 190 191 193 197

GFSCGP_2pvu_pres_042.txt.gz
Presure
231 226 220 212 197 201 201 188 198 200 203 205 209 209 206 211 230 210 214 233 219 206 206 208 216 215 216 224 232 221 220 164 213 213 221 191 214 195 225 231 96 203 215 102
234 226 227 226 220 211 211 211 212 215 215 215 211 212 212 218 219 213 204 210 204 203 209 201 204 208 214 215 217 218 215 230 130 234 91 152 197 191 112 97 216 206 151 87
237 231 224 225 223 225 218 219 214 212 212 216 220 205 209 208 209 202 207 206 202 208 199 198 202 206 200 208 214 216 223 229 231 209 159 202 205 161 176 156 172 150 97 150
252 229 224 223 225 218 223 218 217 218 215 213 218 217 211 210 202 206 202 202 211 209 202 198 193 227 259 216 213 214 215 216 228 218 211 203 208 210 187 255 244 226 219 145
245 258 227 225 221 225 223 221 219 216 219 222 219 222 204 209 207 203 209 210 209 214 207 214 225 229 253 238 216 213 214 216 221 227 226 184 183 225 221 105 226 238 107 188
245 250 251 233 230 227 224 223 220 216 222 228 221 226 76 183 210 169 215 210 219 230 229 230 236 241 252 251 228 218 215 214 215 214 218 211 224 215 218 233 248 238 236 233
263 241 247 234 230 226 227 225 227 231 232 229 232 234 225 150 129 152 84 220 174 180 139 236 245 248 255 249 240 225 224 219 214 214 187 217 223 219 220 231 241 246 240 238
248 253 246 248 237 233 232 229 237 244 247 243 243 240 230 102 72 132 135 159 210 259 259 261 260 255 249 250 249 237 220 221 209 208 216 211 212 222 228 226 233 242 166 101
247 260 261 252 243 253 249 240 229 223 222 224 223 224 259 253 110 91 126 110 126 157 249 263 240 253 235 252 246 245 245 231 212 208 223 224 84 197 228 231 231 232 110 219
253 250 246 240 235 228 221 242 265 263 260 255 256 212 249 245 244 238 103 125 127 154 183 109 227 255 262 268 269 191 208 238 238 239 236 230 231 234 230 231 229 231 229 225
232 227 215 225 265 269 256 248 250 250 237 234 223 215 220 224 226 259 279 235 105 103 94 161 285 135 160 211 248 241 253 264 265 211 261 249 246 241 236 228 233 232 227 226
210 276 274 269 255 247 240 229 216 218 216 217 222 220 261 255 257 315 314 99 88 310 83 243 134 130 159 290 301 138 324 240 238 241 238 232 235 242 238 232 232 236 236 219
273 266 267 239 225 218 214 209 216 218 230 256 252 249 256 283 265 317 331 201 219 352 350 353 181 328 306 301 316 143 157 298 231 218 219 227 221 228 237 230 229 153 212 226
208 206 219 216 218 215 218 218 216 235 247 266 256 259 265 273 272 213 326 317 337 358 377 380 346 348 337 325 314 340 160 218 270 224 223 172 220 220 232 234 230 230 227 216
211 211 215 213 216 223 219 211 243 245 244 257 254 134 255 273 274 311 333 321 368 393 360 347 337 347 364 326 335 348 311 290 269 244 228 227 226 200 231 232 230 226 225 220
211 212 220 214 216 220 251 232 235 237 238 242 232 237 248 256 285 297 324 341 395 320 339 338 362 378 428 359 306 299 288 275 264 258 236 228 223 225 229 225 224 211 192 214
218 221 229 222 214 245 238 161 232 235 226 233 244 230 245 264 265 256 394 385 389 376 389 408 409 319 301 290 284 284 279 274 263 250 238 226 229 233 224 213 211 213 214 218
228 227 215 213 249 221 159 192 223 228 226 220 239 229 235 260 266 244 251 266 305 305 291 279 273 256 271 285 276 269 263 254 243 234 231 232 224 225 209 214 206 215 221 212
224 200 217 244 246 237 227 216 231 223 225 218 230 225 218 226 260 242 251 263 261 263 266 265 270 266 262 256 248 242 239 239 233 228 227 216 209 194 206 221 205 205 212 220
211 222 215 238 247 236 225 223 221 213 214 169 220 229 220 219 243 247 236 229 239 248 249 246 246 245 242 235 234 237 238 237 234 233 221 215 215 212 204 222 209 215 226 242
216 204 242 244 236 232 220 213 224 231 222 207 227 223 221 242 233 246 236 253 226 232 234 201 234 234 239 238 232 236 237 225 221 205 214 206 227 240 215 217 223 242 248 250
217 196 242 223 232 215 222 221 222 151 215 220 209 235 228 237 240 237 247 240 225 225 224 226 223 225 233 226 219 223 206 210 211 246 228 215 215 230 240 257 251 237 225 214
183 237 242 247 233 232 221 223 214 220 219 241 229 231 229 235 235 242 172 238 244 237 237 240 241 231 222 219 218 222 231 231 230 233 243 276 285 247 228 217 211 206 203 200
221 241 243 242 241 218 218 219 229 228 243 244 236 219 225 234 241 233 232 236 246 257 244 247 262 262 270 270 265 266 262 255 241 227 220 213 205 204 204 207 213 216 216 211
226 246 247 215 218 215 194 222 234 223 259 240 261 232 247 214 182 212 212 214 212 213 212 215 217 216 217 217 212 211 208 214 219 220 216 209 213 214 215 197 178 196 190 190
260 249 240 226 214 215 233 223 234 228 265 204 240 256 221 215 206 206 200 207 217 211 208 209 213 216 216 213 212 212 214 214 215 216 190 189 199 214 212 207 192 194 197 204

GFSCGP_2pvu_pres_045.txt.gz
Presure
250 241 209 210 209 201 200 208 207 167 209 204 194 202 199 194 190 192 200 204 200 198 201 197 192 200 198 197 233 225 225 223 219 225 218 92 210 226 196 187 96 196 195 217
244 240 237 216 236 209 205 210 209 200 212 207 206 206 197 204 199 206 205 206 202 203 200 207 210 227 216 229 226 219 214 216 215 221 224 226 227 126 200 167 237 228 185 206
247 244 246 235 230 226 224 203 207 208 205 202 203 202 206 198 197 199 199 198 199 202 211 210 215 220 211 171 213 214 215 214 207 208 216 213 213 218 207 187 204 217 223 169
241 243 233 236 238 247 224 226 219 212 211 205 199 192 196 191 192 192 95 212 211 198 215 213 215 217 215 210 208 204 208 209 209 211 207 223 217 220 221 224 230 201 237 237
249 250 241 231 238 239 235 239 236 225 223 218 213 209 210 201 203 205 208 208 207 217 222 199 214 86 214 205 204 207 205 201 196 206 201 253 231 220 220 216 211 200 202 198
250 244 245 249 248 240 237 239 236 234 234 226 225 228 219 211 214 217 217 217 220 226 227 230 229 219 213 217 215 207 206 212 207 219 227 253 234 224 223 217 220 221 212 199
253 255 250 244 250 254 238 237 239 244 231 233 230 222 226 219 215 216 219 223 226 229 229 229 232 232 229 225 231 222 214 213 222 227 235 248 238 225 222 219 212 151 206 204
249 244 236 245 247 246 255 238 240 239 229 229 223 225 224 217 218 227 113 213 154 213 144 237 240 238 237 236 235 236 242 236 238 234 250 249 252 230 223 218 212 212 217 205
268 257 248 253 254 255 249 256 257 250 235 235 232 230 231 221 103 213 111 243 247 104 251 156 151 240 248 226 239 239 242 262 268 269 268 263 251 245 217 214 208 209 208 213
266 272 276 270 271 267 234 240 242 245 241 240 230 225 230 249 249 236 150 226 176 90 110 96 119 125 186 236 272 223 262 263 262 259 259 258 248 239 232 224 216 205 205 221
249 249 247 255 251 249 248 250 251 245 244 247 239 228 221 254 266 259 248 248 111 194 257 101 142 97 100 139 256 224 117 200 262 268 267 250 234 235 239 226 232 232 227 223
249 252 260 265 257 247 243 242 235 223 220 257 260 247 248 240 235 236 232 272 276 81 291 353 181 125 99 133 156 300 133 213 233 123 239 240 262 235 231 230 228 238 246 242
242 243 237 230 227 219 226 267 256 247 241 236 230 226 236 255 264 270 308 283 314 308 316 350 95 342 336 340 216 266 266 134 141 300 160 234 238 244 249 253 250 245 237 232
225 221 217 234 261 257 249 239 228 223 221 227 252 252 270 255 258 287 259 191 327 334 340 326 329 368 372 388 364 241 139 149 316 293 250 276 218 236 231 234 229 202 224 225
272 259 255 246 239 229 216 220 210 219 245 239 251 243 249 257 279 208 246 350 414 377 370 261 386 371 383 363 347 335 276 328 321 323 313 319 165 227 221 212 212 211 214 228
214 211 207 205 221 216 216 218 238 245 228 232 250 244 244 250 252 256 271 271 85 452 398 371 347 361 340 334 332 333 326 295 313 318 335 317 282 226 216 212 213 215 221 218
214 208 205 210 215 218 230 245 235 241 166 226 240 235 235 220 254 244 217 281 268 289 312 391 375 389 376 366 344 332 345 347 335 311 295 276 254 224 216 216 214 217 221 222
212 216 221 239 225 233 237 242 240 188 223 223 216 228 225 237 241 239 242 260 250 281 247 269 289 288 286 286 285 285 284 281 277 272 263 252 244 236 228 222 219 224 224 225
222 220 235 216 221 243 244 232 227 215 223 229 224 221 228 233 238 239 210 232 249 259 264 265 267 269 264 264 269 268 265 262 259 254 249 245 240 232 228 227 226 223 218 202
218 225 209 224 228 248 236 231 221 227 226 220 217 232 226 226 244 241 235 236 233 237 243 246 246 245 238 239 241 243 239 238 237 236 232 233 229 225 224 221 216 212 194 207
221 213 217 213 238 246 239 223 227 214 228 229 225 238 222 243 236 247 246 241 236 259 227 230 233 233 236 237 234 233 188 230 228 223 222 223 224 228 221 217 203 219 233 238
229 218 219 220 242 245 238 219 216 225 217 228 219 233 220 228 240 252 248 235 229 238 248 229 230 239 247 244 240 232 230 234 236 241 226 202 210 225 212 228 233 232 235 235
217 220 209 224 236 229 227 205 226 222 212 226 219 231 225 228 238 241 175 252 237 236 237 236 226 224 236 227 230 226 224 210 212 220 225 228 236 237 226 231 233 244 203 199
218 219 214 246 241 191 208 226 210 224 238 225 241 284 222 226 164 237 235 246 249 245 246 239 255 260 239 229 230 231 240 238 241 242 240 239 235 221 206 198 202 210 212 209
220 212 218 241 248 241 229 230 221 230 241 210 227 250 256 208 203 208 200 210 202 200 198 208 225 221 227 250 233 231 227 204 204 203 202 202 203 210 213 213 217 221 222 219
195 211 225 231 251 240 214 226 231 226 225 236 236 257 240 218 210 196 198 193 196 203 207 213 214 215 215 215 214 213 214 213 213 213 214 217 219 221 221 220 220 216 212 226

GFSCGP_2pvu_pres_048.txt.gz
Presure
270 248 212 222 212 213 211 217 212 215 218 206 202 194 189 194 191 194 184 181 187 191 205 209 189 203 209 181 183 204 183 187 180 211 204 198 200 199 208 200 201 102 99 228
252 267 245 239 223 220 214 211 204 215 213 214 211 210 203 200 189 205 209 208 207 197 194 193 104 191 201 148 190 67 98 201 206 208 193 230 208 217 230 219 207 213 182 205
242 267 263 249 238 234 212 206 212 214 213 210 209 206 204 211 199 206 201 197 198 196 195 198 199 188 200 206 211 215 209 207 217 214 216 179 218 214 214 217 195 209 210 207
242 251 267 264 254 241 233 201 207 204 211 200 218 201 208 203 203 196 206 204 206 203 204 209 211 212 209 204 201 204 209 218 217 188 219 223 216 217 208 184 207 197 197 195
245 244 243 245 262 253 239 229 218 205 196 201 205 191 183 198 200 205 204 197 199 209 205 205 207 207 206 203 205 208 223 221 223 221 215 213 215 209 197 213 209 211 201 191
253 252 243 241 245 255 252 239 239 219 231 207 206 203 191 199 200 212 210 207 207 205 204 208 208 206 209 211 215 217 218 219 217 226 217 213 212 213 202 205 194 212 143 201
253 252 254 239 243 242 253 251 242 238 240 232 232 229 217 207 206 207 208 208 209 211 211 213 211 218 217 221 229 232 228 229 234 233 234 225 210 206 211 153 205 214 206 204
268 268 268 256 237 239 241 243 232 239 243 245 250 248 248 146 229 227 211 223 224 222 226 227 75 234 234 233 234 231 228 235 240 245 245 241 238 226 208 213 212 213 222 214
256 262 260 260 260 254 249 250 246 243 240 235 242 243 245 246 247 249 243 235 235 239 239 236 239 219 198 184 168 239 242 243 246 246 244 249 248 241 240 226 226 222 216 249
252 258 259 256 252 249 248 248 251 256 252 255 253 263 242 238 246 254 247 193 245 244 244 161 139 99 107 136 178 106 115 213 111 206 248 243 251 248 233 228 240 258 259 253
257 253 254 251 247 250 252 253 249 256 249 247 243 246 253 257 256 255 247 246 244 203 100 217 233 251 249 86 93 115 120 285 282 220 272 148 263 267 271 264 253 261 255 244
264 257 255 254 250 256 249 244 252 277 264 252 242 243 248 245 163 248 237 232 260 258 89 255 255 255 116 239 236 235 252 249 240 135 239 156 243 264 269 258 259 254 239 239
269 266 261 259 258 259 262 258 250 247 252 257 249 246 235 225 259 250 242 247 200 286 294 292 265 328 353 94 176 313 145 211 144 285 125 137 134 142 226 183 233 248 257 236
250 251 250 250 251 253 251 247 239 234 225 240 255 250 240 231 223 267 227 171 284 305 280 467 422 408 381 369 367 362 329 319 345 344 334 268 132 142 280 127 224 235 236 249
244 242 238 236 235 231 223 226 254 248 239 235 226 220 238 250 250 238 254 263 281 281 319 439 389 371 393 395 399 404 351 336 322 328 320 336 132 263 151 158 252 207 228 231
230 225 224 227 277 262 250 234 225 218 212 232 260 262 253 251 247 254 248 81 265 282 293 309 406 363 351 356 366 377 414 345 333 328 317 306 169 290 293 181 291 214 209 220
289 275 254 246 229 217 211 211 215 241 247 226 237 225 231 237 234 252 246 232 243 257 248 281 295 352 345 334 328 325 319 314 305 296 293 291 291 286 287 289 305 282 212 209
215 215 207 208 209 208 212 218 241 245 236 229 215 229 224 234 225 238 250 228 252 252 254 257 260 279 289 296 310 316 319 317 311 309 312 314 306 297 283 274 257 242 217 213
209 209 211 210 208 228 239 216 246 238 234 227 226 223 222 245 229 241 249 223 236 247 238 259 261 262 253 262 267 271 273 274 274 272 268 266 262 254 248 240 235 222 220 217
218 216 215 234 222 222 222 248 237 233 225 231 236 239 232 230 217 237 244 242 240 234 243 237 243 246 248 249 252 253 251 248 237 239 239 235 233 227 227 227 226 225 225 226
223 223 218 229 225 249 247 243 239 228 224 221 228 222 227 229 224 224 249 256 224 240 239 227 236 238 234 233 236 238 236 236 230 232 232 229 231 230 231 232 235 238 235 229
226 218 217 219 220 237 244 242 235 228 227 218 230 224 233 243 217 233 252 246 236 231 227 228 226 250 244 242 244 245 235 236 240 232 235 234 233 225 233 238 231 229 213 215
236 220 229 222 222 243 236 241 239 224 225 232 226 225 236 272 229 234 234 245 243 238 243 255 239 230 227 210 226 222 229 227 225 221 217 217 210 216 223 248 240 240 234 219
220 229 223 222 221 242 245 230 233 219 232 220 244 249 264 231 224 238 220 211 236 236 259 242 259 247 237 242 240 243 239 244 243 247 248 250 247 233 221 221 218 215 200 192
236 225 220 223 221 248 243 194 230 227 228 228 250 188 264 251 236 203 212 207 212 212 214 215 215 215 227 244 244 241 221 219 219 217 213 210 209 208 207 206 220 214 210 214
233 223 222 214 225 214 246 244 235 205 237 228 234 237 263 255 232 218 197 192 196 202 209 214 215 217 219 218 219 220 221 219 218 217 217 221 220 213 210 221 229 231 237 244

GFSCGP_2pvu_pres_051.txt.gz
Presure
267 241 229 222 226 205 215 215 212 175 207 207 202 180 175 179 174 175 176 180 170 169 171 168 161 174 165 123 100 165 180 184 180 180 176 165 186 183 181 199 193 195 89 89
264 269 268 231 222 224 203 213 208 192 201 207 209 205 193 196 196 196 195 197 190 184 187 175 177 174 178 181 180 187 193 191 203 202 199 212 195 210 196 201 205 205 226 224
266 265 261 260 235 224 197 201 220 213 208 210 188 198 195 192 195 201 191 189 184 186 187 190 190 195 193 197 210 197 204 212 203 204 198 214 196 201 209 211 209 200 200 194
246 265 262 261 254 249 224 207 214 218 216 214 207 174 176 202 204 209 210 205 205 205 200 197 200 202 207 196 202 212 211 210 212 206 208 211 213 213 196 195 106 223 216 215
253 255 268 259 258 265 244 229 214 200 216 218 221 212 209 204 211 212 210 209 206 208 210 213 213 205 215 214 209 204 210 212 213 212 209 206 209 210 209 209 211 223 207 222
264 256 260 274 255 251 263 253 243 222 224 205 215 211 206 198 209 210 217 215 211 213 220 209 214 213 213 211 211 214 211 211 205 204 211 208 204 206 209 209 221 209 203 218
257 259 253 257 259 258 249 265 263 246 244 226 215 210 92 205 208 208 207 214 211 208 215 213 213 202 202 206 215 214 212 212 213 214 215 215 216 208 211 223 221 216 218 213
264 258 252 253 249 254 246 269 273 260 250 240 235 228 222 215 212 211 210 210 211 212 210 208 206 203 215 216 219 219 213 207 209 214 215 212 230 227 232 225 220 215 219 223
256 268 256 247 240 243 244 250 249 255 259 258 245 239 238 235 231 226 218 218 220 221 219 221 223 224 224 221 219 228 233 235 238 241 241 243 240 233 228 229 234 233 229 229
260 255 265 246 246 251 245 241 239 248 254 247 250 254 246 240 242 247 160 249 250 261 260 260 256 253 253 251 200 180 184 141 119 203 241 240 244 244 243 240 241 242 240 240
269 271 257 261 256 257 254 257 245 239 238 254 249 249 252 251 251 250 253 257 266 232 273 265 262 260 255 206 96 101 88 149 109 258 167 134 165 257 199 243 116 167 237 181
263 258 256 259 264 267 262 261 264 261 251 246 256 255 258 264 266 262 255 260 254 250 249 247 250 252 248 262 269 265 273 281 244 280 100 99 133 166 210 219 268 274 140 273
253 249 249 241 253 254 249 248 250 250 250 252 251 259 251 244 253 262 255 254 251 246 249 271 119 273 275 365 165 455 363 327 315 313 304 281 265 255 242 227 122 147 165 163
259 252 247 249 253 255 256 254 249 247 253 254 256 262 259 252 246 239 245 249 246 240 248 271 303 307 376 407 393 405 395 407 413 304 289 282 288 287 287 284 278 274 193 158
274 277 279 274 266 267 272 270 268 265 256 258 244 241 231 244 244 240 233 251 269 267 257 254 254 311 384 374 368 373 385 393 367 368 361 359 350 287 278 279 280 281 286 159
252 252 253 255 254 248 246 246 248 241 230 226 263 245 237 230 219 221 261 236 267 110 245 255 282 296 341 348 152 364 389 394 383 348 333 323 335 335 331 349 361 325 291 280
248 248 246 248 245 232 230 225 239 266 249 234 224 216 224 236 239 239 243 238 262 237 238 255 271 275 313 321 324 324 326 331 363 345 337 332 328 325 322 308 291 281 279 288
236 232 227 221 259 274 274 246 231 219 215 213 232 242 219 238 238 221 233 248 249 230 235 239 249 264 273 287 302 317 313 304 292 288 287 270 293 291 288 282 277 270 275 270
268 279 283 248 229 221 215 211 206 215 216 240 233 233 230 230 221 239 227 251 247 237 230 235 236 242 262 256 266 266 268 277 281 285 284 276 281 283 278 271 262 253 244 240
219 219 216 213 211 209 203 224 218 242 236 230 234 229 227 242 231 228 232 247 253 237 236 243 231 246 249 252 259 254 257 262 254 254 257 256 244 244 241 234 235 237 237 226
217 213 212 213 213 221 222 212 228 243 229 233 234 221 223 239 227 261 232 249 250 242 215 228 235 242 244 231 247 235 240 247 217 248 243 235 248 250 233 235 226 246 237 239
219 218 217 219 223 225 217 243 249 187 235 232 224 222 208 224 236 309 232 236 255 240 239 238 248 229 233 221 224 235 230 229 239 235 224 230 228 226 220 220 223 221 222 219
220 225 219 224 217 219 217 249 245 243 235 234 217 231 234 236 269 240 234 226 240 239 246 245 250 257 224 230 226 230 231 228 224 223 221 217 218 218 221 220 225 229 245 254
229 221 225 231 219 214 224 245 246 235 238 238 232 224 233 252 258 249 224 214 208 203 210 212 240 235 258 265 266 261 249 240 235 231 235 231 229 225 214 212 215 219 219 218
227 230 237 222 224 225 221 245 237 161 235 235 229 229 240 254 259 211 203 206 213 204 203 206 215 222 224 227 225 221 220 221 222 221 220 219 216 215 211 208 207 226 233 236
234 238 221 230 219 201 221 245 241 236 232 223 235 227 234 256 245 231 234 202 196 201 210 218 216 217 219 216 215 220 223 223 222 219 206 204 203 216 226 235 244 249 235 219

GFSCGP_2pvu_pres_054.txt.gz
Presure
273 278 259 235 225 223 214 214 224 218 202 190 125 164 171 170 169 175 168 163 163 165 165 160 158 159 159 163 165 161 162 162 165 170 164 67 172 180 179 176 162 178 176 199
279 271 285 251 236 229 227 224 187 193 216 220 210 185 171 172 174 174 173 173 166 168 165 165 161 161 166 168 164 165 169 177 173 172 176 175 181 172 177 184 192 201 201 193
287 275 268 250 252 231 226 225 216 217 171 182 222 224 202 185 186 176 179 179 178 177 186 164 169 170 172 176 178 180 181 181 184 200 189 188 193 199 199 210 202 161 203 205
276 267 262 283 249 252 232 226 229 209 223 217 207 171 216 217 210 187 191 190 207 213 203 197 182 175 174 180 187 197 198 203 194 193 197 202 202 203 200 209 219 213 212 211
287 266 258 260 273 247 245 231 229 221 218 223 212 213 212 215 211 213 218 216 211 210 208 207 204 207 205 201 205 209 210 202 210 212 211 210 206 208 208 204 208 214 214 210
268 282 261 264 276 271 271 238 229 223 220 222 218 206 195 213 217 218 190 188 202 210 214 209 206 204 205 210 212 215 210 210 212 212 212 215 214 212 206 200 208 207 209 212
280 279 271 257 259 263 270 272 234 228 223 217 217 222 213 204 210 214 214 208 204 215 207 213 207 217 214 219 219 209 215 212 208 210 209 207 210 210 206 135 207 209 209 208
263 266 271 269 262 262 253 275 266 265 231 224 222 216 220 208 202 200 224 220 216 209 218 219 217 192 216 223 217 214 216 212 209 213 208 207 214 214 213 216 217 213 212 208
266 265 270 270 263 256 253 259 263 258 263 239 242 232 223 219 208 216 217 217 215 212 220 221 218 211 220 221 218 209 220 221 219 217 221 222 223 224 215 223 224 222 218 223
289 260 262 262 265 255 254 251 265 264 254 252 256 261 259 161 232 222 219 219 221 225 217 220 229 232 230 227 225 224 230 230 230 178 177 132 247 246 180 266 256 252 248 239
286 279 261 257 260 265 258 257 253 257 259 254 246 265 270 273 212 264 246 241 241 244 245 245 247 250 250 252 258 205 270 186 146 155 101 100 194 116 273 239 261 224 129 135
276 270 271 273 242 259 240 247 246 252 247 253 241 249 254 253 264 260 256 259 257 258 263 266 261 261 259 270 267 267 269 274 278 270 274 281 285 281 109 107 105 134 133 168
285 263 259 258 253 251 259 254 247 245 249 255 244 250 246 245 244 247 249 248 252 257 268 274 267 267 265 267 143 275 281 315 347 104 271 341 328 311 304 292 272 253 241 238
274 268 260 262 263 238 264 264 261 262 270 257 260 265 263 261 260 262 257 251 261 269 259 255 256 266 293 282 110 300 357 386 410 400 388 402 261 436 317 286 304 296 276 266
261 259 262 258 256 253 254 250 249 251 250 252 247 245 248 247 246 252 256 251 247 246 141 252 264 276 263 258 287 342 362 379 423 412 403 392 393 412 384 397 301 282 283 284
261 262 255 252 249 246 238 239 248 254 253 258 244 253 267 254 248 240 233 245 237 248 247 253 268 252 250 249 274 328 345 342 376 346 338 347 355 351 355 337 350 296 266 262
269 265 259 257 255 253 249 252 251 263 271 263 247 242 237 231 247 241 232 215 246 231 236 266 248 248 235 255 264 316 312 306 303 305 315 320 315 315 323 325 320 324 327 286
258 262 265 270 271 271 266 260 251 247 240 232 228 249 241 231 222 216 246 236 233 229 238 258 245 244 227 244 242 265 291 305 304 302 301 292 294 297 302 309 312 318 314 316
243 245 245 245 248 247 245 235 227 224 257 250 229 219 218 220 223 240 240 240 229 233 260 249 243 243 248 234 229 236 256 270 266 271 270 279 290 287 267 269 262 251 251 242
242 242 233 227 225 228 282 281 258 225 210 211 218 229 246 239 240 233 224 223 258 232 265 238 238 229 245 230 242 235 239 243 240 251 264 262 255 250 257 250 251 251 248 233
231 227 272 286 269 228 218 215 208 216 215 230 218 231 232 237 227 224 223 239 219 247 261 247 237 248 227 233 225 232 231 231 248 235 236 235 231 230 233 241 222 240 250 235
293 243 219 217 214 212 211 224 227 216 238 231 238 232 232 224 213 239 262 307 236 251 267 243 255 244 254 232 233 240 240 237 237 236 237 233 229 223 223 223 219 224 225 222
221 218 214 215 216 219 226 226 222 211 239 241 235 234 220 238 229 242 273 238 231 233 214 211 233 206 262 246 246 247 259 256 231 214 239 237 214 218 220 216 214 207 210 210
227 225 223 221 224 222 213 212 214 242 246 238 238 228 230 231 232 244 234 255 222 202 219 218 219 221 220 223 227 219 220 220 221 222 223 223 223 223 222 220 220 218 218 220
221 221 222 222 217 218 215 220 219 240 244 244 235 224 229 226 228 230 252 259 224 212 200 193 214 214 224 220 215 216 221 227 229 215 202 198 212 217 219 227 234 234 236 234
223 222 221 218 218 227 225 218 217 244 237 236 238 226 230 242 233 195 260 239 202 202 198 211 220 222 225 236 235 233 230 203 202 195 217 214 224 225 224 227 235 231 230 225

GFSCGP_2pvu_pres_057.txt.gz
Presure
307 296 260 267 269 237 184 202 193 191 202 160 192 186 186 154 162 179 184 190 178 176 175 168 168 170 172 173 170 173 174 178 180 178 163 162 161 163 163 169 168 167 173 182
290 302 279 278 261 257 236 223 207 194 221 200 185 194 95 195 187 174 176 183 187 185 179 180 179 177 179 180 181 182 184 178 165 166 161 161 169 168 171 176 179 178 181 183
302 282 291 256 274 258 241 227 226 208 204 227 219 183 190 188 184 183 173 171 172 169 170 171 170 168 165 165 172 168 161 167 165 164 167 171 172 171 177 181 181 196 200 200
279 283 262 271 271 275 252 239 229 195 222 203 185 215 222 191 188 180 174 176 175 170 177 177 116 167 170 171 171 171 170 172 178 177 182 188 178 180 181 190 204 203 206 203
271 259 291 270 266 276 275 243 240 234 223 231 194 181 172 217 196 193 189 187 184 180 177 176 176 178 176 171 172 178 181 182 182 185 202 201 189 187 206 199 208 214 210 205
263 259 261 280 274 283 281 267 245 233 231 225 223 195 194 221 225 230 207 198 200 198 223 205 186 182 186 186 182 180 190 189 203 209 207 212 213 205 206 210 211 204 209 209
284 275 258 263 295 302 274 294 263 250 236 230 221 221 158 218 223 224 198 167 167 163 167 189 222 220 221 186 213 218 218 212 209 220 215 213 212 220 214 218 214 214 218 211
276 271 271 272 269 293 279 267 275 260 254 235 229 225 220 223 223 227 218 222 223 221 225 222 220 219 224 224 225 219 214 211 226 215 218 220 219 213 214 219 221 218 219 218
272 281 279 276 268 272 277 273 268 274 263 248 247 236 233 227 226 229 224 222 218 226 220 216 206 204 202 217 218 223 223 215 207 212 213 158 227 223 220 225 223 221 209 185
273 275 276 268 278 266 252 266 261 261 265 270 260 244 242 230 232 173 228 222 225 224 222 220 225 226 221 221 217 217 218 220 223 222 231 234 182 181 236 239 232 235 235 232
270 276 270 276 278 269 270 263 256 252 256 259 263 274 264 224 132 237 234 229 224 223 222 221 221 222 221 220 221 225 226 232 237 259 263 265 268 271 165 140 294 293 266 285
272 297 269 273 263 266 274 266 261 257 261 263 261 261 265 266 265 263 266 224 225 226 228 230 232 235 241 243 246 250 262 265 267 270 284 292 290 291 291 301 302 301 296 288
268 300 289 273 262 260 256 262 260 263 263 253 254 269 268 269 266 264 255 258 265 244 261 265 267 268 266 263 268 280 284 255 290 293 285 313 356 351 341 325 306 303 302 298
298 287 279 275 274 253 254 249 254 255 258 259 255 257 258 253 255 254 251 248 251 253 252 248 262 269 268 268 109 258 272 238 281 339 395 396 421 428 415 402 400 394 404 387
287 285 273 268 268 272 275 255 245 255 257 250 246 257 251 249 254 258 258 261 260 265 260 258 261 256 252 255 264 273 232 264 279 323 351 351 363 374 362 356 369 371 375 427
274 276 273 257 248 248 247 260 259 254 255 261 270 271 259 253 254 255 254 246 250 264 255 250 235 237 253 257 266 250 253 256 308 319 316 309 321 323 327 330 319 321 340 342
261 263 268 269 259 261 247 257 258 256 251 251 244 244 246 249 242 247 260 252 246 248 238 240 245 255 246 272 264 250 247 249 258 307 304 305 313 308 316 313 320 297 315 323
265 265 258 254 257 257 255 252 245 239 239 248 245 250 261 256 247 242 238 238 238 223 248 246 245 245 250 262 253 241 246 245 235 253 248 287 294 284 284 285 295 292 297 308
266 262 262 260 255 253 252 248 250 253 262 264 249 241 237 233 230 245 236 222 250 246 245 237 242 238 272 240 239 236 234 238 234 241 234 243 247 273 270 276 263 260 261 261
252 254 262 264 272 278 265 256 251 247 240 237 227 249 246 239 218 223 241 252 240 226 237 243 238 260 251 238 257 235 226 198 236 241 242 240 241 234 241 239 244 239 254 241
244 244 244 244 248 246 240 236 229 224 240 256 238 221 219 214 217 240 248 228 225 255 294 240 250 262 247 244 263 234 242 242 248 237 246 245 243 240 241 243 230 231 229 229
245 244 235 231 227 222 266 279 267 233 217 212 218 226 219 235 241 238 224 227 254 281 237 254 259 256 241 250 229 230 252 259 224 221 221 224 228 226 222 218 217 219 221 224
237 227 223 280 287 243 216 209 216 213 226 218 216 232 233 239 238 233 227 233 249 277 229 212 206 212 222 215 231 233 222 221 222 220 222 229 207 207 223 223 222 220 217 213
308 299 251 217 216 211 213 213 219 221 218 213 235 234 241 236 234 225 230 241 239 271 213 201 222 204 224 228 222 220 219 220 225 230 217 206 223 218 229 227 228 229 233 237
226 222 218 215 213 218 220 223 220 217 217 233 228 241 237 238 230 227 240 229 234 261 210 210 206 193 214 223 226 238 235 237 231 206 204 195 203 207 225 226 226 226 220 230
221 219 222 223 222 223 220 219 215 222 221 228 245 242 240 237 231 229 239 231 232 256 214 208 204 202 220 222 241 235 233 233 218 204 197 201 208 202 207 224 232 229 226 220

GFSCGP_2pvu_pres_060.txt.gz
Presure
311 303 301 299 255 233 225 204 211 206 193 185 171 182 173 176 158 174 180 182 181 167 161 163 165 161 161 162 161 160 161 161 159 157 165 167 169 167 160 160 175 187 189 181
303 301 304 310 297 249 241 225 213 224 202 190 192 186 66 176 178 179 164 171 167 172 176 172 173 173 174 174 176 91 166 164 163 165 162 163 171 174 180 182 183 187 171 167
295 293 299 311 294 264 265 242 229 222 223 201 195 192 190 188 179 172 178 176 176 171 175 177 173 173 176 180 183 184 182 180 180 180 181 181 179 170 171 177 179 171 169 178
314 292 299 292 303 286 250 257 228 232 229 228 205 191 199 189 190 181 185 180 173 174 176 182 171 176 179 175 183 182 182 182 177 182 183 184 184 174 173 166 180 182 181 190
314 317 289 304 292 295 274 238 265 227 233 221 227 230 201 203 194 170 164 155 165 187 186 184 183 179 175 175 172 172 172 173 171 169 170 175 176 180 168 180 176 183 188 186
270 294 311 314 298 295 281 264 244 267 229 233 222 209 232 225 190 198 200 196 192 176 168 195 191 173 183 192 179 176 170 176 179 170 177 179 178 176 153 186 190 187 196 218
275 271 285 302 283 313 295 270 266 248 270 227 232 231 207 228 211 216 188 204 206 198 195 183 193 193 191 187 183 185 186 186 183 188 198 195 213 213 211 196 194 219 214 204
269 262 268 288 300 287 300 285 268 262 269 232 230 225 234 228 223 204 203 226 192 169 206 206 207 226 206 202 199 191 198 191 171 213 219 225 164 225 219 223 220 216 189 170
277 280 278 273 289 289 289 289 281 270 244 258 258 244 226 227 235 230 223 222 222 227 193 184 185 231 231 235 237 229 225 230 190 202 229 219 194 201 205 193 195 221 224 222
287 276 278 275 273 293 287 275 273 283 281 281 267 254 258 231 227 228 228 231 228 232 233 230 227 226 224 228 232 228 223 224 227 230 227 225 229 231 219 212 221 231 236 234
274 276 268 274 276 279 298 285 263 304 282 270 280 263 254 255 248 236 229 179 227 226 228 230 224 223 226 225 227 230 225 223 232 231 220 224 231 233 244 247 247 280 282 248
284 281 270 273 274 264 269 270 271 282 264 261 262 267 265 264 259 250 242 240 239 232 227 228 232 231 225 223 225 226 228 232 242 237 233 235 282 287 288 288 293 303 307 308
281 273 267 271 268 285 277 270 293 266 265 268 269 265 265 269 271 275 274 266 253 242 241 241 240 240 240 234 231 230 237 234 277 282 275 276 273 275 280 361 440 446 438 452
266 279 282 283 272 271 271 272 257 258 266 254 251 250 256 247 256 269 271 266 268 269 265 265 261 264 266 263 262 261 264 257 264 263 261 272 270 322 344 358 353 349 371 421
282 269 259 273 284 259 259 258 260 266 260 258 254 253 255 249 247 244 246 262 260 261 262 263 261 257 253 257 268 272 267 255 254 248 268 291 271 307 347 351 338 324 322 349
295 258 264 291 284 283 251 255 249 253 256 254 259 259 257 259 249 254 255 253 258 252 250 249 249 269 261 261 259 257 246 257 266 271 263 263 256 247 250 319 320 320 316 310
288 290 294 277 272 270 270 267 242 248 254 254 263 252 247 247 249 258 265 259 254 254 257 256 259 257 255 244 241 128 249 261 255 256 252 244 261 257 245 261 285 286 293 307
274 277 279 272 266 267 264 260 257 258 264 268 256 258 262 257 251 252 252 252 248 246 257 251 242 241 235 249 255 248 268 247 247 237 245 255 239 246 242 249 256 252 263 279
268 264 262 269 267 252 247 248 244 240 248 256 248 241 242 247 245 244 249 259 259 247 249 233 230 229 244 249 266 244 264 238 238 234 252 245 240 246 243 240 240 245 246 252
272 274 264 259 254 259 259 260 254 251 252 246 243 243 244 254 257 250 246 240 243 233 227 243 238 244 242 243 244 266 234 258 233 248 256 249 220 195 216 213 220 226 230 232
256 262 273 272 265 258 255 253 251 245 242 248 258 255 243 239 236 231 243 223 220 226 249 237 237 255 295 245 262 252 248 257 244 245 222 228 232 231 209 211 233 240 240 238
251 249 249 251 255 260 267 265 264 260 251 247 243 233 228 238 227 219 219 216 232 248 234 248 269 240 251 263 262 255 254 262 261 224 225 224 227 208 225 229 229 232 229 231
246 247 247 244 242 243 242 244 245 240 224 223 264 247 215 218 221 205 216 239 246 241 233 251 258 238 225 208 228 222 225 235 229 227 224 229 214 205 197 201 233 233 232 232
251 248 247 237 234 232 225 226 256 277 257 218 213 221 213 218 227 234 244 242 244 226 235 258 245 219 212 219 207 203 232 224 223 232 233 225 205 198 199 214 212 211 210 233
242 240 228 225 239 289 283 249 216 210 215 227 217 214 225 239 232 237 238 238 234 226 244 253 262 210 221 212 198 205 222 228 237 239 234 224 209 199 205 206 212 206 218 228
239 233 274 298 285 219 216 212 216 224 224 218 218 215 213 241 241 238 237 236 229 240 234 242 257 241 213 208 200 212 220 237 237 235 236 233 209 205 206 205 217 209 206 209

GFSCGP_2pvu_pres_063.txt.gz
Presure
296 325 337 357 329 249 216 229 210 190 194 189 177 185 176 181 171 170 181 170 168 160 161 156 161 160 155 75 76 149 129 153 159 158 154 153 152 153 149 150 160 160 159 164
340 308 330 337 331 294 233 230 221 221 188 190 197 165 191 184 175 187 170 168 168 170 166 160 161 162 160 155 154 154 153 153 154 159 160 161 165 168 163 159 159 170 169 164
324 306 298 338 323 326 254 221 219 228 203 202 181 126 168 163 186 183 178 177 172 169 170 168 169 166 170 164 162 162 164 165 163 166 173 163 165 169 169 172 174 182 186 185
298 300 287 326 316 317 266 240 214 211 221 213 208 185 193 185 167 171 187 185 172 167 171 172 171 171 171 172 171 172 170 172 173 171 173 174 177 176 178 188 188 192 191 188
301 294 299 305 330 317 327 237 230 214 216 218 222 203 185 190 192 174 167 152 152 182 181 169 163 178 171 148 173 172 176 180 178 178 187 187 184 179 169 182 180 180 188 185
289 288 295 314 304 337 309 309 238 225 218 220 215 220 188 182 190 192 189 180 172 159 152 179 175 169 169 173 175 165 177 173 184 172 175 179 177 188 189 192 199 182 179 192
280 311 288 289 306 308 319 305 297 274 226 219 217 217 219 214 206 187 193 189 187 186 188 188 148 147 148 175 176 180 161 160 174 173 174 188 194 194 192 177 194 192 191 187
296 288 312 328 291 307 296 314 299 292 281 240 219 207 218 222 220 205 225 198 189 189 186 184 189 188 187 150 176 186 172 177 186 192 192 181 192 196 199 202 199 197 195 197
288 286 293 296 305 304 297 300 314 287 295 263 247 246 210 219 220 227 231 209 227 200 195 189 185 186 197 201 196 193 194 195 197 200 198 168 182 189 234 233 239 238 233 227
272 280 281 283 296 234 323 322 306 302 287 288 269 249 251 236 227 219 220 226 228 235 240 235 209 207 206 204 204 191 190 192 190 187 184 181 178 186 237 231 231 234 232 228
278 273 283 283 283 284 297 299 287 311 298 270 277 277 252 253 234 241 227 220 223 221 223 227 232 233 232 232 232 217 207 233 233 235 236 236 232 229 230 232 236 240 246 248
271 275 273 277 282 284 290 297 290 279 299 283 268 266 261 257 252 237 226 248 224 220 218 223 227 232 238 237 237 236 236 233 234 229 233 227 237 245 247 246 266 288 283 269
274 268 263 267 276 273 271 280 285 290 275 290 281 272 258 257 257 253 260 261 251 219 218 224 225 225 223 225 229 227 229 233 234 241 242 259 244 250 267 285 277 284 289 332
266 277 282 272 263 259 259 267 268 276 293 269 270 274 283 267 255 249 245 254 249 253 255 259 253 242 234 234 238 242 244 249 246 246 259 283 274 279 273 264 271 267 301 348
272 267 260 277 281 272 271 270 273 265 275 276 280 276 279 270 270 266 252 259 253 259 262 266 275 284 277 274 274 275 275 261 277 276 274 274 259 265 258 268 289 258 247 288
274 260 283 267 278 281 278 270 289 267 260 287 266 269 251 245 247 247 249 251 254 265 264 268 263 260 263 271 273 92 266 253 269 267 260 254 251 252 264 260 254 265 254 271
270 269 278 272 260 261 277 268 270 267 270 250 260 255 247 246 249 250 249 252 252 253 251 249 253 260 261 261 254 263 265 261 259 256 247 246 254 263 249 264 273 248 243 241
299 303 271 259 266 259 287 289 260 259 256 254 253 257 253 253 259 263 252 253 253 253 250 252 263 259 260 257 258 255 258 255 252 246 251 254 264 247 266 253 228 200 225 238
287 286 287 298 280 275 274 276 262 249 248 251 253 242 248 254 251 244 248 249 252 255 259 255 254 250 255 252 252 246 247 243 249 249 270 254 247 246 265 221 239 218 212 246
276 273 280 276 277 267 261 263 266 267 255 240 249 259 259 254 256 255 252 250 249 253 250 249 258 249 244 241 244 240 247 244 237 256 262 243 231 246 215 230 214 224 235 235
277 275 265 268 272 264 259 251 247 250 251 251 245 243 249 242 243 245 246 246 247 254 249 241 241 237 232 246 249 244 286 287 255 263 253 263 252 222 217 239 213 202 213 207
260 271 271 264 263 265 257 247 245 250 244 240 244 247 244 246 247 245 249 251 242 240 237 227 224 225 246 248 240 255 249 264 264 255 261 263 226 229 228 224 209 201 204 217
257 255 260 269 268 263 259 262 262 258 263 260 260 252 237 252 255 247 236 233 248 219 229 237 234 248 241 227 263 248 257 212 226 246 233 230 227 221 232 217 209 200 205 210
250 254 251 251 254 260 262 266 269 265 264 265 261 265 258 243 231 236 222 214 221 213 228 246 241 252 238 244 250 226 212 221 205 223 227 234 237 237 239 222 212 203 204 211
257 247 249 250 248 242 245 246 248 251 251 255 240 227 234 238 215 213 220 223 228 231 239 245 238 240 256 251 265 222 209 216 198 212 224 229 235 237 234 236 212 211 213 211
265 263 255 255 250 247 246 241 234 227 226 238 266 235 216 223 214 219 213 236 234 239 237 246 236 231 226 258 258 295 209 210 204 205 229 206 233 237 236 233 220 214 217 215

GFSCGP_2pvu_pres_066.txt.gz
Presure
256 301 281 313 280 340 273 257 232 188 178 193 196 184 185 176 192 120 168 168 157 159 159 158 151 152 156 153 152 151 152 152 148 144 151 153 154 153 153 151 151 154 160 161
285 258 287 286 305 299 382 275 245 218 190 204 191 193 183 188 180 195 183 146 164 161 160 161 158 160 154 146 149 150 151 152 83 80 152 151 153 158 161 159 154 160 162 161
279 254 255 290 293 331 357 318 260 254 207 189 201 193 178 182 185 174 179 183 177 169 164 163 159 161 162 161 163 161 157 156 84 151 153 155 156 157 162 164 164 164 167 171
251 294 252 303 309 309 339 363 263 260 224 203 195 191 196 184 178 180 197 180 173 175 141 157 168 165 166 163 164 163 162 161 162 161 162 160 162 163 161 164 171 174 178 181
312 308 309 260 293 348 343 344 358 241 242 230 213 202 190 195 184 169 162 193 187 184 167 169 175 176 177 173 169 169 168 169 172 173 171 172 173 174 172 175 182 173 171 171
283 300 327 286 294 319 300 346 278 307 246 220 217 226 199 195 193 186 184 183 160 161 177 187 181 175 169 168 170 171 162 169 172 178 181 174 177 181 180 176 154 178 179 178
297 291 305 292 288 283 328 344 336 336 274 240 227 220 215 208 196 184 186 186 188 189 177 157 157 172 185 185 182 181 180 173 169 174 179 167 174 182 174 178 152 175 190 193
290 294 292 296 300 266 299 351 325 337 326 301 234 231 209 210 217 204 189 185 185 179 179 182 189 187 164 162 162 165 168 172 171 174 151 151 177 183 152 178 190 158 195 193
288 297 280 288 309 309 311 311 339 319 326 261 293 230 230 205 215 226 220 194 190 187 188 188 184 182 182 181 181 180 174 178 173 170 172 180 178 187 185 185 194 190 196 203
286 295 305 312 308 305 295 300 316 327 326 302 292 272 239 223 215 216 223 227 216 205 195 199 201 183 178 180 182 184 186 187 183 181 174 182 177 189 192 187 200 199 204 227
274 289 289 293 297 294 306 331 306 304 318 306 301 290 262 236 229 221 219 217 218 220 217 201 204 205 206 210 207 205 205 202 199 197 196 196 195 201 199 221 248 244 240 238
265 275 278 283 281 281 282 306 323 314 292 316 298 297 298 266 230 222 220 218 219 220 219 218 221 224 224 224 228 230 239 235 243 243 234 233 236 237 243 242 239 233 236 251
280 276 277 272 275 273 265 270 286 284 300 312 306 303 285 298 284 261 224 217 215 213 213 215 218 220 216 217 221 226 231 230 228 230 241 225 232 244 235 236 234 244 261 284
267 266 267 265 262 275 277 288 283 270 286 275 291 304 300 279 283 275 262 262 252 246 240 240 239 238 239 234 230 227 226 245 242 244 241 228 236 243 246 247 286 296 278 276
269 273 285 275 267 259 264 268 275 276 277 279 283 268 284 291 267 269 276 276 261 249 243 242 243 244 249 253 255 249 242 245 256 258 255 273 277 274 283 283 278 274 266 269
273 271 267 270 285 268 264 260 259 259 266 271 278 285 261 276 289 263 261 259 257 262 259 255 253 257 267 250 248 257 264 263 279 111 273 275 274 280 266 272 268 259 262 263
267 273 281 270 272 266 270 273 262 262 266 264 261 277 273 280 279 281 286 268 262 256 252 248 248 251 257 263 250 254 253 267 266 265 264 265 266 270 261 256 256 257 261 258
285 280 270 286 265 278 276 280 278 281 272 276 269 272 280 270 266 270 270 264 262 260 261 259 258 255 252 253 258 267 264 256 263 262 262 265 260 252 258 248 252 263 246 265
300 293 305 305 269 277 266 258 271 276 275 271 264 261 264 259 248 256 256 249 246 247 248 250 254 252 256 264 261 254 260 260 253 255 253 261 244 252 242 244 269 241 251 225
289 293 289 290 297 265 264 263 287 296 268 268 272 256 252 253 250 250 249 249 248 263 268 262 258 256 252 252 259 254 249 251 256 253 255 248 250 276 251 267 255 261 263 238
281 283 280 279 286 296 288 271 278 282 262 263 256 257 254 252 254 255 254 254 251 249 249 249 257 259 256 254 250 248 247 245 250 265 255 281 280 255 268 264 269 278 230 239
260 276 281 272 275 282 269 270 261 262 269 255 246 249 252 261 256 251 256 255 254 256 254 251 251 248 247 240 241 242 243 240 255 266 251 255 266 263 265 260 232 234 229 238
258 260 269 280 264 273 267 261 265 262 260 257 258 254 253 257 250 254 247 240 243 246 247 250 247 238 240 234 243 243 245 254 245 256 250 250 233 233 234 223 232 233 237 244
263 257 260 261 275 259 264 269 259 256 247 253 256 255 248 243 245 245 244 246 249 251 246 233 240 221 228 227 248 244 252 248 246 238 214 214 215 200 224 223 222 235 238 237
263 264 255 259 254 266 271 260 264 260 257 258 258 256 249 246 256 260 235 254 244 232 229 222 217 231 247 251 250 243 233 263 271 239 212 222 210 197 210 217 212 220 235 239
265 267 262 255 249 251 251 260 269 268 265 267 261 254 254 252 247 258 255 235 226 216 217 225 226 234 247 252 240 242 230 257 282 265 218 213 210 209 217 221 222 234 243 240

GFSCGP_2pvu_pres_069.txt.gz
Presure
280 279 274 284 284 291 244 247 141 251 236 198 182 192 189 189 170 184 169 160 155 157 164 158 155 157 153 157 159 148 148 111 153 150 145 144 150 149 147 151 152 152 152 153
269 279 275 269 306 256 265 244 244 253 246 236 193 184 181 159 192 167 184 168 161 152 159 152 146 152 159 157 156 148 147 148 148 151 152 153 152 152 151 152 151 152 154 154
275 286 276 272 275 310 282 273 245 252 247 229 226 185 200 183 185 193 168 182 173 169 133 162 162 158 152 157 148 158 155 152 152 152 156 154 152 153 152 153 156 161 162 162
273 270 267 281 270 276 299 306 273 249 248 237 240 197 187 200 191 173 188 176 184 175 174 169 135 157 162 160 157 156 162 159 157 157 153 157 160 161 161 162 163 164 155 171
287 284 271 265 266 276 296 317 314 323 248 256 241 236 194 195 197 194 178 178 179 168 183 177 168 162 160 160 162 161 159 159 161 161 160 161 161 159 156 164 170 138 146 171
264 266 274 266 264 267 290 291 311 302 328 262 255 247 213 221 194 191 197 186 184 183 170 179 181 181 175 169 168 169 168 164 163 168 171 171 169 170 171 160 169 167 159 166
292 296 252 284 280 267 266 276 308 300 312 325 257 260 247 220 212 188 188 195 188 188 185 181 168 172 179 173 175 178 179 179 177 176 178 180 169 164 175 180 162 182 184 172
286 304 275 254 248 252 288 277 293 281 338 346 304 251 253 248 227 203 185 185 190 187 181 181 174 179 174 172 178 184 182 181 180 180 180 184 188 164 169 170 153 168 160 173
308 302 318 319 319 305 257 307 315 258 306 354 356 363 251 252 234 224 208 199 188 187 189 187 184 184 176 164 165 168 170 167 156 158 163 180 185 164 181 180 181 184 185 186
312 306 297 286 298 299 292 302 300 320 267 278 348 308 351 251 248 240 228 224 208 194 187 189 189 189 188 189 186 183 182 180 181 180 178 180 181 180 180 181 179 174 185 185
296 293 292 298 293 290 289 311 303 301 332 334 333 343 307 302 243 240 241 242 229 218 207 196 193 189 189 190 190 187 189 188 183 180 183 178 181 187 187 192 193 191 203 207
278 272 296 300 302 304 302 312 316 302 306 323 325 316 322 319 286 250 235 239 238 229 226 230 228 203 201 198 192 191 190 188 187 187 190 187 192 196 199 200 206 216 229 251
271 284 273 275 274 275 286 284 297 304 298 295 314 309 310 299 303 276 263 254 238 234 232 225 228 233 204 215 209 210 212 211 208 206 207 204 201 207 222 223 247 234 237 244
269 274 269 268 264 268 276 271 269 291 309 312 296 308 300 296 295 288 282 268 261 256 251 231 227 229 232 233 221 222 223 226 223 221 222 226 223 219 235 246 232 241 252 275
279 271 266 267 273 268 262 262 272 267 273 274 297 304 299 301 296 283 286 290 280 264 253 254 253 249 245 241 235 233 230 228 226 221 221 216 226 240 253 260 266 286 283 277
274 273 267 267 264 267 268 272 276 278 279 273 282 266 279 291 306 306 288 292 278 272 263 267 268 266 247 237 233 226 222 242 230 254 248 254 263 241 271 271 259 278 269 266
275 273 274 271 269 277 272 277 262 268 278 274 276 277 272 261 274 280 300 280 270 287 289 283 268 257 254 250 249 251 251 252 244 254 262 250 255 259 256 270 267 265 266 262
294 283 274 273 281 272 262 282 273 264 267 266 275 272 265 273 272 266 271 285 292 285 266 273 280 274 257 253 256 262 261 250 253 246 260 260 255 265 263 259 266 265 261 248
299 309 311 288 280 278 283 270 266 259 274 264 264 260 260 263 272 277 279 280 279 281 285 289 258 258 261 251 248 244 247 260 265 253 246 263 258 254 262 263 259 253 242 255
281 294 303 293 297 310 281 275 279 286 274 282 281 273 276 266 263 279 278 263 261 266 268 270 273 273 269 266 263 255 251 249 259 267 253 259 260 259 259 252 261 251 283 268
272 275 288 284 288 292 302 291 276 263 257 262 281 275 282 259 256 268 270 253 253 253 257 257 254 255 254 254 252 262 261 253 252 256 254 257 261 254 250 254 264 248 261 259
267 261 269 283 278 276 289 303 267 269 268 281 282 276 265 257 254 259 259 264 256 252 249 249 254 258 259 257 253 252 252 252 253 258 257 251 231 256 258 249 262 274 265 227
264 267 259 266 280 274 272 288 288 268 274 279 275 262 265 264 255 252 251 253 252 253 258 253 259 260 248 250 250 250 251 246 245 244 229 250 261 252 247 248 230 217 228 225
269 265 266 258 261 279 270 276 272 270 266 267 271 253 256 250 247 255 244 256 257 246 250 258 249 247 248 247 248 240 245 231 231 235 252 249 252 257 237 220 210 217 204 198
266 272 264 265 257 255 268 271 273 266 258 259 260 267 253 247 245 246 246 241 254 255 246 246 248 247 246 236 239 228 223 248 254 250 244 239 263 266 232 215 221 213 211 206
264 265 258 270 259 256 255 260 271 267 271 257 265 256 258 256 254 258 258 254 247 248 240 238 252 238 234 223 227 214 247 256 248 240 245 246 293 271 240 224 204 208 210 224

GFSCGP_2pvu_pres_072.txt.gz
Presure
289 292 287 285 298 336 337 291 267 242 220 228 214 204 213 166 132 192 175 158 164 149 159 161 158 159 158 143 144 150 154 157 154 149 146 143 144 145 143 142 145 151 142 154
285 280 282 300 283 319 322 275 267 253 252 250 245 241 209 204 196 181 190 180 167 167 160 145 155 88 105 156 152 158 147 146 156 148 148 150 148 150 151 149 148 152 153 152
288 275 280 276 283 297 266 269 253 260 262 252 250 243 143 228 152 199 185 175 178 169 167 167 144 158 158 164 161 149 152 158 158 156 154 150 151 155 153 151 149 149 148 155
281 285 270 279 286 290 302 329 266 251 255 264 248 211 225 210 229 175 197 188 178 175 176 165 166 164 154 158 159 166 161 141 144 146 148 149 161 163 161 159 159 160 161 159
288 270 282 269 274 285 284 304 285 261 251 250 246 249 246 247 207 201 171 190 186 173 175 174 168 160 163 169 152 158 156 159 158 160 166 162 149 150 148 156 156 146 152 158
284 294 274 273 278 277 288 277 270 311 269 255 250 247 262 228 245 204 208 189 167 184 184 179 172 168 164 167 168 169 143 160 161 161 160 157 157 155 148 156 158 159 152 160
278 281 284 274 276 285 288 289 283 270 324 263 252 258 247 254 257 250 215 216 195 171 174 165 181 179 162 177 178 169 167 166 162 165 169 168 164 160 153 161 163 166 169 169
283 275 263 286 282 278 284 283 291 289 267 314 269 256 248 256 243 252 240 225 191 189 174 186 165 175 181 176 164 162 172 177 174 176 177 173 170 168 173 173 175 176 173 175
282 282 277 268 266 286 280 278 281 293 304 305 289 266 241 243 244 237 245 237 233 190 189 182 187 185 180 172 175 178 174 170 169 173 176 181 180 178 177 174 178 173 181 179
294 289 289 278 273 280 276 281 278 296 291 283 301 319 294 247 241 231 235 231 229 230 230 194 190 190 193 191 187 180 179 179 181 183 184 185 184 175 173 168 162 168 179 182
313 295 286 290 296 295 310 273 260 253 259 285 292 374 275 312 354 269 236 231 234 231 228 225 202 191 188 193 196 194 190 187 185 185 182 182 181 183 184 187 188 189 189 190
314 312 305 298 285 291 284 308 307 307 302 301 253 357 346 268 326 345 260 260 248 253 254 241 238 232 225 185 182 185 186 186 189 192 191 191 191 191 188 190 190 190 162 188
291 293 291 288 288 287 285 284 290 301 308 309 314 329 318 263 275 332 323 240 297 251 246 252 250 250 244 225 226 199 197 195 190 189 186 187 188 184 181 193 198 200 199 200
279 278 282 290 280 292 282 297 291 281 289 300 295 297 325 302 325 322 328 302 292 285 283 243 232 243 254 255 229 229 230 212 202 200 197 194 192 194 196 195 215 223 211 216
276 277 276 274 265 269 271 268 275 274 285 294 312 291 296 307 299 313 303 305 288 278 277 274 269 260 248 252 253 248 244 244 244 238 231 228 227 232 231 232 229 249 243 244
279 275 270 273 267 267 271 275 262 263 267 279 289 299 273 290 302 298 303 281 295 275 266 269 270 270 272 261 245 244 242 240 239 240 239 236 261 246 249 242 244 239 244 254
279 281 282 275 268 268 270 269 266 268 274 268 272 268 280 287 298 300 298 289 283 293 270 262 257 261 268 268 268 259 258 264 274 264 249 244 240 243 242 238 245 250 253 260
293 288 282 275 281 268 268 264 268 277 268 271 274 273 258 267 278 278 288 301 301 281 284 285 272 263 257 256 253 250 244 240 243 257 266 249 244 244 251 246 258 259 261 240
291 302 306 298 281 276 280 272 274 276 260 277 268 270 273 263 264 263 269 276 284 295 303 300 283 278 282 270 265 265 264 257 250 246 246 247 247 246 262 256 251 174 269 267
267 282 296 300 309 307 281 275 287 270 274 288 263 261 275 269 270 270 270 267 266 270 273 277 287 296 297 285 270 265 274 278 277 277 272 265 255 243 266 259 275 265 264 262
269 270 272 291 302 295 296 304 304 283 281 268 269 271 260 266 267 267 268 269 269 277 284 281 269 281 280 279 278 277 277 276 265 258 257 263 256 258 262 258 263 262 257 252
276 271 269 263 287 288 287 287 292 307 273 269 279 284 277 284 288 255 270 254 257 282 271 264 263 264 261 256 253 251 251 251 251 248 255 257 257 260 261 260 252 240 240 249
295 272 266 271 262 273 281 277 282 298 291 272 275 258 258 273 279 274 273 261 269 269 258 255 249 250 249 247 245 247 256 255 252 251 252 255 256 252 251 233 260 258 254 256
273 271 283 264 265 260 258 277 275 286 290 265 257 266 271 281 270 271 256 252 255 250 256 256 249 250 247 243 252 252 244 246 251 252 249 243 248 235 235 261 247 258 254 239
273 271 269 273 262 262 259 258 275 269 287 278 267 264 275 271 264 262 254 247 246 240 245 245 249 248 246 241 244 250 245 246 244 239 238 232 229 259 252 250 238 261 264 240
269 263 266 269 266 272 263 257 256 264 268 275 264 260 264 271 262 257 256 258 257 253 244 252 248 250 253 246 246 244 245 235 236 233 226 230 254 246 238 245 265 292 251 245

GFSCGP_2pvu_pres_075.txt.gz
Presure
291 304 266 307 286 302 287 359 346 257 219 215 211 198 198 180 195 175 214 161 192 179 165 158 159 159 158 153 154 156 159 159 155 153 154 146 143 144 144 148 149 146 144 148
292 268 267 303 291 286 274 349 343 306 229 222 215 208 201 195 172 214 176 169 150 184 171 167 154 161 163 159 158 155 156 157 154 152 153 154 154 155 154 154 157 153 151 151
295 265 291 290 309 290 296 316 338 276 270 227 223 213 211 197 213 198 191 180 195 189 177 171 160 149 160 163 163 158 151 147 158 160 150 142 144 144 144 148 150 152 153 155
291 294 281 279 298 292 287 299 324 295 275 245 232 220 216 213 203 214 203 198 178 184 189 161 177 172 166 156 155 156 160 160 160 158 159 157 150 151 150 151 151 142 156 158
297 293 280 290 306 289 301 297 305 337 278 253 237 241 223 233 221 183 202 203 200 207 198 176 175 178 169 152 158 160 165 147 154 159 158 156 164 166 160 159 156 150 151 143
292 291 282 285 283 291 293 301 308 268 274 271 256 248 234 230 228 233 202 207 196 216 147 79 173 153 179 169 169 169 163 162 144 153 141 152 157 154 149 148 142 144 146 157
293 290 287 285 286 282 285 282 280 300 318 271 267 249 247 231 234 237 232 202 225 233 178 190 193 177 187 179 171 171 165 166 168 166 166 168 167 163 162 161 160 163 157 147
288 289 284 288 290 290 281 290 288 272 312 267 256 254 118 275 252 237 248 246 221 246 246 193 214 189 179 182 179 182 170 152 168 170 169 165 158 161 162 161 157 159 159 164
293 289 285 290 291 295 279 288 286 286 306 278 292 264 267 254 269 267 247 244 248 261 245 233 197 221 188 188 180 179 180 179 170 167 176 173 167 160 162 168 172 173 170 171
272 287 278 277 281 274 293 278 280 288 291 296 304 314 276 260 257 262 273 273 265 258 209 242 221 194 228 201 174 177 173 179 182 181 177 174 174 176 169 168 170 172 171 169
286 286 276 290 290 278 267 281 278 279 284 286 298 313 306 251 248 250 256 247 248 267 264 268 244 222 248 192 197 196 180 173 170 171 170 167 168 170 176 178 177 180 182 178
284 276 291 284 271 280 280 272 270 270 291 294 291 293 288 299 275 272 250 248 245 246 256 245 254 260 210 237 239 211 210 201 192 178 184 189 188 184 188 189 187 186 189 190
324 327 295 280 278 274 274 277 275 296 310 282 280 278 273 276 286 346 279 255 276 246 257 250 252 252 255 246 256 255 225 218 197 192 192 190 188 185 188 192 193 192 189 185
301 302 304 309 308 306 302 301 290 299 308 298 295 289 297 308 292 271 277 349 287 334 329 267 251 247 248 240 238 242 244 244 242 239 237 199 212 214 196 195 195 193 197 200
281 275 283 298 299 301 293 292 290 292 289 292 284 291 311 299 321 315 313 309 294 276 309 329 304 257 252 249 246 232 226 229 232 232 231 235 235 239 242 238 232 231 225 225
279 284 293 270 285 281 285 286 282 284 278 277 277 281 298 305 289 313 303 323 320 275 272 319 306 303 297 292 292 294 260 260 261 254 246 245 250 241 241 245 248 247 247 241
286 288 279 278 280 279 267 270 275 273 272 274 272 266 288 296 284 292 307 284 311 281 261 268 300 283 284 278 276 279 242 236 278 278 281 255 252 258 265 279 250 250 270 257
298 293 289 285 283 273 269 276 264 269 270 261 262 268 261 272 290 286 292 294 293 294 294 296 300 281 279 275 271 272 272 268 266 270 277 270 274 280 268 253 269 249 236 252
271 277 301 287 286 283 280 275 274 270 259 260 261 269 270 265 265 280 281 287 298 295 292 282 279 289 287 271 261 259 257 255 250 253 257 263 251 244 240 238 235 242 252 245
277 273 268 283 304 297 285 282 281 270 267 271 267 273 266 255 257 265 273 270 274 282 290 306 284 273 271 279 267 259 263 262 257 257 248 246 249 250 257 255 245 240 239 244
284 277 272 267 270 294 305 308 285 280 282 277 276 284 269 270 273 277 260 259 259 266 270 274 282 297 305 289 281 279 273 269 270 266 268 270 278 278 261 254 252 251 253 263
282 284 278 269 269 263 299 310 307 303 289 282 282 277 284 270 271 269 260 261 263 257 263 262 262 263 266 273 275 281 286 290 294 301 295 282 271 265 259 253 258 259 262 260
285 290 283 274 275 270 264 292 294 295 295 301 310 286 273 281 264 269 263 284 262 262 256 270 270 276 287 281 275 279 278 263 266 252 251 250 245 243 252 255 253 253 257 252
291 283 296 285 268 267 270 263 284 280 287 299 305 276 278 272 280 284 272 278 279 264 255 257 255 278 268 267 263 261 253 254 251 243 246 258 250 240 248 250 250 247 240 234
282 277 273 269 282 279 265 269 261 261 280 278 298 286 265 276 273 262 257 272 274 280 280 266 271 260 260 254 252 242 238 245 248 251 251 250 250 246 241 242 240 230 266 247
276 277 278 278 273 265 279 267 263 261 258 274 276 291 276 263 262 276 283 268 266 270 260 260 252 255 260 251 247 248 251 245 243 243 245 240 242 237 234 229 219 253 247 236

GFSCGP_2pvu_pres_078.txt.gz
Presure
305 339 259 275 271 265 271 261 235 225 222 207 212 199 225 216 228 204 196 178 189 161 172 191 182 186 178 169 163 143 157 140 148 148 151 156 139 154 160 160 138 137 156 149
330 323 270 265 275 277 269 260 252 254 232 229 218 219 241 221 211 229 201 191 179 209 170 188 182 188 189 177 162 168 161 158 147 142 147 149 155 152 151 146 147 154 156 155
324 321 280 263 266 297 285 269 261 262 268 258 241 226 284 227 219 237 228 189 188 172 189 167 201 187 186 185 164 162 162 166 156 153 152 148 148 154 157 156 154 153 151 147
299 317 314 265 279 267 272 263 260 258 261 257 321 320 271 235 225 222 243 198 187 188 182 180 163 195 190 180 174 166 150 153 156 160 162 161 160 159 161 161 158 160 160 160
301 309 301 287 286 275 258 302 263 286 301 292 295 302 263 242 227 220 248 252 195 169 207 190 185 166 187 185 180 180 175 168 162 162 165 164 162 161 160 159 156 157 157 155
316 313 297 290 275 270 258 305 292 302 307 280 346 291 281 247 231 228 222 219 224 198 161 215 200 192 180 187 167 172 181 171 161 156 154 153 155 156 158 160 159 157 144 150
298 304 307 290 290 252 284 294 309 288 297 316 312 297 268 264 236 234 229 225 229 216 197 167 185 181 195 127 159 155 164 179 163 164 176 175 166 157 158 161 156 161 165 166
302 308 305 293 278 275 270 280 299 295 281 294 281 317 268 266 256 241 235 225 226 230 218 188 187 182 227 181 187 201 173 141 141 171 145 163 171 167 162 161 161 160 160 160
309 306 295 292 288 285 285 290 281 290 294 285 313 339 280 263 260 262 243 235 231 231 229 223 180 183 182 184 181 183 187 198 195 189 168 170 172 172 170 169 168 168 170 168
286 291 300 292 287 284 286 281 282 287 292 283 292 310 270 275 272 265 251 243 239 239 238 241 232 213 189 186 189 234 195 181 196 193 192 182 163 177 179 177 171 172 175 173
276 287 287 290 289 280 278 282 284 281 273 287 275 290 291 260 259 263 263 260 252 246 237 242 250 245 235 242 189 191 213 214 172 172 182 192 191 182 179 179 178 176 172 168
293 283 279 287 284 283 290 284 277 165 279 291 286 283 250 292 308 285 267 267 268 255 261 265 243 243 244 239 244 183 190 199 244 224 181 185 191 188 188 180 181 169 168 170
316 286 287 286 268 288 279 263 268 283 287 281 240 281 265 272 288 308 258 256 254 262 265 265 271 281 283 277 275 266 249 237 245 248 244 233 190 213 194 203 199 184 176 177
312 331 316 296 286 282 277 277 281 281 290 284 287 279 263 272 280 294 304 307 275 260 251 246 171 258 265 272 267 267 269 266 280 279 274 259 235 207 244 209 182 185 189 198
295 299 311 308 314 310 313 313 306 284 270 277 284 305 300 297 297 300 279 306 307 303 298 308 289 284 269 262 254 249 253 253 255 254 245 252 247 258 209 216 255 252 254 247
297 287 286 289 286 295 296 303 305 297 293 293 295 283 278 287 294 293 317 311 308 332 285 297 329 365 286 272 267 262 262 259 258 256 253 249 241 241 238 236 237 235 236 230
303 296 285 285 274 283 284 288 287 289 284 289 287 277 281 280 282 300 306 300 314 310 295 298 280 341 297 298 331 339 336 310 296 296 277 263 249 246 247 250 250 250 268 251
282 294 300 286 283 288 275 279 278 283 285 282 282 281 278 279 286 299 282 297 286 301 304 307 305 269 319 285 286 314 311 314 316 309 296 291 292 290 291 285 273 241 229 263
284 284 279 297 296 287 276 280 282 271 269 283 276 270 275 273 275 267 269 282 297 287 283 306 289 307 299 272 267 309 280 286 302 297 286 278 274 265 277 271 265 279 263 255
291 285 279 280 297 296 283 284 289 289 273 277 272 263 265 257 261 263 270 268 271 273 284 298 288 293 290 293 265 252 252 270 286 285 266 274 277 269 272 270 257 250 259 243
293 292 284 278 270 270 293 296 290 284 284 280 272 277 266 267 267 265 264 261 262 266 272 271 283 291 287 284 280 273 289 287 280 272 263 257 246 244 241 241 244 242 238 243
291 293 289 283 277 271 281 273 286 301 307 290 277 278 272 272 266 263 272 272 260 256 260 265 267 272 278 290 295 283 272 267 273 273 265 264 263 259 260 257 254 249 248 268
287 282 288 292 283 278 276 274 270 291 304 310 308 287 272 279 281 272 288 270 266 272 270 257 258 257 254 261 264 269 279 297 277 264 263 260 262 268 287 294 280 270 253 248
292 279 285 294 285 282 276 275 267 268 285 284 290 295 299 303 293 273 273 284 275 268 263 270 255 260 266 262 267 271 278 277 269 272 276 280 273 264 255 252 248 241 250 246
294 288 207 275 286 293 279 272 270 266 263 272 276 274 297 304 302 280 277 266 274 264 261 267 261 273 256 258 271 254 279 276 273 267 261 255 250 249 242 241 245 242 245 242
294 278 282 288 284 283 298 280 269 268 268 262 259 276 282 297 290 272 261 267 273 280 266 256 277 277 279 260 270 277 269 260 256 250 245 240 244 248 248 249 245 239 239 237

GFSCGP_2pvu_pres_081.txt.gz
Presure
348 336 289 276 290 284 267 249 237 232 234 205 197 189 185 180 187 184 223 196 197 186 182 175 166 161 176 183 153 168 166 151 159 164 163 152 151 147 151 153 145 156 161 171
342 322 324 274 280 280 278 260 248 238 236 235 200 194 195 191 182 195 232 217 195 206 174 187 173 169 181 182 190 183 166 162 156 157 162 159 154 159 159 154 151 150 149 155
319 318 308 293 272 284 276 274 261 250 238 241 226 199 189 196 198 198 189 211 214 202 200 182 180 183 171 191 183 167 187 179 168 163 159 158 158 159 143 143 143 143 144 144
312 322 341 343 273 273 279 274 273 265 245 240 240 223 187 195 199 198 195 181 210 224 199 188 188 182 184 183 169 165 182 181 186 175 174 168 166 166 164 155 155 155 155 152
313 311 347 294 276 264 279 276 272 273 260 244 241 232 223 201 194 200 205 192 198 225 225 201 193 190 182 166 176 164 171 164 191 184 189 185 176 163 167 166 169 171 169 168
325 336 320 314 310 268 264 272 272 267 264 263 254 243 234 220 217 205 206 207 204 191 211 213 201 196 185 179 164 180 185 176 172 190 173 180 189 164 147 138 136 159 157 159
309 329 317 314 312 273 261 259 264 272 311 262 261 259 249 248 244 219 216 213 208 219 201 214 209 204 172 189 189 171 176 208 173 156 179 185 190 180 180 179 173 164 162 155
326 313 308 311 304 304 264 256 260 260 256 304 268 263 257 262 258 250 239 235 234 230 253 198 216 207 216 206 182 194 180 179 180 183 189 165 178 182 149 170 173 176 174 158
325 313 317 301 295 282 285 282 250 281 257 307 284 257 263 267 276 291 319 289 266 254 242 254 247 220 218 221 199 183 170 215 154 177 183 184 168 172 160 181 181 179 185 171
299 295 313 308 297 293 278 280 287 251 294 261 296 273 284 266 291 281 285 284 290 269 257 254 255 246 230 211 213 202 193 160 162 197 204 177 173 191 190 187 163 190 186 180
302 298 298 297 286 295 291 285 281 277 270 280 281 282 271 283 312 272 277 271 285 264 278 255 255 247 255 238 219 247 204 192 189 165 170 174 195 201 195 179 175 161 171 180
311 302 292 308 295 296 284 284 284 282 279 275 275 277 277 275 308 316 288 274 267 272 269 253 257 247 249 255 252 225 213 198 189 181 181 181 181 220 215 210 200 165 166 171
326 306 296 292 294 292 294 296 284 279 281 283 275 269 270 273 272 281 305 304 269 266 269 269 263 252 254 255 255 250 255 238 206 194 189 178 178 179 180 187 217 213 191 178
302 346 316 302 291 292 283 279 289 294 292 286 286 274 244 271 280 281 261 303 289 270 269 271 265 265 269 179 250 252 251 252 251 242 252 220 187 187 190 189 188 188 209 213
295 301 316 330 319 314 307 280 280 276 273 281 259 268 262 267 274 286 291 274 281 311 272 268 268 272 271 269 176 273 274 271 275 274 270 282 278 283 271 223 252 175 176 188
298 295 302 302 323 330 321 315 314 312 312 282 276 270 279 278 276 273 281 293 292 289 304 319 293 271 264 269 277 275 277 282 275 274 265 252 266 264 264 271 262 243 249 254
297 288 295 297 295 295 304 291 302 311 313 317 318 280 278 280 281 296 296 301 307 320 329 325 333 276 296 318 319 288 285 276 273 273 270 155 263 262 266 264 253 251 254 252
296 287 289 298 292 294 286 286 282 293 294 307 303 293 296 292 290 286 281 276 283 289 310 316 313 332 315 340 292 322 342 268 314 227 331 314 307 289 275 267 269 285 283 277
301 290 284 288 294 289 284 282 280 283 285 291 281 285 281 285 287 285 289 282 302 299 287 303 295 292 321 297 335 293 284 355 304 331 322 309 311 319 321 280 280 271 265 266
301 294 289 285 294 292 281 283 280 283 283 281 277 281 286 283 278 280 283 280 279 283 269 278 286 295 296 309 315 309 262 273 301 299 269 270 266 262 262 251 256 285 275 264
306 293 288 278 281 276 282 291 288 290 277 276 279 281 266 276 274 262 269 272 266 265 269 270 279 273 276 297 282 304 293 296 290 278 265 250 248 259 251 250 262 286 268 259
321 301 291 286 279 269 271 279 291 301 288 284 283 281 282 280 266 271 275 267 261 269 262 264 263 268 270 269 287 284 276 278 280 277 282 261 259 247 266 261 256 257 253 250
321 303 297 293 288 278 277 269 276 272 279 290 293 300 295 280 275 277 273 271 271 263 257 273 269 251 250 257 264 272 281 285 295 274 266 277 267 264 269 278 271 257 251 251
341 316 295 283 293 286 282 275 272 274 276 271 293 304 309 306 299 288 279 274 275 277 269 267 269 263 259 261 253 260 254 253 254 260 274 291 273 264 256 254 253 256 252 253
343 326 297 290 235 285 288 281 279 275 275 272 274 287 287 288 287 290 298 303 297 273 276 267 274 270 266 256 262 254 255 262 259 270 268 272 261 262 272 275 278 273 264 257
345 326 298 290 260 282 290 286 282 277 273 274 267 271 275 283 276 289 304 304 296 275 284 266 262 268 262 257 259 258 258 252 260 251 259 274 273 270 266 259 247 246 248 240

GFSCGP_2pvu_pres_084.txt.gz
Presure
340 333 300 283 279 301 290 278 259 239 226 215 207 225 193 185 164 185 170 233 219 196 194 190 182 169 159 158 168 185 161 172 173 177 168 165 157 153 158 160 140 140 144 150
331 333 339 287 281 292 288 278 264 250 237 230 215 248 212 188 178 167 188 155 230 215 183 195 184 182 170 168 161 158 184 177 179 182 164 174 165 167 161 156 154 152 153 155
336 338 333 290 287 290 313 277 272 261 248 233 224 211 235 221 187 178 184 192 155 224 211 175 176 196 194 169 171 170 167 177 179 184 173 179 172 160 159 150 156 158 160 160
304 325 322 329 291 279 276 286 276 270 257 242 235 222 239 210 233 182 181 174 234 168 181 208 202 180 190 181 162 167 172 170 170 187 172 164 181 178 168 163 160 158 159 156
295 311 341 336 323 282 270 277 292 272 264 251 242 234 216 242 214 196 181 182 178 157 164 226 209 206 201 184 184 178 173 165 164 154 165 173 185 183 183 174 175 170 166 169
318 305 323 330 312 296 278 278 276 280 269 260 245 240 232 223 231 204 201 191 184 182 175 176 224 219 214 205 190 200 171 177 175 169 170 171 162 170 170 173 182 186 163 172
315 315 311 322 314 308 295 271 278 278 280 272 260 247 241 247 243 219 205 196 191 191 192 173 171 181 202 216 211 203 193 186 174 178 174 182 200 179 177 179 180 160 174 178
303 299 307 304 338 335 321 277 266 272 276 268 270 264 246 253 248 239 220 204 198 197 194 193 189 191 193 191 177 218 207 199 194 179 180 184 186 144 175 173 192 184 168 156
324 328 335 317 309 306 328 306 267 258 266 269 265 263 262 266 262 245 245 225 206 201 200 193 191 190 194 193 187 211 224 222 206 198 185 182 185 187 177 184 167 189 166 172
323 315 303 317 294 302 308 310 282 260 261 264 263 261 261 264 271 265 253 241 232 220 210 203 203 205 199 200 200 200 196 194 217 213 203 197 181 150 189 181 169 174 171 173
324 309 309 300 299 298 296 291 293 279 255 252 253 259 261 291 302 302 265 260 256 231 228 204 214 213 211 208 209 202 204 206 208 212 211 205 206 203 197 194 184 185 184 204
331 317 303 302 304 305 294 289 282 280 273 257 275 279 251 283 295 301 273 302 264 264 258 251 243 240 233 232 222 214 215 207 213 211 216 209 207 207 209 199 163 162 158 171
319 310 312 300 298 293 297 295 283 278 278 273 253 240 274 253 273 296 294 268 264 260 257 256 257 263 247 242 265 266 262 237 254 241 234 223 217 213 248 209 207 163 189 188
315 310 312 307 298 294 292 291 302 297 286 274 274 264 244 259 267 271 290 289 278 309 271 291 277 287 265 257 260 276 266 226 110 249 284 274 227 216 213 205 257 246 194 174
327 307 300 320 311 301 285 292 296 290 281 280 262 268 255 257 269 278 271 287 289 276 282 294 274 272 283 278 275 278 259 214 259 289 236 266 162 269 276 205 202 134 214 209
320 309 300 297 328 315 314 275 294 295 289 290 287 274 267 274 271 268 285 288 288 291 280 266 304 306 270 265 266 264 273 271 272 268 267 175 264 264 127 264 266 266 274 205
308 314 302 295 299 309 338 327 316 299 286 287 287 277 289 285 282 278 277 280 282 282 290 297 290 274 292 317 294 275 271 274 275 275 277 280 277 279 273 268 260 258 256 261
274 317 306 297 291 307 290 308 328 326 314 320 310 269 285 280 277 267 267 263 276 290 289 285 316 314 316 300 276 308 333 282 272 276 284 278 275 275 275 273 277 276 282 282
184 330 304 298 291 288 287 290 302 299 297 312 309 311 318 326 300 272 278 282 287 293 296 295 292 300 306 316 303 324 327 289 293 305 347 339 323 343 340 319 293 297 292 289
199 330 319 302 288 280 286 288 288 290 294 285 293 298 305 304 310 294 289 290 290 284 295 287 298 284 292 298 302 296 296 311 307 328 328 351 264 292 320 319 322 289 307 292
147 153 314 303 291 282 286 286 294 288 281 276 274 276 288 289 288 291 286 284 282 284 281 281 271 289 277 279 283 288 294 292 306 298 308 341 317 287 264 258 267 261 262 258
144 255 327 302 294 280 287 271 294 287 284 283 279 277 273 275 276 285 261 274 277 263 264 268 275 266 265 265 271 274 275 294 277 295 284 288 291 297 248 248 250 264 247 244
148 371 328 312 295 283 287 291 281 289 291 288 288 285 282 281 279 278 280 273 264 263 274 264 263 257 258 267 253 259 263 265 273 284 276 271 273 273 286 274 261 253 253 258
152 377 339 315 300 287 287 262 272 275 274 272 271 287 292 293 295 295 288 279 284 272 266 264 266 267 253 253 264 256 250 250 256 261 265 269 285 275 262 270 271 266 273 265
408 377 355 321 303 292 282 282 275 272 271 271 273 273 270 271 299 308 310 305 300 289 278 275 273 274 277 263 263 263 256 260 253 250 257 252 254 254 262 266 280 275 266 262
229 377 359 331 311 291 287 283 281 273 275 272 272 267 270 268 265 283 283 284 288 298 303 302 297 277 274 275 266 276 272 257 261 257 248 255 256 263 262 261 262 255 256 259

GFSCGP_2pvu_pres_087.txt.gz
Presure
330 309 296 346 276 291 114 333 290 265 235 216 235 217 192 179 188 219 192 226 176 198 216 183 187 177 170 166 166 152 162 164 164 178 177 181 178 165 167 154 150 148 166 169
334 323 294 299 280 274 293 331 367 273 239 210 262 197 223 191 184 213 184 201 173 195 200 215 196 189 126 129 167 161 168 152 159 167 171 186 186 174 172 171 163 155 162 172
326 319 308 293 295 266 275 314 311 285 262 234 208 221 195 203 192 185 224 175 225 178 194 152 185 202 195 178 163 172 167 166 169 151 152 167 177 181 184 178 176 186 180 169
333 319 320 343 288 283 270 293 305 289 278 269 233 208 245 206 202 190 190 209 201 188 103 199 208 222 209 187 170 182 181 172 167 163 165 162 165 164 159 190 190 186 185 184
311 347 345 340 284 288 280 272 303 290 285 282 269 244 224 229 210 205 200 230 175 256 183 167 161 176 230 215 202 200 180 180 180 172 165 166 171 169 166 172 171 190 154 174
310 311 324 323 325 322 277 281 293 313 289 292 275 267 249 236 218 217 212 204 218 193 174 172 173 186 160 217 220 202 195 180 189 177 180 176 167 171 168 163 161 164 143 167
319 294 299 312 307 330 293 276 279 279 288 285 280 277 259 245 238 232 225 209 241 199 206 173 175 173 175 187 155 183 219 189 178 181 191 184 169 168 162 162 159 168 155 169
318 317 310 302 315 330 324 315 274 272 281 321 281 277 267 252 249 243 235 219 210 231 197 224 178 179 175 180 231 168 166 214 207 197 188 182 181 178 176 173 170 171 169 174
324 312 312 311 310 299 317 306 312 281 278 280 277 281 266 260 256 252 245 233 216 230 224 194 242 181 179 177 161 162 161 163 214 210 201 202 198 188 183 190 186 172 173 171
330 322 309 306 301 303 304 320 326 311 274 270 276 278 275 264 260 257 250 249 238 215 233 221 207 218 194 183 179 179 167 161 167 168 171 187 211 209 200 189 187 187 190 189
342 335 303 346 339 312 308 304 312 324 285 270 260 271 267 269 267 266 260 251 250 242 222 226 218 203 230 206 193 192 185 186 186 181 176 197 201 195 166 185 208 200 196 193
345 320 314 301 289 305 296 295 298 306 302 313 262 257 257 265 265 271 270 270 269 256 245 86 229 217 211 220 203 193 192 193 193 189 191 190 188 192 191 187 212 215 213 210
352 325 314 301 300 290 299 287 291 294 288 291 263 254 252 274 270 268 273 271 271 275 273 255 238 232 223 218 225 209 203 201 200 198 197 194 194 195 194 193 187 194 196 196
145 170 320 303 299 295 291 284 285 290 300 280 270 257 255 253 266 267 269 270 270 269 288 266 265 250 236 232 227 221 216 213 212 211 207 210 210 208 206 201 202 203 202 202
358 346 295 316 298 289 288 284 299 286 284 282 280 263 263 263 265 272 269 259 263 287 265 293 272 268 261 255 243 237 231 225 227 224 224 227 226 132 221 216 104 208 207 210
217 168 176 316 314 297 289 289 288 289 289 281 279 274 272 266 257 265 262 262 286 272 258 291 285 277 306 266 262 260 255 252 252 256 253 252 252 252 252 248 241 230 280 233
366 151 160 166 308 309 307 290 292 288 288 296 284 267 272 271 274 266 265 275 259 252 285 267 284 291 278 259 256 257 257 258 252 251 264 253 263 283 262 276 275 249 275 275
262 151 150 245 306 308 300 313 303 285 293 294 293 294 288 287 282 271 274 274 275 277 269 280 283 280 284 293 286 284 281 294 309 297 287 286 274 274 270 272 272 275 284 267
444 285 168 187 156 310 290 290 323 319 312 282 291 288 288 288 276 279 279 272 278 282 288 285 282 283 292 289 292 287 303 327 298 289 287 288 311 326 279 274 274 280 277 275
421 391 144 142 258 250 290 286 297 311 318 329 337 284 293 288 287 294 293 293 301 291 286 276 269 274 278 288 305 294 302 316 310 302 316 324 324 330 293 289 293 357 352 336
359 364 332 228 213 314 290 288 296 296 298 310 317 316 315 310 310 312 313 316 320 289 271 268 271 279 294 293 294 288 278 285 291 300 299 303 305 317 317 309 341 278 322 321
410 368 207 144 152 315 297 291 298 291 287 293 295 292 287 290 292 294 296 293 301 300 292 295 295 301 295 298 282 279 283 275 277 278 299 284 296 292 288 318 312 300 291 299
414 169 346 373 370 331 304 293 293 293 296 289 289 284 275 271 272 273 274 277 266 292 275 278 282 273 269 270 273 269 263 257 267 274 264 276 283 286 280 287 280 289 289 278
142 142 377 363 356 345 311 297 290 283 286 288 280 281 282 283 283 283 283 281 279 277 276 279 264 265 267 262 263 261 255 254 263 252 256 260 264 275 275 276 262 271 262 261
140 276 405 279 356 343 318 301 293 287 175 278 282 289 287 287 295 296 292 290 289 289 289 282 277 277 269 264 258 260 258 266 258 266 249 249 252 252 254 260 267 277 265 264
162 295 315 334 408 358 326 304 294 284 272 273 272 277 272 272 275 274 270 274 299 304 305 301 297 289 279 276 268 268 270 273 266 261 266 253 249 246 243 242 251 246 251 266

GFSCGP_2pvu_pres_090.txt.gz
Presure
322 328 330 319 287 281 279 280 284 284 283 248 253 216 203 210 207 221 197 197 182 184 186 186 205 192 190 180 181 170 169 169 143 149 146 148 127 127 176 176 170 180 178 161
335 328 333 325 287 286 282 276 277 284 291 290 267 236 214 206 185 165 162 180 192 185 190 191 156 207 196 192 178 184 173 159 161 161 158 175 190 163 177 167 183 181 185 186
337 337 333 327 328 273 274 271 271 276 272 275 283 272 234 223 200 164 189 189 166 188 193 187 198 202 203 205 190 186 194 182 165 168 166 147 145 153 154 174 173 164 183 182
340 342 332 319 314 358 270 270 269 271 267 276 281 282 294 222 226 202 170 168 169 171 193 193 190 203 160 170 219 182 192 184 180 175 133 156 167 157 153 157 153 152 161 174
334 336 328 322 298 329 281 271 268 269 271 302 298 294 268 264 226 198 213 260 174 171 174 200 206 184 202 195 169 220 205 181 177 186 184 174 168 167 175 177 169 165 163 169
327 313 322 331 311 289 308 286 264 284 279 298 337 300 293 283 230 232 218 262 178 182 179 180 179 201 186 176 166 155 187 212 198 189 189 192 182 172 169 168 166 167 168 169
349 320 308 312 355 339 287 284 301 270 272 275 320 355 287 275 259 240 207 225 191 198 186 184 177 150 207 157 193 191 212 186 183 210 200 191 187 181 179 172 177 178 177 178
355 337 318 301 315 321 323 323 316 289 271 258 310 337 322 278 276 256 242 204 210 186 196 200 192 177 188 167 180 201 102 167 196 194 219 210 192 191 188 184 186 185 178 173
363 340 323 313 298 309 315 290 322 293 313 274 277 290 332 299 275 274 256 238 222 211 208 200 204 192 178 198 186 176 218 214 173 171 180 181 154 205 194 189 188 183 180 183
371 344 326 318 313 299 297 304 315 323 317 279 269 271 298 308 280 278 273 264 261 232 232 234 218 208 195 187 204 204 178 197 172 168 166 181 183 187 159 157 205 193 182 188
391 364 329 318 310 302 296 292 310 315 307 314 274 282 289 312 287 282 278 272 265 259 251 244 238 219 215 204 196 208 205 208 237 173 174 161 163 181 220 225 199 204 208 175
404 147 301 325 311 310 298 295 292 302 322 323 319 280 263 257 307 305 279 279 271 267 260 255 252 242 230 216 209 196 222 217 193 214 218 179 174 175 171 169 162 163 154 152
364 380 351 200 315 306 313 293 289 302 293 315 310 313 292 263 263 276 292 280 279 271 267 261 255 248 243 228 219 213 226 219 223 249 242 235 199 185 181 180 182 183 184 183
363 406 200 172 308 306 315 303 297 294 294 295 310 298 319 303 277 259 270 273 276 277 274 267 260 250 243 244 234 224 220 215 215 216 221 228 202 222 207 197 193 191 191 191
302 393 379 152 159 262 302 296 289 287 285 285 286 291 305 281 285 280 256 285 267 262 266 270 273 273 266 251 241 240 236 230 225 223 223 221 221 218 235 219 211 203 202 201
472 385 139 149 156 310 303 296 291 287 283 284 279 282 273 288 286 282 266 275 257 258 271 279 270 270 273 271 269 271 263 237 236 236 230 227 226 226 221 236 221 218 219 220
464 411 354 284 142 178 149 301 297 292 290 281 280 278 279 275 278 276 274 270 266 265 257 261 266 268 267 271 292 269 271 266 262 260 252 244 240 209 234 230 229 227 227 226
374 436 359 342 204 252 317 236 295 289 293 291 286 274 282 284 279 273 270 267 274 272 273 278 278 271 260 268 264 254 266 271 285 273 269 264 260 260 259 256 253 252 252 252
356 434 357 348 342 146 164 181 301 289 287 293 286 296 285 280 277 281 275 275 273 267 267 269 268 263 260 255 258 272 271 268 258 252 258 256 254 254 253 252 250 253 254 255
289 433 362 353 347 275 148 314 312 300 289 291 292 290 289 285 290 289 284 278 273 272 275 273 274 274 280 281 270 273 262 262 262 293 282 292 290 294 320 328 332 343 337 329
262 393 398 360 222 343 370 315 314 298 290 302 324 307 290 294 299 296 289 285 290 293 292 286 280 287 280 281 281 300 295 284 268 275 290 309 290 298 313 308 304 315 322 327
181 299 413 423 368 359 354 326 315 299 293 284 305 311 320 329 333 314 283 285 285 285 279 289 308 309 275 271 278 271 261 264 284 294 285 284 283 281 287 291 299 297 296 299
180 287 426 386 363 353 174 372 320 299 293 292 294 292 299 302 307 309 307 307 301 299 297 291 302 299 293 293 291 295 304 301 295 293 278 283 275 272 275 272 283 279 283 287
180 276 141 423 348 122 356 333 335 302 292 286 287 284 285 284 291 287 289 290 283 280 279 276 279 286 285 284 285 283 278 277 277 279 266 266 259 261 258 261 264 273 275 272
234 136 134 136 227 384 339 284 360 311 296 294 288 288 231 287 283 280 274 275 277 280 282 282 281 280 279 277 273 267 269 266 257 250 258 254 250 258 254 250 257 256 261 264
226 127 162 345 357 369 397 259 335 328 302 292 281 286 288 278 278 284 289 292 293 295 295 288 291 294 292 289 283 281 279 276 266 263 260 262 263 258 262 255 250 249 243 248

GFSCGP_2pvu_pres_093.txt.gz
Presure
336 337 328 319 314 301 282 282 277 283 280 252 251 258 172 217 187 197 206 196 187 186 181 178 173 180 222 192 195 181 190 171 154 130 169 176 152 153 157 172 128 168 163 168
326 347 345 314 336 317 293 290 227 278 281 264 258 261 261 206 170 176 188 208 143 189 188 188 178 177 179 206 157 199 194 175 173 173 172 176 147 142 142 158 154 157 164 163
342 335 342 349 326 316 278 281 287 298 284 276 280 271 264 251 186 161 168 184 185 186 193 168 195 189 179 180 191 172 191 193 186 181 177 170 164 166 161 174 151 145 162 150
326 321 335 337 342 303 273 277 290 283 287 304 299 285 274 275 238 173 160 171 186 176 182 185 162 197 183 183 182 185 201 193 188 186 186 180 180 178 166 151 158 162 159 158
194 314 309 326 336 341 281 274 282 289 297 296 294 309 277 283 285 269 166 182 186 187 184 179 193 190 189 186 182 183 190 191 205 202 175 180 189 180 166 181 167 155 158 160
279 353 324 326 332 327 339 274 286 276 274 294 293 293 288 297 282 289 283 200 188 190 193 182 186 171 190 186 180 180 186 190 194 174 202 256 182 181 188 182 176 171 173 172
380 375 339 324 320 324 319 330 265 264 283 291 281 290 276 239 264 288 283 271 227 208 198 195 173 201 163 169 183 188 188 189 188 194 191 184 201 197 182 179 181 181 180 176
350 379 361 334 318 318 313 306 313 268 275 269 257 271 265 246 274 275 281 279 269 266 222 209 197 186 168 211 181 202 183 191 190 184 188 174 159 168 175 203 142 143 182 174
332 382 362 347 323 309 319 338 335 349 309 303 272 258 257 256 268 266 269 286 287 281 266 248 206 200 204 173 170 171 173 174 187 199 202 180 179 199 207 160 167 201 198 199
328 385 363 265 340 318 302 320 326 338 334 318 300 262 256 261 271 278 298 358 291 281 265 259 249 202 203 210 220 219 179 178 173 172 189 203 211 190 191 169 196 193 182 189
338 392 380 280 257 322 310 296 312 302 302 320 299 305 269 258 262 272 305 329 316 311 283 268 259 246 214 211 209 197 180 181 182 178 175 177 198 192 182 194 205 181 169 171
303 443 389 377 340 318 309 309 296 318 311 304 328 311 304 311 258 255 259 325 316 294 278 276 266 257 246 233 207 219 182 185 195 196 191 185 182 187 210 172 186 205 170 171
293 376 414 389 180 171 314 304 303 301 296 314 290 318 313 290 282 274 261 264 286 328 292 275 271 263 254 247 244 213 205 199 193 194 196 198 198 193 190 194 212 188 178 239
229 408 376 371 286 155 173 247 301 294 299 293 298 316 316 308 302 282 290 258 281 278 300 284 274 269 267 260 257 258 254 245 245 217 219 208 204 208 204 197 197 215 215 203
168 368 383 365 126 233 152 313 305 302 292 289 291 287 297 322 318 332 319 267 280 264 291 313 288 277 271 266 266 268 262 254 249 243 237 230 225 220 216 216 215 209 205 216
275 316 425 372 375 152 169 170 149 160 311 299 283 290 287 292 313 308 304 323 292 269 261 254 272 291 279 281 283 277 267 266 260 252 246 240 236 231 227 226 225 222 224 220
196 174 456 372 358 354 333 147 306 154 311 304 297 287 280 285 292 295 301 301 301 292 281 260 259 272 268 265 268 273 277 276 272 263 257 249 240 233 234 233 231 232 232 231
211 225 345 361 354 339 346 141 251 155 296 302 295 287 283 287 285 289 285 299 292 286 282 283 273 265 257 261 261 263 266 273 274 275 267 267 265 263 261 260 256 253 250 248
187 149 284 307 350 336 340 170 325 314 305 296 287 278 284 285 282 279 282 280 280 282 284 281 278 269 268 267 269 268 254 254 255 264 276 266 260 270 267 261 260 258 259 259
109 175 286 369 373 356 139 152 336 333 310 303 295 289 279 282 278 283 284 280 280 279 274 274 273 271 272 269 264 264 263 261 260 259 259 259 255 251 253 275 282 292 296 324
151 233 218 324 363 364 350 227 361 149 330 310 303 293 289 294 292 282 280 279 283 281 281 281 277 277 279 278 275 268 271 269 272 266 271 274 275 279 289 285 280 282 290 298
242 252 194 286 401 373 139 344 133 330 349 322 305 293 289 283 282 287 288 289 292 291 282 277 284 279 277 277 284 282 290 289 285 282 284 294 288 282 280 277 291 282 278 288
165 206 267 249 403 433 417 137 327 351 335 317 310 301 292 290 296 317 319 302 290 287 284 284 280 285 280 279 314 328 320 301 288 266 264 260 264 265 268 298 287 285 279 267
134 252 200 275 376 132 309 197 383 349 350 324 298 296 292 284 290 299 314 311 312 312 311 306 300 300 300 291 294 301 303 299 293 290 294 292 294 294 291 291 280 280 271 268
188 218 239 144 283 131 124 145 363 271 336 341 301 292 287 287 284 287 293 297 294 288 287 282 282 281 278 276 276 280 282 280 284 287 282 277 280 276 277 274 272 262 264 257
199 175 170 259 162 132 125 148 366 369 275 336 311 295 286 285 284 282 283 277 284 284 284 278 271 273 276 280 281 281 278 276 275 274 275 271 270 270 267 260 255 256 259 258

GFSCGP_2pvu_pres_096.txt.gz
Presure
341 340 320 421 355 310 289 287 301 286 274 253 256 235 231 245 188 183 191 191 176 172 187 173 170 171 168 173 176 224 217 172 211 187 167 154 151 137 158 170 164 171 158 152
364 342 239 293 358 367 309 298 291 291 283 277 267 266 250 234 234 235 201 202 188 175 187 182 182 177 168 170 160 198 179 214 182 192 197 186 168 163 166 156 129 167 176 165
310 333 349 350 326 353 314 291 306 294 232 289 279 267 269 245 237 196 182 201 206 185 173 185 188 178 176 174 170 163 184 182 181 183 154 202 199 184 171 168 75 167 160 160
369 351 334 340 292 347 297 292 286 286 297 296 293 274 270 267 255 258 211 236 143 211 191 183 187 190 171 174 166 172 166 172 173 180 185 181 142 187 182 179 165 164 163 160
318 354 344 335 338 307 294 294 282 284 286 285 287 305 287 273 269 254 260 288 239 186 202 191 194 202 192 174 176 177 173 173 169 170 168 177 174 219 187 208 210 183 170 171
317 344 357 340 333 336 331 303 301 283 283 283 285 304 292 299 300 268 254 259 244 240 196 172 187 195 198 186 182 183 176 179 173 166 173 172 169 176 204 180 170 183 172 177
294 408 385 354 330 327 307 316 338 278 281 295 281 288 280 299 309 282 277 268 248 189 188 185 154 174 183 191 192 188 190 184 181 188 185 172 170 175 177 204 201 193 206 205
284 325 404 376 342 326 327 327 288 279 292 285 280 275 274 278 284 286 286 278 273 262 237 162 167 173 164 180 180 178 180 182 186 194 188 185 184 173 172 174 178 195 168 195
213 336 387 383 196 331 322 324 330 349 275 274 291 298 284 263 301 283 282 290 317 313 260 264 197 182 181 173 186 193 182 180 183 185 182 192 190 193 189 187 175 177 181 181
249 315 395 389 239 227 325 304 322 325 310 293 277 271 273 265 278 283 274 276 281 282 273 253 191 167 197 189 189 192 197 194 186 192 195 163 163 166 193 186 186 190 188 183
268 317 363 398 371 345 329 315 301 312 315 335 295 284 273 268 269 282 274 278 281 277 271 274 248 253 284 269 188 184 188 196 199 197 195 198 200 164 169 164 169 185 190 193
145 153 437 439 387 361 324 324 310 301 327 316 334 296 346 286 277 269 271 274 282 272 271 265 264 268 270 277 256 269 262 217 205 200 199 203 204 201 168 170 172 171 171 173
206 294 416 412 392 382 171 159 296 305 291 322 307 324 327 323 322 298 271 273 274 273 273 269 263 268 259 310 318 267 256 255 259 214 197 199 202 205 208 175 233 174 178 176
123 204 393 416 378 388 212 155 235 235 305 281 306 310 311 313 316 311 312 316 320 297 271 270 265 269 278 290 302 316 284 275 262 260 256 221 196 203 205 204 185 177 196 187
133 229 336 353 372 363 341 156 143 144 149 300 283 299 306 306 305 323 292 293 312 281 274 265 259 260 258 308 293 291 255 277 271 266 261 257 250 245 202 198 195 197 199 193
133 135 178 176 388 352 370 329 330 142 150 158 296 299 281 290 317 297 319 316 312 302 286 275 264 257 252 251 322 291 282 275 272 269 269 264 261 262 258 254 251 246 233 233
182 121 138 116 394 379 357 353 334 237 307 143 222 287 284 291 294 290 295 324 323 319 314 320 312 268 282 253 296 307 292 276 273 273 275 273 271 267 268 267 263 254 245 240
171 168 186 302 142 374 374 364 343 246 320 321 306 297 296 290 288 293 296 295 314 323 321 316 303 327 280 259 261 257 277 283 283 281 286 279 277 275 273 270 264 256 253 250
132 243 276 156 292 301 385 370 361 146 310 313 311 301 298 298 292 288 285 286 302 303 308 305 311 298 307 314 274 270 273 253 266 269 273 272 270 266 265 274 273 270 266 264
172 190 118 118 143 301 395 363 373 142 330 134 233 258 308 304 291 287 285 287 283 285 288 292 297 286 284 296 287 282 272 270 271 272 268 271 273 260 262 253 250 253 278 283
141 247 203 225 269 277 377 369 345 187 150 163 332 306 299 299 288 286 282 278 277 281 281 285 282 281 284 279 276 275 278 274 269 267 259 259 260 264 261 262 261 256 269 266
181 217 180 244 224 275 386 366 367 216 259 329 326 332 311 296 291 285 283 280 275 272 271 273 276 277 276 277 276 276 274 270 264 267 273 275 272 273 272 274 272 270 268 281
190 135 245 139 254 284 323 397 277 128 151 174 324 335 315 323 296 290 290 284 281 281 276 272 270 278 276 272 270 269 266 267 270 273 274 285 287 282 285 285 285 288 290 286
177 220 131 233 244 165 343 376 371 139 126 375 329 331 334 316 305 291 295 286 288 286 285 285 283 283 281 284 284 284 283 283 284 327 324 325 326 292 283 283 284 286 276 281
163 237 174 245 254 189 130 342 360 132 124 287 349 336 327 320 305 297 293 291 286 287 319 321 322 322 315 311 311 300 301 300 298 293 291 294 294 292 290 286 289 291 288 282
161 219 166 237 222 228 182 355 223 347 142 286 230 347 294 306 297 296 289 285 283 294 298 286 294 293 286 281 280 278 277 276 274 274 273 274 274 275 277 276 283 275 274 266

GFSCGP_2pvu_pres_099.txt.gz
Presure
304 315 308 298 283 309 280 274 264 275 286 285 275 268 224 276 219 230 215 222 188 175 169 169 163 163 157 149 162 150 165 176 165 206 205 189 201 103 123 155 162 161 165 163
395 361 334 254 282 282 324 304 281 269 267 312 277 260 256 232 257 204 225 211 153 181 175 167 168 171 165 162 154 150 144 163 169 162 175 179 204 187 167 177 177 170 154 150
409 329 330 333 289 291 283 290 278 284 272 270 271 276 266 245 300 227 242 225 220 183 196 170 113 172 176 161 165 162 163 164 164 160 167 173 182 184 185 167 167 173 187 179
262 388 378 353 378 293 297 293 280 277 290 299 294 293 273 276 244 250 201 235 206 211 200 179 163 162 148 163 159 168 170 164 172 174 166 187 165 181 185 220 172 168 159 185
167 262 376 372 323 342 303 286 288 295 286 281 273 296 270 283 227 232 244 240 243 208 157 211 172 174 167 163 169 176 179 162 157 159 169 165 171 161 161 187 184 173 170 175
269 243 337 373 361 322 339 303 292 288 285 279 281 280 271 296 285 266 219 226 235 233 199 168 210 196 169 173 173 167 167 173 176 165 164 170 169 171 168 170 169 162 163 183
270 280 255 388 377 352 322 361 302 296 295 293 288 286 290 286 280 277 300 269 245 212 218 199 169 204 190 156 184 179 176 174 177 176 172 164 159 161 164 169 170 168 169 168
225 312 334 369 391 164 333 313 355 307 295 292 275 286 248 275 287 284 273 275 277 266 250 217 229 250 238 187 212 202 192 177 173 176 173 179 171 168 168 166 167 165 160 161
149 242 268 332 386 378 345 326 308 346 303 302 290 300 298 294 292 289 283 277 267 265 275 251 219 211 238 223 170 203 204 202 194 182 181 187 170 171 171 171 165 176 174 169
219 237 230 225 404 394 358 334 310 304 314 328 300 291 276 270 273 270 282 278 278 285 284 282 285 247 226 229 205 226 209 197 199 191 175 198 203 204 171 162 170 173 172 184
193 180 285 360 431 395 377 341 324 315 308 307 313 295 290 280 273 272 272 281 297 298 290 290 304 307 287 248 222 225 206 214 200 192 172 177 187 204 202 200 165 190 188 184
151 150 132 510 441 388 385 350 329 313 310 310 307 309 284 279 274 283 281 267 272 278 271 270 276 284 291 281 281 244 242 226 222 171 161 197 195 184 178 196 192 192 192 189
144 184 139 137 423 380 387 360 326 162 165 304 319 303 278 316 281 277 292 274 275 274 276 278 274 273 278 278 280 281 266 260 212 197 193 189 173 187 185 182 181 179 183 190
164 191 132 142 139 402 391 375 351 183 143 143 227 304 305 309 331 286 276 273 269 288 269 265 269 269 274 289 280 279 276 265 266 267 257 236 209 213 212 211 183 182 183 181
149 173 127 158 127 398 380 393 361 335 155 144 222 190 298 295 317 329 290 274 273 274 275 269 278 275 270 268 268 270 286 253 252 252 251 251 252 259 264 269 272 274 272 266
143 185 210 136 262 260 343 396 374 332 329 282 143 297 147 297 313 317 308 339 300 290 279 280 279 283 279 281 283 287 271 272 286 279 270 282 242 324 302 294 294 294 277 271
132 165 202 133 212 237 202 314 356 347 329 341 314 302 258 208 280 301 310 310 316 310 328 332 324 323 320 321 328 327 265 262 260 259 262 276 294 299 297 293 286 238 275 273
130 184 196 125 207 139 373 143 376 347 334 332 134 308 302 305 303 290 285 298 310 309 309 317 326 302 296 266 298 303 298 270 292 256 249 249 253 271 286 281 276 272 266 268
155 173 164 240 195 151 161 376 311 376 339 175 143 321 134 303 281 242 301 291 283 290 300 306 317 333 336 323 321 310 298 292 283 281 274 297 260 289 282 282 285 289 280 274
122 155 210 205 181 212 164 384 383 166 376 332 143 139 159 310 296 290 293 295 288 293 286 284 293 292 312 319 326 327 326 325 308 294 279 271 266 265 258 255 253 268 261 280
137 175 172 166 125 259 288 222 140 273 153 329 137 223 246 308 309 298 293 293 294 289 285 283 279 290 295 305 300 312 298 290 307 309 300 294 278 272 269 264 265 274 270 265
143 166 189 224 227 249 152 132 140 388 367 346 204 127 201 302 296 305 301 293 293 287 281 278 278 279 280 280 290 296 288 290 295 288 281 276 274 272 271 263 266 267 261 262
144 148 140 177 220 174 272 250 403 358 378 355 336 132 125 133 297 297 291 292 294 283 281 274 268 275 277 282 282 282 281 279 278 277 273 266 263 264 268 271 266 272 278 274
131 158 153 162 177 203 167 159 407 400 350 339 363 341 126 129 315 316 318 286 288 288 275 273 270 270 270 266 271 271 269 266 268 271 269 269 270 267 268 276 285 290 295 287
151 126 139 169 210 223 134 275 267 295 380 345 335 322 364 215 323 323 308 309 298 288 285 283 269 270 270 271 275 277 278 283 282 281 284 286 287 281 285 319 322 322 319 314
182 181 166 164 222 208 253 248 272 292 376 355 348 323 328 360 337 299 330 310 301 301 291 287 291 287 284 283 285 315 314 309 296 299 300 301 300 296 291 289 288 288 288 287

GFSCGP_2pvu_pres_102.txt.gz
Presure
319 289 313 309 287 283 276 293 262 252 250 269 281 295 285 256 277 233 209 158 184 234 158 199 178 164 153 158 148 147 168 144 145 171 175 148 212 126 174 184 178 179 180 170
342 248 299 317 306 288 276 275 288 258 273 300 265 279 277 290 287 254 189 159 164 202 215 160 177 163 143 148 157 146 134 127 153 161 175 172 131 149 210 206 204 158 179 182
302 312 328 302 303 270 275 220 276 263 271 272 276 273 289 301 278 247 240 207 166 206 194 169 186 174 130 168 164 161 157 168 149 164 177 212 184 177 133 197 165 165 199 170
237 275 339 317 311 296 298 289 284 268 267 262 259 262 307 279 287 197 250 188 175 169 192 187 194 186 177 174 156 160 160 149 187 151 150 151 173 163 162 138 170 165 167 160
242 261 290 350 321 301 304 284 289 236 265 274 271 305 283 303 273 303 209 242 243 196 204 198 191 186 180 181 173 169 168 167 167 186 161 169 152 166 165 171 164 146 169 168
143 261 276 324 367 327 309 296 295 291 278 278 274 266 278 294 298 268 299 257 244 243 185 186 197 193 186 181 180 163 176 175 160 161 163 168 163 158 160 160 157 162 151 158
162 172 273 251 325 378 327 309 301 290 280 275 272 273 289 275 273 289 301 260 260 249 243 235 190 197 192 186 190 181 150 159 169 171 160 151 166 160 151 164 164 171 166 164
150 143 259 149 396 382 352 317 170 304 291 289 273 274 272 251 275 270 278 273 291 206 251 252 184 228 186 198 188 182 211 178 170 167 167 169 166 144 165 138 160 158 177 160
152 196 143 302 323 391 418 361 358 185 302 302 285 276 271 268 261 262 268 273 277 259 266 230 247 246 240 232 206 185 185 181 186 182 174 165 168 175 155 160 170 170 169 171
148 157 222 165 346 146 395 396 331 350 339 312 297 287 271 277 275 269 269 284 283 281 279 264 234 235 242 249 181 205 169 192 185 185 172 161 174 170 173 177 176 177 159 182
152 172 138 135 147 143 148 389 369 324 343 307 299 311 291 279 274 270 263 265 274 273 280 279 273 222 223 227 230 234 226 184 186 153 161 149 172 160 159 154 174 179 178 171
184 150 168 158 257 154 449 152 383 273 320 327 303 286 296 290 277 280 274 268 259 264 267 269 276 297 289 215 218 230 214 211 218 221 225 229 226 223 183 160 154 190 143 182
164 158 165 148 204 361 363 341 383 360 346 152 301 280 331 282 288 279 293 277 275 276 273 270 274 271 270 271 274 280 231 221 214 216 210 217 228 226 235 226 218 163 146 150
143 173 148 148 178 300 311 415 383 371 353 338 229 144 151 272 302 284 281 278 276 275 277 284 288 285 286 287 285 289 287 290 282 239 231 218 218 222 200 250 259 258 245 234
161 172 137 150 281 324 110 124 155 376 362 353 346 282 144 299 243 315 319 289 289 284 278 269 272 279 280 276 270 288 291 281 281 285 274 248 237 232 231 233 237 238 234 220
179 151 151 126 110 275 134 207 143 236 385 364 346 329 138 261 227 151 319 340 294 277 276 281 275 263 261 267 292 270 281 281 283 282 283 284 301 285 266 275 273 274 275 227
141 140 144 148 243 170 334 172 184 142 391 370 362 323 325 172 254 272 294 286 309 290 283 284 271 267 264 264 270 261 260 265 271 276 289 281 273 256 257 260 279 266 252 252
144 141 172 197 155 125 224 282 193 386 257 354 296 329 326 141 238 135 206 296 203 228 303 280 292 308 289 259 275 274 276 275 276 280 275 282 254 251 265 254 265 261 267 258
184 155 156 186 183 128 264 301 142 244 136 345 171 330 332 268 150 254 304 287 288 287 306 306 309 315 319 309 302 289 278 277 281 331 282 293 293 274 268 255 265 249 259 261
195 180 111 147 212 162 264 168 289 160 380 170 346 327 318 317 308 138 320 304 296 288 286 282 288 292 307 312 313 315 318 287 256 270 295 258 266 269 280 306 298 289 254 261
180 161 159 215 177 180 226 281 161 284 239 237 365 254 335 318 133 284 290 306 290 292 308 290 289 278 278 198 289 295 303 322 333 333 322 303 295 296 289 288 255 279 280 274
172 155 143 154 156 169 140 233 289 207 401 392 343 352 140 322 131 131 134 135 143 294 287 295 305 290 279 214 291 289 280 291 314 307 308 312 310 317 315 315 308 300 302 278
181 146 143 153 138 158 191 150 195 297 294 355 388 227 344 345 225 315 129 290 283 294 293 287 287 290 288 280 206 284 255 285 296 285 282 295 294 296 297 288 289 282 276 274
148 160 183 122 148 201 159 156 142 189 223 252 401 348 355 335 337 158 311 300 289 294 277 287 285 278 276 277 276 274 196 278 275 274 280 285 281 275 271 271 276 273 268 266
192 136 134 123 188 130 157 143 249 204 194 284 412 376 340 369 332 310 329 320 308 297 290 294 277 284 277 274 266 267 266 237 225 265 267 268 268 268 270 271 272 272 271 271
162 140 160 127 152 165 191 161 219 254 225 262 374 394 355 331 331 345 341 328 319 320 324 310 289 279 285 267 269 266 268 264 258 260 263 264 259 263 268 266 269 276 282 279

GFSCGP_2pvu_pres_105.txt.gz
Presure
153 305 293 308 301 319 316 291 275 266 261 284 275 272 307 318 270 231 214 205 194 218 209 187 181 213 159 159 166 158 162 158 154 151 152 159 179 176 152 199 168 167 169 139
153 270 300 301 299 278 277 295 282 297 277 282 287 264 309 316 276 239 225 218 204 190 217 175 157 175 171 167 170 203 154 160 155 158 152 136 124 181 176 163 181 177 175 128
144 241 270 306 302 274 284 261 286 270 262 265 286 320 273 299 267 264 230 216 206 203 194 213 163 159 150 174 166 175 179 173 159 160 158 151 125 149 181 174 170 202 168 176
149 149 253 270 317 294 293 271 260 289 266 272 268 257 248 329 251 266 257 228 208 211 209 185 184 188 155 183 175 177 158 190 198 193 170 158 162 195 146 203 185 171 157 163
174 148 237 284 337 329 297 294 283 268 281 268 269 265 264 317 305 208 255 237 217 207 218 202 193 185 166 228 157 177 147 198 170 174 180 156 166 156 165 159 156 164 154 144
175 181 143 156 373 343 320 294 281 274 269 271 272 268 268 304 286 281 273 255 207 217 197 205 199 195 158 182 189 164 171 172 169 196 167 191 165 163 169 159 167 168 166 194
171 154 140 149 240 149 266 305 289 274 275 266 271 269 259 268 287 279 294 283 241 237 229 207 209 198 187 171 179 186 203 154 154 176 198 172 171 167 168 180 173 174 203 168
160 170 139 142 147 147 153 351 322 290 281 274 264 266 272 268 260 256 319 302 270 227 231 228 211 180 186 177 158 161 186 184 175 170 173 175 163 185 166 177 165 155 174 177
164 158 162 141 183 146 198 173 348 324 297 280 271 258 268 267 264 266 306 303 297 252 238 234 230 214 206 189 181 195 180 181 209 219 177 178 217 206 192 171 149 159 166 175
174 154 158 213 138 135 156 322 354 385 320 309 278 268 257 263 268 261 279 278 288 297 267 217 217 224 221 214 209 199 198 188 188 173 176 178 181 184 178 176 157 141 188 135
146 154 179 178 156 220 188 459 392 150 356 315 306 280 267 259 264 270 263 240 262 270 282 275 249 233 206 223 178 159 179 196 179 181 176 181 179 178 183 177 178 174 174 140
152 145 135 173 130 260 146 440 418 388 369 352 336 295 294 279 265 263 270 254 257 260 297 292 165 272 241 229 224 209 213 213 208 189 185 183 181 181 178 168 176 154 178 174
179 165 158 166 136 158 212 206 356 144 151 388 345 333 260 282 274 263 267 273 261 262 266 263 217 275 285 262 253 230 224 218 217 216 212 163 185 177 180 177 188 191 167 152
146 152 153 177 146 153 178 151 462 207 149 348 376 347 327 138 151 220 267 270 269 266 267 257 258 266 281 270 277 225 218 246 235 228 233 231 220 168 189 207 199 198 194 197
136 169 192 156 142 165 216 389 416 371 178 351 351 387 337 313 140 145 192 284 268 266 259 258 262 273 283 289 291 279 254 250 243 228 223 237 233 233 215 232 229 230 183 206
181 212 166 146 145 159 144 147 136 245 395 371 373 349 370 329 317 322 139 151 285 262 270 271 265 258 266 259 258 286 286 294 281 259 251 229 230 226 228 232 236 233 233 234
176 193 169 153 164 150 248 145 274 183 212 283 159 255 352 310 323 308 194 301 139 178 190 203 245 258 263 255 261 259 259 260 265 271 272 282 289 235 237 226 221 216 216 218
190 185 186 158 212 162 193 143 160 130 402 169 256 390 362 355 342 309 231 196 307 209 288 284 291 272 264 262 266 278 261 270 278 280 281 288 292 268 278 265 279 266 266 267
198 189 200 152 139 149 173 120 169 285 142 182 234 339 356 347 344 336 325 302 273 281 294 280 309 326 292 279 276 275 278 275 279 272 276 276 274 267 251 251 269 271 254 275
197 194 173 152 135 153 197 176 193 155 157 140 375 351 136 342 319 321 332 274 204 304 295 287 298 292 294 319 318 328 325 296 286 270 268 265 283 266 271 250 246 247 252 250
197 161 188 141 152 155 161 126 177 209 245 313 151 147 363 137 299 327 315 313 246 314 187 153 132 287 291 289 294 310 308 308 284 207 295 313 307 308 314 283 290 269 269 283
164 175 192 157 140 159 153 164 179 273 142 147 147 171 129 312 346 271 211 309 308 132 132 132 303 298 295 291 293 291 290 294 301 311 318 295 313 309 307 307 318 271 269 290
154 175 161 178 144 158 141 141 130 244 278 147 146 418 414 384 363 349 327 313 128 145 123 288 132 288 298 294 295 291 289 289 282 274 282 287 289 291 305 326 329 328 326 318
161 174 189 143 165 137 154 166 188 163 141 142 250 236 411 419 362 352 352 347 314 299 178 301 295 287 286 291 293 292 292 295 284 280 279 279 277 276 297 288 290 298 294 291
183 164 153 214 141 130 156 138 192 206 230 222 164 277 329 392 360 348 354 345 344 325 220 300 289 291 291 289 285 285 279 280 276 276 277 279 283 280 278 274 272 274 275 276
180 161 163 150 129 160 166 114 148 238 186 210 231 236 308 433 388 347 343 359 337 339 341 323 302 302 289 287 274 278 276 279 270 268 267 267 269 266 265 270 271 273 271 269

GFSCGP_2pvu_pres_108.txt.gz
Presure
154 167 166 331 291 342 303 292 291 279 264 268 306 281 302 302 310 273 279 180 143 141 136 135 136 135 142 143 149 150 168 149 158 197 125 153 154 160 161 190 142 119 153 158
154 160 170 310 305 294 296 297 295 284 270 279 286 293 270 323 307 272 280 252 226 179 146 157 147 151 147 143 141 151 174 151 172 174 189 162 154 157 164 164 121 151 136 171
166 150 231 276 308 301 295 279 279 307 282 282 287 265 329 319 306 274 265 263 229 202 175 166 164 175 159 155 159 176 156 154 166 151 156 166 136 164 162 133 135 170 138 157
154 150 157 162 268 312 302 282 307 278 282 290 286 274 262 334 290 279 263 256 217 229 214 214 202 193 192 176 167 176 160 171 173 186 171 155 152 157 148 154 163 153 168 143
189 149 139 182 165 149 160 295 284 297 267 298 301 284 287 273 301 243 244 228 247 239 215 217 200 213 192 187 188 167 181 167 165 162 172 180 167 157 157 160 166 140 120 157
184 164 165 155 149 151 159 164 288 291 275 271 282 280 272 286 289 260 228 224 219 221 230 221 201 255 208 188 190 191 183 170 167 186 151 182 146 174 174 187 160 166 173 177
182 156 141 137 142 308 182 155 311 299 284 275 264 269 281 274 296 274 242 238 233 224 216 221 219 231 209 231 199 201 200 185 161 158 163 150 154 160 166 159 169 173 193 192
172 174 152 142 228 372 139 148 185 307 301 284 276 262 280 269 287 300 232 230 219 219 222 215 231 227 208 195 206 240 201 170 183 194 162 163 174 186 168 158 174 192 152 161
161 185 173 169 158 142 165 146 262 295 194 298 285 268 260 272 272 311 234 222 218 219 227 211 209 206 228 219 191 233 208 206 192 183 184 138 185 139 182 172 173 188 173 176
163 174 171 129 137 218 300 330 227 266 366 315 302 278 272 269 285 277 314 231 221 219 217 214 213 214 193 207 211 203 213 185 184 178 184 156 168 159 170 138 185 174 168 153
158 137 168 178 171 160 140 165 162 231 358 330 300 283 287 274 272 279 284 304 233 215 220 220 214 216 215 214 206 188 206 202 202 190 186 155 166 156 157 167 176 166 173 210
185 137 135 185 214 162 148 177 146 401 376 158 241 288 278 281 277 272 267 284 319 237 228 225 223 223 175 208 213 205 201 208 204 208 203 190 186 165 164 195 199 176 164 164
147 175 163 124 162 141 195 166 142 299 396 378 285 311 289 280 204 269 270 260 282 292 260 230 188 217 218 207 214 199 202 197 213 202 211 209 190 171 190 164 162 179 171 162
147 164 157 147 174 189 176 164 146 157 284 249 384 352 309 286 276 212 275 274 269 278 270 295 256 238 224 222 207 217 186 206 212 204 185 204 194 193 194 191 186 181 178 169
180 151 170 137 189 120 187 150 370 182 319 151 379 164 156 322 291 281 252 144 178 277 279 281 292 279 250 250 239 230 200 219 217 200 170 192 201 201 190 189 191 192 193 157
193 192 189 199 223 181 249 145 152 122 411 339 134 313 374 384 354 186 290 282 212 144 141 278 267 266 286 280 252 248 244 228 228 228 214 215 210 213 213 203 201 191 200 199
195 208 170 172 164 200 169 160 162 258 189 446 155 122 357 355 361 361 349 313 302 279 200 208 178 139 169 162 255 286 267 247 238 240 228 223 224 218 190 216 214 206 202 213
198 188 181 201 113 185 227 176 142 146 215 208 280 220 226 232 353 362 364 337 335 318 293 133 154 197 263 264 220 266 195 282 280 257 235 227 219 221 214 203 203 205 209 205
197 195 189 181 186 155 139 173 208 208 152 138 138 353 129 128 360 187 352 357 342 329 327 290 127 270 261 260 270 275 283 263 263 273 275 270 249 237 231 211 214 217 222 224
193 139 180 174 194 161 156 147 136 165 115 140 150 163 136 137 278 336 334 355 339 345 318 316 133 259 275 261 272 264 262 275 255 261 263 265 277 273 271 250 231 253 249 250
196 198 185 198 181 186 147 133 148 135 243 257 197 183 311 387 213 236 344 341 341 328 329 331 327 206 243 162 221 291 284 273 261 259 255 259 264 266 263 262 269 273 271 288
189 190 169 179 178 164 180 159 158 129 131 159 187 147 145 308 251 373 353 336 324 322 328 326 330 317 132 128 129 300 305 318 294 278 279 285 290 274 273 274 270 281 242 290
188 180 165 178 192 152 153 146 132 220 132 129 276 145 258 337 257 403 365 352 334 298 320 311 314 306 127 121 141 302 303 295 286 290 296 288 295 323 324 312 310 311 309 312
186 192 185 178 188 151 148 224 131 247 220 118 189 267 126 142 148 399 377 391 384 337 321 308 305 302 312 310 308 303 305 299 294 292 285 296 299 299 297 297 302 307 308 313
183 162 194 169 185 195 189 148 151 149 132 242 237 176 175 239 278 308 394 361 378 372 352 323 311 301 304 293 286 292 296 295 295 290 290 286 286 280 281 288 287 286 268 280
184 189 182 184 158 141 149 141 154 171 129 237 131 122 159 225 255 234 315 376 359 360 367 359 341 317 306 298 295 304 295 288 285 290 298 283 283 285 280 277 277 281 277 270

GFSCGP_2pvu_pres_111.txt.gz
Presure
160 166 162 193 133 302 302 291 309 298 289 300 305 305 304 324 315 148 153 144 148 143 156 158 143 152 135 154 166 142 151 151 158 132 144 139 143 148 145 166 189 149 170 177
171 196 162 186 249 294 303 293 277 268 289 286 296 295 294 311 315 323 147 141 134 136 146 147 153 164 154 179 156 148 150 147 144 157 152 137 202 144 159 145 200 182 141 187
156 139 154 168 297 257 297 288 298 275 269 294 292 298 303 297 324 309 303 228 140 139 143 158 139 142 144 145 153 148 143 152 150 155 194 156 147 135 151 137 130 180 170 183
145 175 139 182 167 300 166 204 282 284 274 288 280 279 311 298 323 300 273 266 200 164 140 140 142 142 142 146 154 148 152 160 147 178 157 167 97 165 189 147 142 189 182 190
185 178 150 129 151 142 164 199 303 285 282 276 267 278 286 292 320 288 284 276 221 199 197 186 146 183 151 148 150 141 144 146 151 153 158 176 157 165 164 144 178 173 178 153
132 213 126 153 151 153 150 190 216 293 288 290 277 273 277 297 309 297 298 271 268 217 184 202 177 180 188 212 152 146 147 170 162 173 173 179 186 184 181 173 153 160 181 170
172 173 198 140 144 194 160 284 271 332 313 287 292 273 272 286 297 312 294 270 275 218 210 212 199 187 196 190 199 175 186 163 159 163 162 175 165 168 164 168 165 192 166 146
123 188 178 186 149 148 146 141 192 165 321 303 297 282 282 239 284 311 287 306 271 222 207 198 210 200 197 193 203 195 192 187 189 187 176 184 190 195 195 188 186 175 163 148
162 150 115 209 152 131 150 148 308 205 338 302 294 303 288 300 300 283 284 279 285 246 213 208 210 211 196 205 200 185 187 191 185 179 188 193 148 189 187 168 190 212 214 179
116 121 136 184 179 172 133 152 164 272 326 325 231 293 320 289 276 264 306 284 264 255 201 218 215 211 198 197 210 198 195 185 202 184 181 188 184 184 187 199 170 192 175 187
200 124 106 119 174 177 145 141 453 147 404 356 304 199 308 293 287 261 300 264 236 217 242 228 206 216 210 198 194 189 201 193 190 192 182 183 185 183 181 176 179 179 190 213
162 158 162 146 255 153 149 148 176 151 358 340 346 312 300 299 283 299 276 303 265 248 239 214 222 214 212 194 216 199 204 198 186 190 200 197 194 195 188 174 176 178 171 175
149 159 155 135 160 258 124 148 155 173 123 357 253 351 319 308 298 297 178 277 253 221 278 239 232 198 226 211 195 217 210 191 193 204 193 194 185 183 188 194 182 180 166 172
189 195 156 153 165 150 176 217 141 187 167 160 166 378 385 241 278 304 288 282 207 259 232 259 227 235 205 226 220 209 212 213 222 202 200 202 213 220 193 176 181 179 177 173
152 194 197 157 218 174 209 248 152 152 137 412 143 258 208 376 333 314 298 278 285 180 202 168 252 239 238 223 216 199 191 209 204 215 203 204 234 220 182 222 205 197 209 205
146 151 207 179 185 172 149 266 177 168 174 375 407 124 118 398 370 350 314 307 304 278 239 235 152 143 144 217 215 222 220 220 193 224 204 215 215 183 199 228 223 216 185 167
141 152 218 190 192 162 164 178 178 160 192 253 183 272 124 146 238 152 320 309 307 309 283 232 239 233 238 229 190 196 139 161 190 217 218 212 204 198 205 206 203 194 191 190
206 145 202 174 202 185 165 187 143 174 149 146 197 150 140 359 119 122 367 337 298 299 301 300 277 242 233 227 230 172 186 216 188 217 225 202 212 203 199 194 192 185 184 200
147 200 199 188 209 174 176 222 162 140 225 143 252 143 114 312 115 118 330 325 346 308 297 297 297 262 251 238 226 124 223 230 215 212 218 215 173 217 218 201 199 217 209 211
200 198 199 195 193 193 176 176 183 151 151 233 125 261 145 137 274 360 123 373 163 372 362 303 298 292 255 248 240 234 218 224 225 212 217 216 212 207 205 207 148 210 217 212
196 193 197 209 199 200 190 163 182 149 192 140 199 136 265 129 138 127 403 130 178 227 360 238 306 303 297 304 303 276 239 170 127 164 128 161 226 225 233 213 208 213 212 214
194 186 191 189 195 185 195 182 160 150 148 133 161 128 132 149 260 169 400 385 127 300 355 351 347 352 353 329 298 293 282 291 280 173 125 129 229 230 224 226 228 228 225 224
194 186 181 183 194 143 177 229 175 162 130 145 125 161 239 129 143 259 135 391 379 123 174 229 348 343 334 335 343 354 340 322 184 126 127 237 298 281 284 277 267 275 249 246
192 194 181 186 189 189 120 189 148 153 152 130 182 140 153 126 136 246 252 203 406 402 377 348 331 329 329 334 337 333 333 327 321 322 320 319 297 292 279 270 269 268 276 281
187 194 185 184 185 192 191 205 199 188 135 187 228 137 240 102 246 236 269 233 291 371 375 411 371 338 329 322 321 312 317 313 313 313 317 316 312 305 304 305 303 301 299 296
189 191 186 187 177 164 194 193 186 164 143 153 217 185 199 160 173 242 268 278 233 276 312 359 389 388 350 328 316 312 311 302 311 305 305 304 302 305 293 290 290 294 296 291

GFSCGP_2pvu_pres_114.txt.gz
Presure
165 148 159 180 250 151 143 175 279 282 295 307 323 328 324 281 289 305 251 159 111 148 150 141 144 149 178 134 136 134 166 176 192 141 137 163 155 174 139 136 136 143 158 137
162 138 156 191 138 194 301 305 291 263 269 293 298 322 322 277 291 294 284 158 162 158 155 151 146 149 139 162 166 144 173 152 187 146 167 154 177 128 128 142 150 136 133 153
141 139 173 183 151 186 185 175 240 287 305 270 297 310 303 269 277 281 275 185 178 156 180 164 149 148 149 141 159 154 154 175 174 161 149 154 166 168 162 152 127 150 129 157
150 128 192 145 155 159 150 135 312 297 293 289 282 283 307 316 264 270 270 208 152 147 175 236 165 153 149 142 149 176 146 150 165 172 181 158 201 163 145 140 181 132 136 147
134 145 182 143 149 168 156 133 186 244 283 290 276 287 287 295 324 259 259 259 262 149 181 170 161 149 154 135 156 154 148 153 151 150 141 152 140 189 128 157 86 153 111 153
160 187 137 148 146 154 138 153 181 180 310 294 284 281 274 285 297 337 257 257 264 160 161 153 178 164 152 170 149 156 162 167 154 173 172 146 153 144 151 190 141 151 150 152
156 195 176 130 121 166 191 144 195 138 273 304 295 290 283 279 299 304 314 292 264 220 187 170 180 171 166 146 148 169 146 146 174 157 172 180 166 169 170 174 163 156 165 165
170 163 232 211 117 138 478 188 173 164 319 314 302 294 277 276 297 292 302 300 289 219 197 220 160 161 163 167 174 186 160 169 161 165 179 139 161 176 176 178 175 165 202 167
193 165 198 179 155 129 148 229 146 156 177 176 319 298 274 282 285 286 304 285 287 240 194 199 190 185 190 190 174 175 187 158 157 180 184 176 187 171 171 174 167 179 166 164
169 138 179 171 195 149 142 146 142 175 126 185 327 318 236 289 279 287 297 297 290 230 210 197 192 183 188 182 213 186 166 180 167 175 175 170 166 176 174 175 183 172 173 171
151 173 179 146 134 189 220 194 180 142 159 155 236 282 307 259 271 298 299 289 294 245 222 195 194 182 192 194 180 197 192 184 183 190 192 197 191 188 190 192 184 181 182 187
176 179 159 155 132 227 202 185 143 152 183 155 162 188 131 308 282 287 300 296 282 296 246 224 203 201 200 204 191 196 201 199 201 187 194 165 168 169 170 167 170 176 193 181
159 204 188 192 146 172 175 219 196 239 340 164 151 289 119 316 315 289 287 293 281 294 252 235 224 202 207 194 191 207 196 194 210 188 201 182 186 190 184 182 179 183 178 176
160 149 197 152 150 196 150 178 205 250 136 172 169 229 384 241 230 234 215 305 286 303 256 258 231 222 195 206 216 208 195 197 194 193 199 193 179 179 195 181 185 194 193 185
170 148 185 182 173 156 166 242 213 159 183 166 143 308 337 136 314 303 176 298 302 292 273 259 244 232 219 225 215 219 204 209 201 189 188 195 194 195 192 194 203 198 193 182
152 144 142 149 154 220 194 139 160 193 170 167 160 156 134 341 141 126 151 119 294 290 292 286 284 250 224 203 139 205 200 202 209 208 199 185 202 203 193 202 192 190 189 187
146 182 211 149 190 183 172 199 203 169 156 167 151 152 146 285 135 356 145 129 179 305 257 295 239 240 255 229 203 218 163 185 201 219 201 198 199 185 193 187 190 198 207 185
178 171 205 148 213 179 184 193 192 196 194 171 284 155 222 141 140 177 133 115 145 237 285 263 284 270 274 270 226 223 215 212 212 203 144 166 141 174 164 203 167 191 184 214
153 206 182 205 201 205 198 184 171 258 167 203 205 208 258 135 127 150 131 185 280 118 127 126 290 269 155 260 284 224 219 217 211 216 192 126 188 214 182 180 200 202 198 197
197 201 197 206 201 173 156 182 170 231 169 154 182 162 159 136 167 135 256 238 176 125 152 135 127 262 266 209 255 268 243 259 229 216 199 210 228 210 208 200 196 122 134 192
169 166 196 203 203 201 186 209 170 182 165 223 159 188 150 130 127 241 141 201 201 255 127 121 308 131 219 281 263 267 256 261 266 253 228 215 216 213 155 195 157 188 122 204
129 199 194 186 185 191 189 198 194 188 137 188 137 141 220 248 159 208 189 245 254 310 419 425 403 380 352 163 349 278 263 270 259 253 236 257 234 221 234 228 131 220 157 211
196 197 193 194 189 188 197 196 188 156 182 143 147 177 100 136 196 269 252 288 292 254 331 423 410 395 374 363 360 354 352 291 295 287 262 235 261 256 245 232 215 217 229 233
201 196 194 189 189 187 175 197 189 176 152 150 152 147 170 127 226 128 252 143 139 291 261 265 337 359 388 379 365 358 356 347 337 335 281 257 239 276 233 223 243 256 226 234
200 197 196 190 191 189 190 180 184 198 156 181 183 148 127 132 131 144 118 149 247 277 265 288 294 295 346 395 372 362 352 342 337 339 338 337 285 328 283 251 239 251 230 267
200 198 192 192 187 194 184 176 191 158 175 201 158 151 164 128 153 131 155 254 243 258 269 257 252 282 278 311 349 403 362 348 339 336 187 319 318 317 318 316 309 311 284 237

GFSCGP_2pvu_pres_117.txt.gz
Presure
132 147 148 154 95 149 133 149 316 252 157 273 223 317 316 320 236 151 170 184 163 195 166 166 162 132 91 124 99 172 127 99 134 135 121 169 165 136 177 135 134 150 145 134
135 232 144 135 138 154 181 160 183 180 148 303 309 308 319 316 333 354 158 149 176 183 161 225 107 166 133 159 149 205 138 165 193 143 152 209 168 159 152 168 161 152 167 144
193 139 124 140 147 151 157 159 164 234 166 289 303 310 332 309 306 334 326 159 169 176 171 162 206 78 143 119 139 146 145 150 176 188 159 174 146 133 170 164 155 146 153 146
148 158 125 137 146 133 175 147 169 168 279 305 307 310 301 308 334 313 272 268 256 176 167 158 141 153 178 135 160 156 148 159 156 181 198 199 155 147 167 166 159 163 153 169
147 121 143 159 189 191 121 139 150 153 145 287 304 304 316 319 302 274 266 261 258 242 155 145 209 154 149 143 142 166 148 158 186 151 141 168 216 174 209 151 131 137 133 126
129 153 143 164 203 327 155 134 172 148 145 306 286 310 302 334 289 275 264 254 256 240 237 211 152 153 202 174 160 161 193 150 193 166 150 155 157 166 137 162 145 124 137 142
188 147 157 180 169 184 153 142 146 167 172 257 314 215 274 274 285 277 265 266 248 251 233 167 208 151 152 240 167 149 149 156 170 151 160 141 157 160 159 149 171 139 144 139
141 163 194 123 181 272 260 180 157 159 176 144 145 267 184 265 252 252 280 264 252 242 242 240 186 196 162 275 176 163 191 148 148 150 182 173 176 161 165 152 199 159 157 207
156 167 151 170 179 176 178 167 177 174 148 177 121 132 147 309 266 279 266 269 269 242 239 217 183 192 217 201 217 167 158 159 167 157 179 175 168 156 171 181 172 176 189 182
163 176 168 174 203 176 176 415 189 165 141 211 166 131 129 301 146 264 233 262 272 258 247 258 236 181 195 186 186 176 178 214 171 195 160 176 187 156 151 155 162 190 183 183
163 177 172 148 166 206 289 189 320 274 185 180 171 240 222 304 140 268 254 263 277 274 276 259 209 198 187 240 219 191 203 192 185 174 175 200 185 199 177 173 186 175 189 171
160 190 244 171 186 145 165 138 173 336 395 167 176 170 314 306 134 300 309 279 256 246 267 258 201 204 210 224 207 169 207 191 195 198 196 198 180 181 183 192 198 187 171 174
214 168 161 198 160 194 255 243 283 237 343 182 155 174 142 323 232 296 300 293 277 268 251 261 214 205 204 193 240 211 207 195 171 199 192 185 184 191 189 191 188 193 177 173
169 157 204 212 184 147 224 187 261 188 167 156 175 171 298 358 284 295 295 290 296 293 261 254 225 232 198 213 224 206 188 223 202 192 198 191 180 200 180 181 189 184 190 192
182 171 163 151 153 146 272 247 180 177 262 170 211 173 149 165 411 264 188 154 284 303 313 296 259 243 237 221 212 202 212 213 211 186 196 188 192 208 194 201 193 190 187 193
219 177 148 230 187 216 260 149 162 244 174 277 175 170 367 144 164 201 127 261 142 153 133 123 303 134 224 212 215 193 220 185 200 207 213 197 204 189 190 194 200 181 203 191
215 172 160 205 171 200 191 222 212 217 236 265 176 203 112 166 265 227 155 213 129 256 147 250 281 114 260 191 138 174 213 211 204 208 206 202 203 196 201 190 192 189 190 189
150 151 189 212 217 203 213 210 173 173 204 256 226 240 162 213 259 146 140 130 264 120 216 201 125 224 230 127 216 218 228 210 211 228 211 205 202 198 188 195 186 187 195 164
148 148 204 201 205 196 202 184 194 165 219 168 131 172 194 141 153 148 131 132 243 143 120 126 288 277 114 265 119 226 224 215 158 141 207 200 211 221 208 192 183 127 127 187
143 174 153 131 204 193 203 217 172 193 196 205 211 173 165 184 210 274 137 154 258 127 132 125 399 126 307 127 273 141 139 126 189 208 238 225 232 210 199 206 217 195 193 214
159 139 183 152 203 196 186 197 208 212 173 172 165 155 158 168 198 200 149 199 266 261 289 141 110 309 257 129 253 284 287 271 252 123 231 251 232 219 233 200 198 209 210 208
196 205 199 203 196 201 193 198 191 211 186 161 179 155 200 163 131 190 222 123 208 221 216 209 108 363 472 449 416 404 299 327 253 257 257 246 226 240 222 222 229 223 212 212
149 181 203 197 199 193 199 192 175 198 206 170 164 143 173 150 131 119 165 195 120 148 145 159 240 321 270 246 434 431 151 413 383 283 273 294 242 240 229 223 230 198 202 208
209 132 209 200 199 198 195 199 190 192 190 163 176 133 144 193 231 146 150 168 128 217 131 235 257 144 266 303 112 317 348 413 397 388 385 375 314 286 317 253 254 254 240 231
126 179 210 210 200 196 194 189 191 181 195 187 160 186 149 156 147 155 134 229 160 119 243 268 226 245 256 258 229 307 320 327 335 383 378 370 358 351 350 302 265 279 277 279
134 210 222 217 210 204 199 193 190 189 195 200 189 153 151 159 138 134 159 159 136 153 138 225 253 275 260 235 265 225 264 297 298 319 327 369 360 348 338 334 334 330 323 323